     2              OBSERVATION DATA    G (GPS)             RINEX VERSION / TYPE
ASRINEXO V2.9.7 UX USGS/MENLO_PARK 23-JUL-01 17:21          PGM / RUN BY / DATE
                                                            COMMENT
National Earthquake Hazard Reduction Program                COMMENT
Crustal Strain Project                                      COMMENT
345 Middlefield Road, MS/977                                COMMENT
U.S. Geological Survey, Menlo Park, California 94025        COMMENT
Contact: kwendt@usgs.gov (Ph: 650-329-4866)                 COMMENT
HI's are vertical to base of antenna                        COMMENT
BIT 2 OF LLI (+4) FLAGS DATA COLLECTED UNDER "AS" CONDITION COMMENT
hp12 HPGN_01-12_1991_Cal_Trans                              MARKER NAME
CHS                                                         OBSERVER / AGENCY
801 ASHTECH Z-XII3 CD00                                     REC # / TYPE / VERS
CR619992801 ASH701945.02B NONE                              ANT # / TYPE
 -2640675.0000 -3946159.0000  4245644.0000                  APPROX POSITION XYZ
        1.3762        0.0000        0.0000                  ANTENNA: DELTA H/E/N
     1     1                                                WAVELENGTH FACT L1/2
     5    C1    L1    L2    P1    P2                        # / TYPES OF OBSERV
    30                                                      INTERVAL
  2001     7    19    15    30    0.000000                  TIME OF FIRST OBS
                                                            END OF HEADER
 01  7 19 15 30  0.0000000  0  9 26 22 30 17 06 15 23 18 10
  23714544.086     -211718.889 8   -154155.19845  23714544.832    23714553.4134
  23748984.647     -123798.362 8    -86250.74245  23748984.090    23748990.6144
  23305210.697      401058.284 8    289903.92746  23305211.079    23305218.2134
  21360612.433      -91609.124 9    -66883.23547  21360611.846    21360618.3714
  20578836.817                                    20578835.788    20578857.9314
  22373181.698     -183900.987 8   -134059.81646  22373182.048    22373189.6864
  22167991.953     -201397.625 8   -147050.08747  22167990.979    22167998.3524
  23625622.913                                    23625626.329    23625624.0224
  22783933.991      311320.580 8    225483.01346  22783933.041    22783940.0684
 01  7 19 15 30 30.0010000  0  9 26 22 30 17 06 15 23 18 10
  23708921.688    -1816686.494 8  -1404779.15845  23708922.045    23708931.0614
  23747154.362    -1708835.610 8  -1321344.69145  23747154.007    23747161.1454
  23334804.222    -1018850.431 8   -816518.54746  23334803.862    23334811.0554
  21361915.801    -1660180.881 9  -1289146.92747  21361914.984    21361921.5284
  20590041.015                                    20590039.692    20590056.0394
  22369139.866    -1780564.532 8  -1378213.17846  22369139.597    22369147.2534
  22162971.438    -1803202.055 8  -1395209.34347  22162970.195    22162977.5054
  23614920.095    -1272041.07454                  23614917.803    23614926.8764
  22809728.318    -1128554.571 8   -896497.64746  22809726.246    22809733.4664
 01  7 19 15 31  0.0010000  0  9 26 22 30 17 06 15 23 18 10
  23693585.587    -1897277.998 7  -1467577.57845  23693585.533    23693594.8274
  23735648.407    -1769300.543 8  -1368460.26345  23735647.933    23735655.0184
  23354663.924     -914485.397 8   -735195.28446  23354663.902    23354671.0884
  21353503.063    -1704389.675 9  -1323595.33547  21353502.338    21353508.9064
  20591558.520                                    20591557.122    20591571.6164
  22355375.627    -1852897.167 8  -1434576.23546  22355375.195    22355382.7514
  22148254.424    -1880538.714 9  -1455471.63747  22148253.543    22148260.8384
  23594485.879    -2034522.70818  -1355714.54846  23594485.798    23594492.7864
  22825820.866    -1043982.420 8   -830597.33646  22825819.694    22825827.1454
 01  7 19 15 31 30.0010000  0  9 26 22 30 17 06 15 23 18 10
  23678303.279    -1977586.904 8  -1530155.82245  23678303.342    23678312.4614
  23724233.027    -1829288.267 8  -1415203.91045  23724232.366    23724239.8284
  23374558.168     -809941.166 8   -653732.34346  23374558.119    23374565.2534
  21345141.118    -1748331.417 9  -1357835.63747  21345140.487    21345147.0904
  20593156.543    -1223372.51253                  20593155.195    20593162.5404
  22341655.933    -1924995.572 8  -1490756.76246  22341655.394    22341662.8354
  22133608.559    -1957502.657 8  -1515443.49147  22133607.812    22133615.0804
  23574087.644    -2141716.215 8  -1439241.90446  23574087.070    23574093.9624
  22841981.466     -959057.334 8   -764421.99946  22841980.475    22841987.8204
 01  7 19 15 32  0.0010000  0  9 26 22 30 17 06 15 23 18 10
  23663075.368    -2057610.664 8  -1592511.86145  23663075.274    23663084.3174
  23712908.781    -1888796.765 8  -1461574.15745  23712908.155    23712915.8204
  23394486.009     -705220.868 8   -572132.23546  23394485.904    23394492.9174
  21336830.055    -1792006.721 9  -1391868.33247  21336829.370    21336835.9224
  20594835.269    -1407542.862 9  -1216498.16847  20594834.982    20594840.5624
  22327980.788    -1996860.007 8  -1546754.97946  22327980.111    22327987.4914
  22119033.937    -2034092.856 8  -1575124.11747  22119033.192    22119040.4104
  23553725.282    -2248720.351 8  -1522621.68746  23553724.956    23553731.7834
  22858208.837     -873782.711 8   -697974.26546  22858207.812    22858215.0054
 01  7 19 15 32 30.0010000  0  9 26 22 30 17 06 15 23 18 10
  23647902.569    -2137344.016 8  -1654641.61145  23647902.517    23647911.3764
  23701676.583    -1947822.384 8  -1507568.13846  23701675.921    23701683.7414
  23414447.103     -600325.808 8   -490395.95246  23414446.925    23414453.8444
  21328569.957    -1835413.785 9  -1425692.00847  21328569.289    21328575.8504
  20596595.177    -1398294.506 9  -1209291.67548  20596594.844    20596600.5594
  22314350.375    -2068488.340 8  -1602569.22846  22314349.707    22314357.0864
  22104530.993    -2110305.817 8  -1634510.78647  22104530.322    22104537.5904
  23533399.890    -2355531.033 8  -1605850.70546  23533399.536    23533406.4374
  22874502.320     -788159.613 8   -631255.01246  22874501.292    22874508.5134
 01  7 19 15 33  0.0010000  0  9 26 22 30 17 06 15 23 18 10
  23632785.604    -2216783.640 8  -1716542.48745  23632785.683    23632794.4814
  23690536.669    -2006363.268 8  -1553184.37046  23690535.883    23690543.8584
  23434440.702     -495258.788 8   -408525.64246  23434440.634    23434447.5814
  21320360.954    -1878552.498 9  -1459306.58147  21320360.302    21320366.8384
  20598436.389    -1388618.767 9  -1201752.15748  20598436.069    20598441.9014
  22300765.225    -2139879.669 8  -1658198.77746  22300764.432    22300771.7714
  22090100.216    -2186139.755 9  -1693602.12747  22090099.612    22090106.8244
  23513111.811    -2462145.941 8  -1688927.18046  23513111.382    23513118.3394
  22890861.507     -702190.655 8   -564266.26746  22890860.537    22890867.9624
 01  7 19 15 33 30.0010000  0  9 26 22 30 17 06 15 23 18 10
  23617725.349    -2295925.671 7  -1778211.45445  23617725.320    23617734.3514
  23679489.163    -2064417.742 8  -1598421.60745  23679488.461    23679496.3784
  23454466.566     -390022.378 8   -326523.36646  23454466.490    23454473.4614
  21312203.097    -1921422.535 9  -1492711.79947  21312202.449    21312208.9834
  20600359.119    -1378514.812 9  -1193878.96148  20600358.788    20600364.6414
  22287225.027    -2211033.354 8  -1713643.17346  22287224.326    22287231.6664
  22075742.021    -2261592.495 8  -1752396.41747  22075741.392    22075748.5944
  23492861.557    -2568562.565 8  -1771849.15946  23492861.080    23492867.9204
  22907286.231     -615878.468 8   -497010.05446  22907285.256    22907292.7364
 01  7 19 15 34  0.0010000  0  9 26 22 30 17 06 15 23 18 10
  23602722.250    -2374767.015 7  -1839646.11345  23602722.186    23602731.3014
  23668534.714    -2121983.983 8  -1643278.40345  23668533.955    23668541.7024
  23474524.110     -284619.340 8   -244391.24846  23474524.085    23474531.2484
  21304096.309    -1964023.804 9  -1525907.58647  21304095.671    21304102.2504
  20602363.467    -1367981.941 9  -1185671.54048  20602363.171    20602369.0364
  22273730.053    -2281949.067 8  -1768902.13746  22273729.448    22273736.8854
  22061456.592    -2336662.453 8  -1810892.44647  22061456.052    22061463.1964
  23472649.559    -2674778.525 8  -1854614.76646  23472648.963    23472655.6274
  22923775.683     -529225.711 8   -429488.46746  22923774.702    22923782.2974
 01  7 19 15 34 30.0010000  0  9 26 22 30 17 06 15 23 18 10
  23587777.030    -2453303.878 7  -1900843.51545  23587776.852    23587785.9974
  23657673.585    -2179059.519 8  -1687752.82945  23657672.854    23657680.6594
  23494612.749     -179052.717 8   -162131.66346  23494612.719    23494620.0654
  21296040.742    -2006356.250 9  -1558893.89847  21296040.118    21296046.6644
  20604449.625    -1357019.434 9  -1177129.34048  20604449.316    20604455.1704
  22260280.551    -2352626.374 8  -1823975.32547  22260280.029    22260287.4164
  22047244.324    -2411347.950 8  -1869088.88947  22047243.791    22047251.0564
  23452476.053    -2780791.443 8  -1937222.17146  23452475.339    23452481.9284
  22940329.437     -442234.817 8   -361703.41446  22940328.511    22940336.1864
 01  7 19 15 35  0.0010000  0  9 26 22 30 17 06 15 23 18 10
  23572890.183    -2531533.475 7  -1961801.50445  23572890.229    23572899.2964
  23646906.213    -2235642.902 8  -1731843.76945  23646905.448    23646913.1084
  23514731.853      -73325.756 8    -79747.15246  23514731.900    23514739.3294
  21288036.222    -2048420.132 9  -1591670.94047  21288035.600    21288042.1224
  20606617.540    -1345626.863 9  -1168252.03248  20606617.256    20606623.0854
  22246876.443    -2423065.092 8  -1878862.60147  22246875.879    22246883.2874
  22033105.530    -2485647.452 9  -1926984.56547  22033105.089    22033112.3744
  23432341.527    -2886599.547 8  -2019669.95446  23432340.618    23432347.1954
  22956947.056     -354908.969 8   -293657.35146  22956946.097    22956953.7804
 01  7 19 15 35 30.0010000  0  9 26 22 30 17 06 15 23 18 10
  23558062.661    -2609452.200 8  -2022517.26945  23558062.663    23558071.6064
  23636232.810    -2291732.507 8  -1775549.95145  23636231.967    23636239.5984
  23534881.054       32558.744 8      2760.14246  23534881.171    23534888.5434
  21280082.923    -2090215.229 9  -1624238.54347  21280082.276    21280088.7744
  20608867.504    -1333803.552 9  -1159039.08248  20608867.178    20608872.9704
  22233517.882    -2493264.641 8  -1933563.51147  22233517.297    22233524.7694
  22019040.730    -2559559.146 8  -1984578.05347  22019040.156    22019047.4614
  23412246.233    -2992200.252 8  -2101956.16146  23412245.360    23412251.9374
  22973627.974     -267250.905 8   -225352.42046  22973626.979    22973634.6844
 01  7 19 15 36  0.0010000  0  9 26 22 30 17 06 15 23 18 10
  23543295.010    -2687056.772 8  -2082988.25445  23543295.106    23543303.7114
  23625653.732    -2347327.013 8  -1818870.31545  23625652.721    23625660.3764
  23555059.740      138598.025 8     85388.01846  23555059.712    23555067.2764
  21272180.663    -2131741.700 9  -1656596.83347  21272180.086    21272186.5624
  20611199.495    -1321548.817 9  -1149489.95048  20611199.184    20611204.9864
  22220204.928    -2563224.791 8  -1988077.88647  22220204.373    22220211.7664
  22005049.875    -2633081.536 8  -2041868.18147  22005049.311    22005056.6484
  23392190.641    -3097591.228 8  -2184078.92846  23392189.954    23392196.5964
  22990371.422     -179263.571 8   -156790.92946  22990370.508    22990378.1744
 01  7 19 15 36 30.0010000  0  9 26 22 30 17 06 15 23 18 10
  23528587.753    -2764343.633 8  -2143211.65945  23528587.808    23528596.3464
  23615169.218    -2402424.127 8  -1861803.09945  23615168.159    23615175.7984
  23575267.180      244789.283 8    168134.33146  23575267.261    23575274.9074
  21264329.661    -2172999.164 9  -1688745.48947  21264329.021    21264335.6144
  20613613.768    -1308861.779 9  -1139603.96948  20613613.492    20613619.3294
  22206937.749    -2632944.873 8  -2042405.19447  22206937.088    22206944.4404
  21991133.417    -2706212.741 8  -2098853.48847  21991132.866    21991140.2844
  23372175.655    -3202770.028 8  -2266036.36946  23372175.030    23372181.5754
  23007177.099      -90949.374 8    -87974.72946  23007176.223    23007183.7964
 01  7 19 15 37  0.0010000  0  9 26 22 30 17 06 15 23 18 10
  23513941.688    -2841309.640 8  -2203185.07345  23513941.727    23513950.1934
  23604779.345    -2457021.856 7  -1904346.73845  23604778.322    23604786.2474
  23595503.376      351129.610 8    250996.79946  23595503.362    23595511.0584
  21256529.715    -2213987.836 9  -1720684.70447  21256529.131    21256535.7514
  20616110.539    -1295741.816 9  -1129380.63648  20616110.224    20616116.0014
  22193716.265    -2702424.610 8  -2096545.23247  22193715.610    22193722.9104
  21977291.634    -2778951.237 8  -2155532.80847  21977291.148    21977298.5844
  23352201.702    -3307734.482 8  -2347826.77746  23352200.938    23352207.5504
  23024044.602       -2311.255 8    -18906.10846  23024043.696    23024051.1134
 01  7 19 15 37 30.0010000  0  9 26 22 30 17 06 15 23 18 10
  23499357.167    -2917951.484 8  -2262905.90545  23499357.174    23499365.6734
  23594484.899    -2511118.606 8  -1946500.02945  23594484.029    23594491.9534
  23615767.566      457615.926 8    333973.04545  23615767.254    23615774.8894
  21248781.019    -2254707.558 9  -1752414.36247  21248780.425    21248787.0844
  20618689.671    -1282188.378 9  -1118819.53448  20618689.358    20618695.1824
  22180540.645    -2771663.569 8  -2150497.62447  22180539.932    22180547.1294
  21963525.005    -2851295.350 8  -2211904.79747  21963524.518    21963531.9664
  23332268.679    -3412482.599 8  -2429448.61846  23332267.947    23332274.7054
  23040973.230       86647.881 8     50412.62946  23040972.237    23040979.5934
 01  7 19 15 38  0.0010000  0  9 26 22 30 17 06 15 23 18 10
  23484835.040    -2994265.479 8  -2322371.27445  23484835.087    23484843.5344
  23584286.167    -2564712.923 7  -1988261.78345  23584285.269    23584293.2774
  23636058.546      564245.375 8    417060.80346  23636058.337    23636065.8974
  21241083.561    -2295158.158 9  -1783934.30947  21241082.954    21241089.5814
  20621351.466    -1268200.621 9  -1107920.00948  20621351.186    20621357.0124
  22167410.853    -2840661.231 8  -2204262.02147  22167410.151    22167417.3054
  21949833.800    -2923243.186 9  -2267968.03247  21949833.376    21949840.6904
  23312377.359    -3517011.738 8  -2510899.84546  23312376.658    23312383.4284
  23057962.360      175925.750 8    119979.73646  23057961.315    23057968.6874
 01  7 19 15 38 30.0010000  0  9 26 22 30 17 06 15 23 18 10
  23470376.142    -3070248.041 8  -2381578.37245  23470376.127    23470384.3514
  23574183.318    -2617802.859 8  -2029630.53745  23574182.463    23574190.5074
  23656376.186      671015.780 8    500258.38346  23656376.212    23656383.8064
  21233437.353    -2335339.342 9  -1815244.32347  21233436.768    21233443.3704
  20624096.135    -1253777.590 9  -1096681.30548  20624095.855    20624101.6804
  22154327.174    -2909416.760 8  -2257837.72047  22154326.379    22154333.5764
  21936218.506    -2994792.979 9  -2323721.08047  21936217.952    21936225.2094
  23292528.046    -3621319.195 8  -2592178.29246  23292527.459    23292534.3304
  23075011.533      265519.861 8    189793.27746  23075010.532    23075017.9394
 01  7 19 15 39  0.0010000  0  9 26 22 30 17 06 15 23 18 10
  23455980.607    -3145896.220 8  -2440524.92545  23455980.633    23455988.8104
  23564176.889    -2670386.665 8  -2070604.92745  23564176.150    23564183.9574
  23676720.122      777923.797 8    583563.19846  23676720.178    23676727.8214
  21225842.389    -2375251.411 9  -1846344.63447  21225841.795    21225848.3544
  20626923.698    -1238918.994 9  -1085103.20048  20626923.378    20626929.2024
  22141289.329    -2977930.325 8  -2311224.87947  22141288.645    22141295.8794
  21922678.946    -3065943.402 9  -2379162.93947  21922678.455    21922685.7274
  23272721.369    -3725403.162 8  -2673282.63246  23272720.950    23272727.7764
  23092120.447      355427.162 8    259850.86546  23092119.458    23092126.8784
 01  7 19 15 39 30.0010000  0  9 26 22 30 17 06 15 23 18 10
  23441649.383    -3221206.741 8  -2499208.38045  23441649.434    23441657.6264
  23554267.602    -2722462.646 8  -2111183.61245  23554266.690    23554274.1514
  23697089.591      884966.527 8    666972.99546  23697089.766    23697097.4434
  21218298.618    -2414894.391 9  -1877235.27047  21218298.018    21218304.5114
  20629834.171    -1223624.445 9  -1073185.38748  20629833.863    20629839.6644
  22128297.669    -3046201.401 8  -2364423.09747  22128297.009    22128304.3264
  21909215.893    -3136692.984 9  -2434292.44547  21909215.296    21909222.5634
  23252957.744    -3829261.404 8  -2754211.08946  23252957.273    23252964.1124
  23109288.244      445644.497 8    330150.03246  23109287.253    23109294.7374
 01  7 19 15 40  0.0010000  0  9 26 22 30 17 06 15 23 18 10
  23427383.092    -3296176.362 8  -2557626.18645  23427383.150    23427391.2804
  23544454.939    -2774029.600 8  -2151365.63345  23544453.903    23544461.2084
  23717484.437      992140.990 8    750485.45646  23717484.477    23717492.1794
  21210806.058    -2454268.396 9  -1907916.30247  21210805.405    21210811.9484
  20632827.708    -1207893.460 9  -1060927.49648  20632827.431    20632833.1704
  22115352.249    -3114229.751 8  -2417432.17747  22115351.621    22115359.0124
  21895829.162    -3207040.223 9  -2489108.45347  21895828.643    21895835.8884
  23233237.532    -3932891.903 8  -2834962.05646  23233236.935    23233243.8614
  23126514.617      536169.169 8    400688.68346  23126513.667    23126521.0074
 01  7 19 15 40 30.0010000  0  9 26 22 30 17 06 15 23 18 10
  23413182.371    -3370801.970 8  -2615775.91745  23413182.241    23413190.5024
  23534739.434    -2825086.299 8  -2191150.05245  23534738.330    23534745.5494
  23737903.742     1099444.188 8    834098.22646  23737903.741    23737911.4554
  21203364.548    -2493373.421 9  -1938387.74847  21203363.927    21203370.5184
  20635904.435    -1191725.535 9  -1048329.12948  20635904.121    20635909.8934
  22102453.148    -3182015.181 8  -2470251.96447  22102452.511    22102459.8794
  21882519.460    -3276983.615 9  -2543609.76047  21882518.847    21882526.0084
  23213560.781    -4036292.304 8  -2915533.72146  23213560.327    23213567.3734
  23143798.937      626998.480 8    471464.68346  23143798.052    23143805.3844
 01  7 19 15 41  0.0010000  0  9 26 22 30 17 06 15 23 18 10
  23399047.601    -3445079.775 8  -2673654.64645  23399047.587    23399055.9084
  23525121.144    -2875630.555 8  -2230535.19345  23525120.019    23525127.2104
  23758347.024     1206873.459 8    917809.21846  23758346.958    23758354.6964
  21195974.388    -2532209.211 9  -1968649.40947  21195973.783    21195980.3794
  20639064.369    -1175119.802 9  -1035389.62548  20639064.083    20639069.9184
  22089600.480    -3249557.061 8  -2522881.97847  22089599.758    22089607.0664
  21869286.893    -3346521.213 9  -2597794.87647  21869286.298    21869293.4194
  23193928.398    -4139460.172 8  -2995924.19646  23193927.998    23193935.0864
  23161140.708      718130.123 8    542476.28746  23161139.837    23161147.2354
 01  7 19 15 41 30.0010000  0  9 26 22 30 17 06 15 23 18 10
  23384979.851    -3519006.516 8  -2731259.82945  23384979.835    23384988.0194
  23515600.681    -2925660.291 8  -2269519.43645  23515599.570    23515606.8014
  23778813.605     1314426.108 8   1001616.34046  23778813.590    23778821.3894
  21188635.495    -2570775.512 9  -1998701.06847  21188634.913    21188641.4544
  20642307.783    -1158075.612 9  -1022108.45148  20642307.498    20642313.3354
  22076794.228    -3316854.495 8  -2575321.51647  22076793.504    22076800.7474
  21856131.780    -3415651.541 9  -2651662.63247  21856131.185    21856138.2984
  23174340.894    -4242393.067 8  -3076131.59846  23174340.468    23174347.5764
  23178539.578      809561.394 8    613721.38046  23178538.682    23178546.0684
 01  7 19 15 42  0.0010000  0  9 26 22 30 17 06 15 23 18 10
  23370979.604    -3592578.928 8  -2788588.92145  23370979.498    23370987.4834
  23506178.198    -2975174.184 8  -2308101.67745  23506177.212    23506184.6984
  23799303.197     1422098.883 8   1085517.09646  23799303.204    23799311.0054
  21181347.869    -2609072.584 9  -2028542.93147  21181347.238    21181353.7044
  20645634.706    -1140592.611 9  -1008485.34648  20645634.445    20645640.2444
  22064034.460    -3383907.309 8  -2627570.44247  22064033.797    22064040.9764
  21843054.404    -3484373.267 9  -2705212.00047  21843053.898    21843060.9914
  23154798.507    -4345088.808 8  -3156154.18046  23154798.127    23154805.2844
  23195994.602      901289.267 8    685197.58346  23195993.867    23196001.2964
 01  7 19 15 42 30.0010000  0  9 26 22 30 17 06 15 23 18 10
  23357047.227    -3665793.587 8  -2845639.26045  23357047.173    23357055.1374
  23496854.377    -3024170.863 8  -2346280.91046  23496853.447    23496861.0284
  23819815.276     1529889.410 8   1169509.57346  23819815.285    23819823.0224
  21174111.412    -2647100.101 9  -2058174.75847  21174110.828    21174117.3264
  20649045.306    -1122670.004 9   -994519.70348  20649045.014    20649050.8454
  22051321.367    -3450714.842 8  -2679628.25147  22051320.709    22051327.8664
  21830055.163    -3552684.630 9  -2758441.60947  21830054.648    21830061.7394
  23135301.770    -4447545.176 8  -3235990.25146  23135301.305    23135308.4324
  23213506.018      993311.209 8    756902.92246  23213505.125    23213512.6084
 01  7 19 15 43  0.0010000  0  9 26 22 30 17 06 15 23 18 10
  23343183.362    -3738647.927 8  -2902408.81645  23343183.291    23343191.4974
  23487629.248    -3072649.638 8  -2384056.57545  23487628.343    23487635.8884
  23840348.807     1637794.052 8   1253590.97546  23840348.989    23840356.7764
  21166926.137    -2684858.703 9  -2087597.03947  21166925.562    21166932.1424
  20652539.518    -1104307.924 9   -980211.61348  20652539.244    20652545.0834
  22038654.808    -3517277.566 8  -2731495.28447  22038654.207    22038661.4324
  21817134.169    -3620584.786 9  -2811350.79247  21817133.633    21817140.7634
  23115850.600    -4549760.421 8  -3315638.44046  23115850.280    23115857.4364
  23231072.424     1085623.761 8    828834.69646  23231071.714    23231079.3134
 01  7 19 15 43 30.0010000  0  9 26 22 30 17 06 15 23 18 10
  23329388.918    -3811137.797 8  -2958894.36345  23329388.830    23329397.1364
  23478503.123    -3120607.680 8  -2421426.48245  23478502.341    23478509.9454
  23860903.730     1745810.785 8   1337759.73545  23860904.000    23860911.8244
  21159792.328    -2722347.501 9  -2116809.08147  21159791.731    21159798.3204
  20656117.605    -1085505.045 9   -965560.03248  20656117.348    20656123.1884
  22026035.184    -3583594.167 8  -2783170.53947  22026034.584    22026041.7734
  21804291.887    -3688071.453 9  -2863937.78647  21804291.353    21804298.4484
  23096446.276    -4651731.638 8  -3395096.49346  23096445.873    23096452.8414
  23248693.960     1178225.160 8    900991.55746  23248693.174    23248700.8254
 01  7 19 15 44  0.0010000  0  9 26 22 30 17 06 15 23 18 10
  23315664.063    -3883261.689 8  -3015094.73845  23315664.032    23315672.3804
  23469476.137    -3168045.030 8  -2458390.65246  23469475.430    23469483.1084
  23881479.599     1853935.215 8   1422012.40746  23881479.595    23881487.4104
  21152709.447    -2759568.221 9  -2145812.23247  21152708.884    21152715.4724
  20659779.325    -1066262.662 9   -950565.99048  20659779.092    20659784.9734
  22013462.073    -3649666.178 8  -2834655.20947  22013461.448    22013468.5904
  21791528.255    -3755144.805 9  -2916202.71547  21791527.709    21791534.7534
  23077088.416    -4753458.167 8  -3474363.84846  23077087.964    23077094.9534
  23266369.698     1271110.864 8    973369.94446  23266368.778    23266376.4124
 01  7 19 15 44 30.0010000  0  9 26 22 30 17 06 15 23 18 10
  23302009.872    -3955015.227 8  -3071006.53345  23302009.954    23302018.1924
  23460548.636    -3214959.431 8  -2494947.32545  23460547.931    23460555.5334
  23902075.235     1962165.430 8   1506347.50245  23902075.297    23902083.1144
  21145677.792    -2796519.993 9  -2174605.81147  21145677.242    21145683.7704
  20663525.050    -1046579.294 9   -935228.32648  20663524.789    20663530.6804
  22000935.782    -3715492.081 8  -2885948.10747  22000935.160    22000942.3214
  21778843.672    -3821802.484 9  -2968143.73847  21778843.171    21778850.2034
  23057777.674    -4854936.708 8  -3553437.99846  23057777.283    23057784.1714
  23284098.959     1364279.050 8   1045968.43146  23284098.055    23284105.7874
 01  7 19 15 45  0.0010000  0  9 26 22 30 17 06 15 23 18 10
  23288426.488    -4026395.841 8  -3126627.74645  23288426.648    23288434.8264
  23451720.501    -3261350.423 8  -2531096.16045  23451719.902    23451727.4014
  23922690.340     2070497.910 8   1590762.29645  23922690.475    23922698.1134
  21138697.303    -2833203.054 9  -2203190.00447  21138696.715    21138703.2274
  20667354.645    -1026454.948 9   -919547.04248  20667354.378    20667360.2714
  21988456.283    -3781072.104 8  -2937049.40047  21988455.719    21988462.8814
  21766238.397    -3888043.720 9  -3019760.25847  21766237.897    21766244.9124
  23038514.431    -4956165.578 8  -3632317.57446  23038514.029    23038520.9954
  23301881.312     1457726.562 8   1118784.61746  23301880.544    23301888.4224
 01  7 19 15 45 30.0010000  0  9 26 22 30 17 06 15 23 18 10
  23274915.180    -4097397.777 8  -3181953.88845  23274915.442    23274923.5014
  23442992.974    -3307213.853 8  -2566833.86445  23442992.444    23442999.9424
  23943324.878     2178932.358 8   1675256.52045  23943325.011    23943332.7344
  21131768.302    -2869615.180 9  -2231563.08947  21131767.722    21131774.2924
  20671268.763    -1005886.584 9   -903519.77548  20671268.458    20671274.3374
  21976024.293    -3846403.228 8  -2987956.74947  21976023.656    21976030.8184
  21753713.229    -3953864.302 9  -3071049.00247  21753712.638    21753719.6964
  23019299.603    -5057140.327 8  -3710999.13846  23019299.261    23019306.1204
  23319716.958     1551453.340 8   1191818.38146  23319716.196    23319724.1274
 01  7 19 15 46  0.0010000  0  9 26 22 30 17 06 15 23 18 10
  23261476.501    -4168019.197 8  -3236983.51045  23261476.565    23261484.6814
  23434365.992    -3352549.316 8  -2602160.19045  23434365.407    23434372.8094
  23963977.930     2287464.585 8   1759826.93745  23963978.163    23963985.7914
  21124890.579    -2905757.537 9  -2259725.96647  21124890.033    21124896.6154
  20675267.121     -984875.160 9   -887147.26148  20675266.821    20675272.7564
  21963639.396    -3911486.553 8  -3038671.01347  21963638.719    21963645.9284
  21741267.926    -4019264.331 9  -3122010.04647  21741267.414    21741274.4654
  23000133.278    -5157860.135 8  -3789482.06646  23000132.919    23000139.5034
  23337605.068     1645455.114 8   1265066.46146  23337604.183    23337612.0624
 01  7 19 15 46 30.0010000  0  9 26 22 30 17 06 15 23 18 10
  23248110.374    -4238258.315 8  -3291715.26845  23248110.408    23248118.6514
  23425839.545    -3397356.787 8  -2637075.09945  23425838.869    23425846.0884
  23984648.837     2396090.005 8   1844469.98545  23984649.012    23984656.7364
  21118063.985    -2941631.626 9  -2287679.80347  21118063.479    21118070.0164
  20679349.585     -963421.779 9   -870430.37348  20679349.324    20679355.1804
  21951301.454    -3976323.075 8  -3089192.95047  21951300.801    21951308.0044
  21728902.754    -4084243.900 9  -3172643.45947  21728902.214    21728909.2634
  22981015.640    -5258324.038 8  -3867765.58146  22981015.244    22981021.7114
  23355544.539     1739727.707 8   1338525.56346  23355543.673    23355551.4744
 01  7 19 15 47  0.0010000  0  9 26 22 30 17 06 15 23 18 10
  23234818.042    -4308110.708 8  -3346145.69246  23234818.170    23234826.0644
  23417413.834    -3441634.206 8  -2671576.96146  23417413.163    23417420.3934
  24005336.924     2504807.135 8   1929184.51045  24005337.250    24005344.9434
  21111288.695    -2977236.229 9  -2315423.64047  21111288.149    21111294.6904
  20683516.509     -941524.694 9   -853367.73048  20683516.240    20683522.0364
  21939010.639    -4040911.276 9  -3139521.38847  21939010.009    21939017.2574
  21716618.073    -4148800.504 9  -3222947.28347  21716617.548    21716624.5504
  22961947.347    -5358528.961 8  -3945847.27946  22961946.855    22961953.2954
  23373535.504     1834269.808 8   1412194.64446  23373534.568    23373542.3614
 01  7 19 15 47 30.0010000  0  9 26 22 30 17 06 15 23 18 10
  23221600.023    -4377572.035 8  -3400271.36046  23221600.091    23221608.0584
  23409089.492    -3485379.158 8  -2705663.89346  23409088.815    23409096.1734
  24026042.421     2613614.632 8   2013969.43345  24026042.737    24026050.4444
  21104564.880    -3012570.221 9  -2342956.61847  21104564.314    21104570.8454
  20687768.113     -919182.507 9   -835958.26748  20687767.866    20687773.6274
  21926767.657    -4105249.565 8  -3189655.11147  21926766.915    21926774.1054
  21704414.454    -4212931.507 9  -3272919.47347  21704413.887    21704420.8114
  22942928.903    -5458471.448 8  -4023724.49546  22942928.411    22942934.8704
  23391577.304     1929079.475 8   1486072.23046  23391576.379    23391584.2994
 01  7 19 15 48  0.0010000  0  9 26 22 30 17 06 15 23 18 10
  23208456.362    -4446642.174 8  -3454092.21846  23208456.330    23208464.5024
  23400866.490    -3528593.023 8  -2739337.03046  23400865.567    23400872.8274
  24046764.018     2722506.425 8   2098820.03345  24046764.281    24046772.0504
  21097891.964    -3047636.582 9  -2370281.06147  21097891.414    21097897.9384
  20692103.896     -896397.939 9   -818204.09348  20692103.625    20692109.4404
  21914571.528    -4169340.855 8  -3239596.35947  21914570.738    21914577.8904
  21692291.471    -4276638.618 9  -3322561.36347  21692290.880    21692297.7524
  22923960.290    -5558151.780 8  -4101397.43546  22923959.842    22923966.3334
  23409668.886     2024151.283 8   1560154.09146  23409668.124    23409675.9824
 01  7 19 15 48 30.0010000  0  9 26 22 30 17 06 15 23 18 10
  23195388.141    -4515315.450 8  -3507603.83946  23195388.196    23195396.3904
  23392744.916    -3571271.689 8  -2772593.11746  23392744.000    23392751.3964
  24067501.469     2831482.132 8   2183736.01945  24067501.676    24067509.6474
  21091270.396    -3082432.700 9  -2397394.91847  21091269.888    21091276.4094
  20696524.434     -873167.927 9   -800102.81948  20696524.164    20696530.0264
  21902422.786    -4233182.101 8  -3289342.77547  21902422.139    21902429.3064
  21680249.719    -4339918.078 9  -3371870.00847  21680249.166    21680256.0504
  22905042.362    -5657565.653 8  -4178862.74346  22905042.010    22905048.5874
  23427810.370     2119485.115 8   1634440.13346  23427809.646    23427817.4634
 01  7 19 15 49  0.0010000  0  9 26 22 30 17 06 15 23 18 10
  23182396.167    -4583589.545 8  -3560804.38846  23182396.111    23182404.3054
  23384725.298    -3613414.726 8  -2805431.84046  23384724.492    23384732.0124
  24088254.337     2940538.146 8   2268714.59945  24088254.588    24088262.5964
  21084700.218    -3116959.477 9  -2424298.89947  21084699.706    21084706.2244
  20701029.682     -849492.888 9   -781654.76548  20701029.406    20701035.2414
  21890321.596    -4296773.577 8  -3338894.54047  21890321.026    21890328.1184
  21668289.515    -4402769.280 9  -3420844.94447  21668288.956    21668295.9134
  22886175.430    -5756711.841 8  -4256119.46446  22886175.121    22886181.6514
  23446001.093     2215077.104 8   1708927.32646  23446000.372    23446008.1684
 01  7 19 15 49 30.0010000  0  9 26 22 30 17 06 15 23 18 10
  23169480.513    -4651461.100 8  -3613691.29445  23169480.512    23169488.6924
  23376807.600    -3655021.551 8  -2837852.70046  23376806.883    23376814.5484
  24109021.701     3049671.675 8   2353753.55545  24109021.962    24109030.2564
  21078181.338    -3151216.818 9  -2450992.93647  21078180.809    21078187.2484
  20705619.621     -825372.557 9   -762859.72948  20705619.368    20705625.1714
  21878268.122    -4360115.082 8  -3388251.55047  21878267.561    21878274.5224
  21656411.085    -4465191.002 9  -3469485.22347  21656410.519    21656417.4914
  22867359.909    -5855588.086 8  -4333165.82846  22867359.576    22867366.1754
  23464240.296     2310924.797 8   1783613.74746  23464239.505    23464247.4474
 01  7 19 15 50  0.0010000  0  9 26 22 30 17 06 15 23 18 10
  23156642.353    -4718926.582 8  -3666261.78845  23156642.380    23156650.3604
  23368992.643    -3696089.991 8  -2869854.10446  23368991.834    23368999.3304
  24129803.444     3158880.369 8   2438851.08245  24129803.724    24129812.1354
  21071713.764    -3185204.190 9  -2477476.60647  21071713.207    21071719.7184
  20710294.457     -800806.078 9   -743717.04448  20710294.212    20710300.0244
  21866262.379    -4423205.787 8  -3437413.11447  21866261.772    21866268.7704
  21644614.710    -4527181.417 9  -3517789.41447  21644614.116    21644621.1014
  22848596.306    -5954191.614 8  -4409999.69446  22848595.996    22848602.5284
  23482527.732     2407025.749 8   1858497.55346  23482526.975    23482534.8374
 01  7 19 15 50 30.0010000  0  9 26 22 30 17 06 15 23 18 10
  23143881.918    -4785983.644 8  -3718514.03345  23143881.963    23143889.8334
  23361279.936    -3736619.357 8  -2901435.39046  23361279.173    23361286.6974
  24150598.583     3268160.515 8   2524004.26045  24150598.898    24150607.5364
  21065297.267    -3218922.534 9  -2503750.63947  21065296.808    21065303.3434
  20715054.111     -775794.105 9   -724227.22848  20715053.877    20715059.7054
  21854304.275    -4486046.071 8  -3486379.54947  21854303.690    21854310.6834
  21632900.481    -4588740.025 9  -3565757.13247  21632899.875    21632906.8424
  22829884.799    -6052521.264 8  -4486620.16146  22829884.500    22829890.9684
  23500862.919     2503376.652 8   1933576.12446  23500862.081    23500869.9504
 01  7 19 15 51  0.0010000  0  9 26 22 30 17 06 15 23 18 10
  23131199.640    -4852628.782 8  -3770445.25845  23131199.684    23131207.6234
  23353670.290    -3776608.031 8  -2932595.39046  23353669.591    23353676.9654
  24171407.120     3377509.874 8   2609211.39045  24171407.503    24171416.1174
  21058932.196    -3252371.393 9  -2529814.68347  21058931.705    21058938.2564
  20719898.675     -750335.807 9   -704389.62148  20719898.473    20719904.2994
  21842393.978    -4548635.332 8  -3535150.38047  21842393.406    21842400.3454
  21621268.629    -4649865.270 9  -3613387.16047  21621268.098    21621275.0294
  22811225.862    -6150574.413 8  -4563025.16846  22811225.607    22811231.9974
  23519244.964     2599975.126 8   2008847.59046  23519244.146    23519252.2434
 01  7 19 15 51 30.0010000  0  9 26 22 30 17 06 15 23 18 10
  23118596.410    -4918858.776 8  -3822053.00545  23118596.499    23118604.4844
  23346163.593    -3816054.936 8  -2963333.23246  23346162.978    23346170.3724
  24192228.568     3486925.737 8   2694470.34545  24192228.818    24192237.3364
  21052618.445    -3285550.659 9  -2555668.66347  21052617.906    21052624.4654
  20724828.381     -724430.672 9   -684203.84148  20724828.120    20724833.8984
  21830531.487    -4610973.020 9  -3583725.18247  21830530.928    21830537.8824
  21609719.571    -4710555.709 9  -3660678.39047  21609719.083    21609725.9344
  22792620.077    -6248348.725 8  -4639212.88446  22792619.738    22792626.1374
  23537673.528     2696818.447 8   2084309.83346  23537672.878    23537680.9654
 01  7 19 15 52  0.0010000  0  9 26 22 30 17 06 15 23 18 10
  23106072.810    -4984670.932 8  -3873335.16945  23106072.849    23106080.7604
  23338760.422    -3854959.566 8  -2993648.52546  23338759.702    23338767.1364
  24213062.026     3596404.938 8   2779778.66745  24213062.156    24213070.7554
  21046355.925    -3318460.387 9  -2581312.60547  21046355.411    21046362.0134
  20729842.971     -698078.720 9   -663669.87748  20729842.739    20729848.5674
  21818717.028    -4673059.048 8  -3632103.87947  21818716.407    21818723.2784
  21598253.545    -4770810.509 9  -3707630.14647  21598252.991    21598259.8254
  22774067.775    -6345842.425 8  -4715181.95846  22774067.351    22774073.6484
  23556148.418     2793904.045 8   2159960.86846  23556147.758    23556155.7584
 01  7 19 15 52 30.0010000  0  9 26 22 30 17 06 15 23 18 10
  23093629.110    -5050062.757 8  -3924289.81446  23093629.083    23093637.0904
  23331460.687    -3893321.102 8  -3023540.63946  23331459.916    23331467.1964
  24233906.697     3705943.757 8   2865133.43245  24233906.815    24233915.4984
  21040144.550    -3351101.551 9  -2606747.27747  21040144.011    21040150.6284
  20734942.550     -671280.425 9   -642788.11548  20734942.348    20734948.1624
  21806950.354    -4734893.660 9  -3680286.66947  21806949.683    21806956.6034
  21586870.294    -4830629.157 9  -3754242.04647  21586869.801    21586876.7154
  22755569.104    -6443054.058 8  -4790931.24346  22755568.628    22755574.8944
  23574668.878     2891228.111 8   2235797.74646  23574668.097    23574675.9584
 01  7 19 15 53  0.0010000  0  9 26 22 30 17 06 15 23 18 10
  23081266.209    -5115030.418 8  -3974913.91246  23081266.182    23081274.1744
  23324264.581    -3931137.149 8  -3053007.68046  23324263.828    23324271.0604
  24254762.248     3815540.535 8   2950533.35445  24254762.517    24254771.3184
  21033984.458    -3383473.263 9  -2631971.98347  21033983.926    21033990.4964
  20740127.300     -644034.775 9   -621557.75748  20740127.079    20740132.8454
  21795231.657    -4796475.859 9  -3728272.78347  21795230.956    21795237.9014
  21575570.581    -4890009.679 9  -3800512.54647  21575570.044    21575576.9204
  22737124.544    -6539980.715 8  -4866458.45246  22737124.047    22737130.3674
  23593234.231     2988789.166 8   2311819.26646  23593233.444    23593241.2134
 01  7 19 15 53 30.0010000  0  9 26 22 30 17 06 15 23 18 10
  23068984.746    -5179570.540 8  -4025204.86646  23068984.634    23068992.5464
  23317172.342    -3968406.529 8  -3082048.75546  23317171.688    23317178.9914
  24275628.697     3925192.687 8   3035976.41945  24275628.812    24275637.5234
  21027875.641    -3415575.145 9  -2656986.43447  21027875.125    21027881.6934
  20745397.284     -616341.034 9   -599978.24548  20745397.050    20745402.8574
  21783561.006    -4857804.902 9  -3776061.62647  21783560.335    21783567.3684
  21564354.530    -4948950.588 9  -3846440.49147  21564353.978    21564360.8234
  22718734.473    -6636619.950 8  -4941761.69746  22718734.068    22718740.4864
  23611844.143     3086584.709 8   2388023.51946  23611843.311    23611851.0064
 01  7 19 15 54  0.0010000  0  9 26 22 30 17 06 15 23 18 10
  23056784.950    -5243680.299 8  -4075160.48046  23056784.950    23056792.8044
  23310184.331    -4005128.874 8  -3110663.57746  23310183.586    23310190.9044
  24296504.995     4034897.341 8   3121460.39345  24296505.069    24296513.9134
  21021818.189    -3447407.508 9  -2681790.87047  21021817.648    21021824.1894
  20750752.484     -588199.223 9   -578049.58448  20750752.293    20750758.1334
  21771938.623    -4918880.747 9  -3823653.16447  21771937.981    21771945.0014
  21553222.279    -5007450.914 9  -3892025.13547  21553221.735    21553228.5604
  22700399.603    -6732969.920 8  -5016839.55346  22700399.240    22700405.6914
  23630498.166     3184611.744 8   2464408.15946  23630497.377    23630504.9144
 01  7 19 15 54 30.0010000  0  9 26 22 30 17 06 15 23 18 10
  23044667.743    -5307356.682 8  -4124778.38746  23044667.709    23044675.4964
  23303300.893    -4041303.115 8  -3138851.32846  23303300.051    23303307.2294
  24317390.486     4144651.276 7   3206982.78145  24317390.701    24317399.5804
  21015811.980    -3478970.377 9  -2706385.32047  21015811.486    21015817.9944
  20756193.046     -559609.269 9   -555771.71848  20756192.827    20756198.6424
  21760364.447    -4979702.886 8  -3871047.01647  21760363.864    21760370.8704
  21542174.035    -5065509.455 9  -3937265.52947  21542173.514    21542180.3504
  22682120.219    -6829028.755 8  -5091690.55146  22682119.785    22682126.1464
  23649195.861     3282867.541 8   2540971.05046  23649195.053    23649202.4084
 01  7 19 15 55  0.0010000  0  9 26 22 30 17 06 15 23 18 10
  23032633.571    -5370597.006 8  -4174056.51246  23032633.519    23032641.1794
  23296521.679    -4076928.118 8  -3166611.05546  23296520.774    23296528.0424
  24338284.963     4254451.581 8   3292541.26745  24338285.265    24338294.0014
  21009857.013    -3510263.979 9  -2730769.94247  21009856.509    21009863.0114
  20761718.745     -530571.485 9   -533144.89548  20761718.551    20761724.3674
  21748838.630    -5040271.304 9  -3918243.15847  21748838.123    21748845.1084
  21531210.023    -5123125.564 9  -3982161.16047  21531209.494    21531216.4084
  22663896.523    -6924794.457 8  -5166313.13046  22663896.131    22663902.4354
  23667936.445     3381349.086 8   2617709.84846  23667935.600    23667942.9624
 01  7 19 15 55 30.0010000  0  9 26 22 30 17 06 15 23 18 10
  23020682.914    -5433398.127 8  -4222992.37746  23020682.913    23020690.5424
  23289847.243    -4112002.419 8  -3193941.69046  23289846.395    23289853.6354
  24359187.943     4364295.837 8   3378134.03645  24359188.154    24359196.7504
  21003953.329    -3541288.240 9  -2754944.69247  21003952.816    21003959.3174
  20767329.845     -501085.172 9   -510168.57048  20767329.677    20767335.4774
  21737361.407    -5100585.874 9  -3965241.50747  21737360.728    21737367.6514
  21520330.474    -5180297.892 9  -4026711.00547  21520330.005    21520336.8384
  22645729.109    -7020264.821 8  -5240705.56946  22645728.728    22645735.0254
  23686719.255     3480053.942 8   2694622.66146  23686718.336    23686725.8064
 01  7 19 15 56  0.0010000  0  9 26 22 30 17 06 15 23 18 10
  23008816.510    -5495756.621 8  -4271583.36046  23008816.518    23008824.1024
  23283277.874    -4146525.051 8  -3220842.44646  23283276.953    23283284.2384
  24380098.572     4474181.540 8   3463759.08645  24380098.937    24380107.4804
  20998100.997    -3572042.696 9  -2778909.20647  20998100.428    20998106.9144
  20773026.382     -471149.830 9   -486842.34848  20773026.203    20773032.0014
  21725932.403    -5160645.554 9  -4012041.23747  21725931.720    21725938.6974
  21509535.722    -5237024.979 9  -4070913.90447  21509535.179    21509542.0594
  22627618.317    -7115437.344 8  -5314865.93546  22627617.996    22627624.2894
  23705544.364     3578979.819 8   2771707.69046  23705543.284    23705550.8024
 01  7 19 15 56 30.0010000  0  9 26 22 30 17 06 15 23 18 10
  22997034.849    -5557669.713 8  -4319827.29146  22997034.814    22997042.3774
  23276813.533    -4180495.561 8  -3247312.96046  23276812.568    23276820.0254
  24401016.684     4584105.503 7   3549413.93045  24401016.877    24401025.4174
  20992299.894    -3602527.632 9  -2802663.70547  20992299.363    20992305.8124
  20778808.332     -440765.557 9   -463166.31248  20778808.170    20778813.9934
  21714551.892    -5220450.303 9  -4058642.32247  21714551.249    21714558.1794
  21498825.755    -5293305.966 9  -4114769.19347  21498825.223    21498832.1114
  22609564.588    -7210310.179 8  -5388792.77546  22609564.205    22609570.5204
  23724410.856     3678123.954 8   2848962.77446  23724409.862    23724417.4344
 01  7 19 15 57  0.0010000  0  9 26 22 30 17 06 15 23 18 10
  22985338.469    -5619134.566 8  -4367721.91146  22985338.392    22985345.9914
  23270454.144    -4213912.762 8  -3273352.35046  23270453.341    23270460.9114
  24421941.714     4694065.042 7   3635096.51045  24421941.692    24421950.0644
  20986550.150    -3632743.010 9  -2826208.16347  20986549.584    20986555.9884
  20784675.723     -409932.312 9   -439140.43148  20784675.558    20784681.4154
  21703220.106    -5279999.758 9  -4105044.46747  21703219.394    21703226.3614
  21488200.905    -5349139.777 9  -4158276.02947  21488200.378    21488207.2634
  22591568.204    -7304881.244 8  -5462484.47546  22591567.923    22591574.1564
  23743318.399     3777483.613 8   2926385.82646  23743317.443    23743324.9754
 01  7 19 15 57 30.0010000  0  9 26 22 30 17 06 15 23 18 10
  22973727.613    -5680147.817 8  -4415264.63846  22973727.689    22973735.4944
  23264200.460    -4246775.078 8  -3298959.34346  23264199.760    23264207.4234
  24442872.835     4804057.843 7   3720804.98445  24442872.663    24442881.4724
  20980851.718    -3662688.612 9  -2849542.40048  20980851.199    20980857.5494
  20790628.610     -378649.733 9   -414764.42548  20790628.437    20790634.2874
  21691936.869    -5339293.363 9  -4151247.26547  21691936.185    21691943.1134
  21477661.396    -5404525.331 9  -4201433.59847  21477660.865    21477667.7004
  22573629.875    -7399148.131 8  -5535939.15746  22573629.571    22573635.7874
  23762266.601     3877056.328 8   3003974.88846  23762265.565    23762273.1174
 01  7 19 15 58  0.0010000  0  9 26 22 30 17 06 15 23 18 10
  22962203.710    -5740706.708 8  -4462453.31746  22962203.717    22962211.5394
  23258052.897    -4279081.696 8  -3324133.32746  23258052.095    23258059.7654
  24463809.359     4914080.907 7   3806537.06145  24463809.397    24463818.2874
  20975204.621    -3692364.521 9  -2872666.48648  20975204.068    20975210.4514
  20796667.095     -346917.696 9   -390038.19148  20796666.897    20796672.7304
  21680702.421    -5398330.806 9  -4197250.45347  21680701.733    21680708.6254
  21467207.430    -5459461.692 9  -4244241.14947  21467206.862    21467213.6554
  22555749.663    -7493109.052 8  -5609155.41746  22555749.430    22555755.5694
  23781254.746     3976839.473 8   3081727.91746  23781253.750    23781261.2864
 01  7 19 15 58 30.0010000  0  9 26 22 30 17 06 15 23 18 10
  22950766.802    -5800808.854 8  -4509286.07946  22950766.685    22950774.4074
  23252011.000    -4310832.882 8  -3348874.50546  23252010.148    23252017.7274
  24484751.267     5024131.088 7   3892290.26345  24484751.231    24484760.3924
  20969608.744    -3721771.187 9  -2895580.76548  20969608.172    20969614.6074
  20802790.893     -314736.635 9   -364962.06648  20802790.728    20802796.6304
  21669516.586    -5457112.445 9  -4243054.31447  21669515.897    21669522.8064
  21456838.950    -5513948.153 9  -4286698.10347  21456838.380    21456845.1904
  22537928.041    -7586762.581 8  -5682132.16846  22537927.777    22537933.8384
  23800282.134     4076829.821 8   3159642.42446  23800281.308    23800288.9674
 01  7 19 15 59  0.0010000  0  9 26 22 30 17 06 15 23 18 10
  22939417.264    -5860451.014 8  -4555760.43846  22939417.162    22939424.7564
  23246074.832    -4342027.385 8  -3373181.89146  23246074.027    23246081.5714
  24505697.813     5134205.688 7   3978062.47745  24505697.809    24505707.0054
  20964064.010    -3750908.332 9  -2918285.03648  20964063.531    20964070.0364
  20809000.314     -282106.155 9   -339535.74348  20809000.139    20809006.0994
  21658379.634    -5515637.488 9  -4288658.22547  21658378.956    21658385.8364
  21446556.360    -5567983.557 9  -4328803.59647  21446555.788    21446562.6524
  22520165.424    -7680106.196 8  -5754867.40346  22520165.044    22520171.1234
  23819348.648     4177025.501 8   3237716.90445  23819347.889    23819355.6364
 01  7 19 15 59 30.0010000  0  9 26 22 30 17 06 15 23 18 10
  22928155.578    -5919630.420 8  -4601874.16146  22928155.559    22928163.3274
  23240245.059    -4372664.029 8  -3397054.59546  23240244.184    23240251.6014
  24526648.268     5244301.927 8   4063851.54745  24526648.504    24526657.6894
  20958570.645    -3779776.103 9  -2940779.40148  20958570.194    20958576.6794
  20815295.154     -249026.294 9   -313759.25948  20815295.021    20815301.0194
  21647291.485    -5573905.813 9  -4334062.09347  21647290.843    21647297.7264
  21436359.687    -5621567.018 9  -4370556.91147  21436359.147    21436365.9994
  22502462.053    -7773138.178 8  -5827359.82746  22502461.620    22502467.6974
  23838453.840     4277423.298 8   3315948.89645  23838453.022    23838460.7264
 01  7 19 16  0  0.0010000  0  9 26 22 30 17 06 15 23 18 10
  22916982.673    -5978344.374 8  -4647625.24346  22916982.753    22916990.2864
  23234521.395    -4402741.914 8  -3420491.91046  23234520.496    23234527.9844
  24547602.782     5354417.038 8   4149655.36545  24547602.898    24547612.1064
  20953128.539    -3808374.605 9  -2963063.94748  20953128.071    20953134.5154
  20821675.574     -215497.067 9   -287632.62248  20821675.434    20821681.4724
  21636252.224    -5631917.216 9  -4379265.76047  21636251.635    21636258.5684
  21426249.237    -5674697.659 9  -4411957.37747  21426248.707    21426255.4884
  22484818.383    -7865856.330 8  -5899607.69147  22484817.904    22484824.0104
  23857597.098     4378020.428 8   3394336.21245  23857596.160    23857603.8124
 01  7 19 16  0 30.0010000  0  9 26 22 30 17 06 15 23 18 10
  22905898.926    -6036589.838 8  -4693011.26246  22905898.976    22905906.4314
  23228904.443    -4432260.535 8  -3443493.43946  23228903.415    23228910.8204
  24568560.201     5464548.389 7   4235471.79445  24568560.339    24568569.7964
  20947737.613    -3836703.878 9  -2985138.70348  20947737.183    20947743.6384
  20828141.542     -181518.405 9   -261155.75348  20828141.398    20828147.4654
  21625261.916    -5689671.247 9  -4424268.88747  21625261.313    21625268.3894
  21416225.124    -5727374.499 9  -4453004.22647  21416224.597    21416231.3664
  22467234.784    -7958258.796 8  -5971609.58347  22467234.317    22467240.3894
  23876777.824     4478814.371 8   3472876.88045  23876776.781    23876784.2824
 01  7 19 16  1  0.0010000  0  9 26 22 30 17 06 15 23 18 10
  22894904.779    -6094363.891 8  -4738029.93446  22894904.897    22894912.3434
  23223393.674    -4461219.317 8  -3466058.69546  23223392.640    23223400.1544
  24589520.271     5574693.515 8   4321298.94045  24589520.489    24589529.9634
  20942398.070    -3864763.586 9  -3007003.41348  20942397.580    20942404.0904
  20834693.072     -147090.046 9   -234328.48648  20834692.932    20834698.9944
  21614320.718    -5747167.349 9  -4469071.02347  21614320.158    21614327.2154
  21406287.573    -5779596.304 9  -4493696.51847  21406287.086    21406293.8894
  22449711.513    -8050343.533 8  -6043363.89047  22449711.078    22449717.1534
  23895995.365     4579802.988 8   3551569.25845  23895994.308    23896001.7544
 01  7 19 16  1 30.0010000  0  9 26 22 30 17 06 15 23 18 10
  22884000.871    -6151663.396 8  -4782678.81746  22884000.956    22884008.6634
  23217989.779    -4489616.929 8  -3488186.69846  23217988.871    23217996.2454
  24610482.701     5684849.577 8   4407134.59945  24610482.817    24610492.1794
  20937109.784    -3892553.517 9  -3028657.89648  20937109.341    20937115.8464
  20841330.207     -112211.795 9   -207150.64548  20841330.097    20841336.1144
  21603428.773    -5804405.022 9  -4513671.79747  21603428.218    21603435.2054
  21396436.833    -5831361.954 9  -4534033.37247  21396436.385    21396443.1824
  22432249.255    -8142107.902 8  -6114868.55147  22432248.808    22432254.9654
  23915249.617     4680983.926 8   3630411.49545  23915248.428    23915255.8384
 01  7 19 16  2  0.0010000  0  9 26 22 30 17 06 15 23 18 10
  22873187.791    -6208486.012 8  -4826956.12646  22873187.941    22873195.6314
  23212692.885    -4517452.648 8  -3509876.87546  23212691.948    23212699.2534
  24631446.540     5795013.830 8   4492976.69545  24631446.683    24631455.8854
  20931872.860    -3920073.988 9  -3050102.41348  20931872.416    20931878.8934
  20848052.911      -76884.039 9   -179622.54848  20848052.773    20848058.8104
  21592585.879    -5861384.537 9  -4558071.40547  21592585.314    21592592.3184
  21386673.122    -5882670.959 9  -4574014.40347  21386672.615    21386679.4004
  22414848.209    -8233550.610 8  -6186122.55547  22414847.794    22414854.0034
  23934539.746     4782354.130 8   3709401.20045  23934538.614    23934545.9854
 01  7 19 16  2 30.0010000  0  9 26 22 30 17 06 15 23 18 10
  22862466.339    -6264828.280 8  -4870859.13146  22862466.424    22862473.8984
  23207502.938    -4544725.116 8  -3531128.16146  23207502.151    23207509.4494
  24652411.408     5905183.885 8   4578823.30045  24652411.591    24652420.8014
  20926687.273    -3947324.604 9  -3071336.65048  20926686.786    20926693.2844
  20854861.272      -41106.151 9   -151743.70448  20854861.120    20854867.1814
  21581792.358    -5918104.757 9  -4602268.96347  21581791.836    21581798.8064
  21376996.529    -5933521.833 9  -4613638.45247  21376996.024    21377002.8104
  22397508.897    -8324668.861 8  -6257123.76447  22397508.597    22397514.6944
  23953865.291     4883911.616 8   3788536.82745  23953864.344    23953871.7564
 01  7 19 16  3  0.0010000  0  9 26 22 30 17 06 15 23 18 10
  22851836.507    -6320688.338 8  -4914386.41946  22851836.612    22851844.0254
  23202420.375    -4571435.132 8  -3551941.16246  23202419.360    23202426.8024
  24673376.645     6015356.417 8   4664671.79745  24673376.867    24673386.2284
  20921552.817    -3974306.008 9  -3092361.12048  20921552.381    20921558.8894
  20861755.123       -4879.185 9   -123514.92748  20861754.917    20861760.9364
  21571048.207    -5974566.218 9  -4646264.89147  21571047.634    21571054.5024
  21367407.012    -5983914.756 9  -4652905.63847  21367406.562    21367413.3424
  22380231.732    -8415461.602 8  -6327871.32147  22380231.318    22380237.3174
  23973226.194     4985652.893 8   3867815.69745  23973225.271    23973232.5914
 01  7 19 16  3 30.0010000  0  9 26 22 30 17 06 15 23 18 10
  22841299.011    -6376063.150 8  -4957535.57046  22841299.138    22841306.5184
  23197444.781    -4597582.014 8  -3572315.35646  23197443.823    23197451.2504
  24694341.889     6125528.963 7   4750520.29145  24694342.122    24694351.5814
  20916469.661    -4001018.172 9  -3113175.78648  20916469.220    20916475.7034
  20868734.471       31797.210 9    -94935.95848  20868734.246    20868740.2454
  21560353.292    -6030768.515 9  -4690058.87247  21560352.668    21560359.5344
  21357904.908    -6033848.588 9  -4691815.09447  21357904.450    21357911.2664
  22363016.764    -8505926.941 8  -6398363.74647  22363016.306    22363022.3624
  23992621.734     5087575.875 8   3947236.15245  23992620.654    23992627.9484
 01  7 19 16  4  0.0010000  0  9 26 22 30 17 06 15 23 18 10
  22830854.293    -6430949.571 8  -5000304.14746  22830854.459    22830861.8654
  23192576.590    -4623164.178 8  -3592249.51246  23192575.634    23192583.0814
  24715306.898     6235699.013 8   4836366.84345  24715306.959    24715316.2834
  20911437.861    -4027460.729 9  -3133780.37648  20911437.413    20911443.8924
  20875799.301       68923.315 9    -66006.56148  20875799.105    20875805.1444
  21549707.746    -6086710.930 9  -4733650.34447  21549707.168    21549714.1424
  21348490.447    -6083322.126 9  -4730365.89547  21348489.978    21348496.7294
  22345864.579    -8596062.443 8  -6468599.16647  22345864.110    22345870.1194
  24012050.901     5189677.629 8   4026795.88345  24012049.974    24012057.4644
 01  7 19 16  4 30.0010000  0  9 26 22 30 17 06 15 23 18 10
  22820503.161    -6485344.720 8  -5042689.91446  22820503.394    22820510.8114
  23187816.183    -4648180.374 8  -3611742.65646  23187815.289    23187822.7274
  24736270.859     6345864.105 7   4922209.58845  24736270.946    24736280.1244
  20906457.421    -4053633.302 9  -3154174.58748  20906456.951    20906463.4074
  20882949.828      106499.303 9    -36726.58848  20882949.615    20882955.6364
  21539111.818    -6142392.721 9  -4777038.73547  21539111.284    21539118.2674
  21339163.715    -6132334.223 9  -4768557.12847  21339163.275    21339170.0394
  22328775.436    -8685865.782 8  -6538575.74747  22328775.041    22328781.1434
  24031513.879     5291956.274 8   4106493.45545  24031513.050    24031520.6324
 01  7 19 16  5  0.0010000  0  9 26 22 30 17 06 15 23 18 10
  22810245.970    -6539246.459 8  -5084691.21946  22810246.185    22810253.5904
  23183163.593    -4672631.159 8  -3630795.22946  23183162.541    23183169.8144
  24757232.977     6456020.963 7   5008045.89345  24757233.354    24757242.3984
  20901528.227    -4079536.530 9  -3174358.91648  20901527.734    20901534.1674
  20890185.775      144524.502 9     -7096.59948  20890185.595    20890191.5974
  21528565.485    -6197814.315 9  -4820224.37447  21528564.905    21528571.9084
  21329924.915    -6180884.794 9  -4806388.73047  21329924.411    21329931.1844
  22311749.851    -8775335.643 8  -6608292.49347  22311749.468    22311755.5174
  24051009.841     5394408.607 8   4186326.36045  24051009.032    24051016.8904
 01  7 19 16  5 30.0010000  0  9 26 22 30 17 06 15 23 18 10
  22800083.248    -6592651.844 8  -5126305.74046  22800083.381    22800090.7944
  23178618.303    -4696516.016 8  -3649406.83346  23178617.297    23178624.6734
  24778193.161     6566167.254 7   5093873.92345  24778193.503    24778202.7394
  20896650.282    -4105170.178 9  -3194333.18648  20896649.820    20896656.2544
  20897507.269      182999.049 9     22883.53948  20897507.097    20897513.1204
  21518068.575    -6252975.243 9  -4863206.89147  21518068.021    21518075.0634
  21320774.081    -6228972.878 9  -4843859.94847  21320773.566    21320780.3394
  22294788.097    -8864469.968 8  -6677747.77447  22294787.710    22294793.7944
  24070538.536     5497032.405 8   4266292.87745  24070537.654    24070545.7054
 01  7 19 16  6  0.0010000  0  9 26 22 30 17 06 15 23 18 10
  22790015.459    -6645557.873 8  -5167531.17446  22790015.640    22790023.1844
  23174181.008    -4719833.933 8  -3667576.65746  23174180.129    23174187.5114
  24799151.213     6676300.563 7   5179691.88045  24799151.535    24799160.4804
  20891823.701    -4130533.868 9  -3214097.10048  20891823.252    20891829.7384
  20904914.323      221923.149 9     53213.98048  20904914.149    20904920.1064
  21507621.524    -6307874.620 9  -4905985.61847  21507620.984    21507628.0524
  21311711.400    -6276597.434 9  -4880969.98147  21311710.890    21311717.6254
  22277890.601    -8953266.508 8  -6746939.84747  22277890.247    22277896.4544
  24090099.226     5599825.329 8   4346391.22045  24090098.471    24090106.5354
 01  7 19 16  6 30.0010000  0  9 26 22 30 17 06 15 23 18 10
  22780043.275    -6697962.220 8  -5208365.67146  22780043.444    22780050.9204
  23169851.742    -4742584.122 8  -3685304.10346  23169850.876    23169858.3054
  24820105.829     6786417.962 7   5265497.40645  24820106.058    24820115.3294
  20887048.470    -4155627.953 9  -3233650.92748  20887048.008    20887054.5054
  20912406.898      261296.335 9     83894.35148  20912406.682    20912412.6424
  21497224.281    -6362512.429 9  -4948560.51347  21497223.772    21497230.7984
  21302737.070    -6323757.827 9  -4917718.33047  21302736.572    21302743.2744
  22261057.708    -9041723.593 8  -6815867.40347  22261057.351    22261063.6344
  24109691.670     5702784.601 8   4426619.15245  24109690.899    24109699.2234
 01  7 19 16  7  0.0010000  0  9 26 22 30 17 06 15 23 18 10
  22770166.883    -6749862.589 8  -5248807.46846  22770167.031    22770174.5034
  23165630.542    -4764766.471 8  -3702589.07546  23165629.678    23165637.0914
  24841057.022     6896516.404 7   5351288.19145  24841057.104    24841066.7684
  20882324.454    -4180452.692 9  -3252994.88548  20882323.968    20882330.5534
  20919984.801      301118.209 9    114924.35248  20919984.566    20919990.5054
  21486876.915    -6416888.946 9  -4990931.81547  21486876.335    21486883.2894
  21293851.150    -6370453.762 9  -4954104.74947  21293850.644    21293857.3694
  22244289.731    -9129839.527 9  -6884529.14647  22244289.419    22244295.6814
  24129315.190     5805907.552 8   4506974.63445  24129314.513    24129323.0054
 01  7 19 16  7 30.0010000  0  9 26 22 30 17 06 15 23 18 10
  22760386.948    -6801256.276 8  -5288854.42146  22760387.052    22760394.5854
  23161517.440    -4786380.803 8  -3719431.40546  23161516.556    23161524.0554
  24862004.041     7006593.292 7   5437062.15045  24862004.272    24862014.2134
  20877651.671    -4205008.039 9  -3272128.91848  20877651.263    20877657.8234
  20927647.967      341388.642 9    146303.89048  20927647.791    20927653.7404
  21476579.339    -6471003.667 9  -5033099.11147  21476578.704    21476585.5624
  21285053.672    -6416684.425 9  -4990128.62647  21285053.204    21285059.9624
  22227587.077    -9217612.541 9  -6952923.65747  22227586.742    22227592.9614
  24148969.872     5909191.490 8   4587455.55045  24148968.957    24148977.4124
 01  7 19 16  8  0.0010000  0  9 26 22 30 17 06 15 23 18 10
  22750704.023    -6852140.505 8  -5328504.42246  22750704.095    22750711.5774
  23157512.394    -4807427.045 8  -3735831.11046  23157511.618    23157518.9744
  24882946.552     7116646.105 7   5522817.36045  24882946.894    24882956.9854
  20873030.225    -4229294.079 9  -3291053.10748  20873029.772    20873036.3084
  20935396.492      382107.549 9    178032.86748  20935396.327    20935402.3504
  21466331.534    -6524856.319 9  -5075062.20747  21466330.908    21466337.7244
  21276344.908    -6462449.142 9  -5025789.42547  21276344.453    21276351.2434
  22210950.099    -9305040.763 9  -7021049.51947  22210949.789    22210955.8604
  24168654.295     6012634.041 8   4668060.04945  24168653.389    24168661.8634
 01  7 19 16  8 30.0010000  0  9 26 22 30 17 06 15 23 18 10
  22741118.327    -6902512.750 8  -5367755.47146  22741118.501    22741126.0444
  23153615.778    -4827903.892 8  -3751787.12246  23153615.006    23153622.3414
  24903884.005     7226672.204 7   5608551.78945  24903884.329    24903894.6414
  20868460.092    -4253310.548 9  -3309767.23248  20868459.596    20868466.1264
  20943230.392      423274.924 9    210111.31148  20943230.223    20943236.2964
  21456133.601    -6578446.397 9  -5116820.69147  21456133.008    21456139.8404
  21267724.930    -6507747.084 9  -5061086.51047  21267724.501    21267731.2904
  22194379.154    -9392122.081 9  -7088905.04147  22194378.791    22194384.8504
  24188368.510     6116232.959 8   4748786.42345  24188367.591    24188375.8574
 01  7 19 16  9  0.0010000  0  9 26 22 30 17 06 15 23 18 10
  22731630.939    -6952370.457 8  -5406605.57246  22731630.950    22731638.3364
  23149827.500    -4847810.975 8  -3767299.13846  23149826.778    23149834.2174
  24924815.845     7336668.823 7   5694263.23145  24924816.099    24924826.7304
  20863941.078    -4277057.590 9  -3328271.42348  20863940.654    20863947.2174
  20951149.537      464890.300 9    242538.83348  20951149.391    20951155.4544
  21445985.720    -6631773.567 9  -5158374.31747  21445985.124    21445991.9774
  21259193.970    -6552577.867 9  -5096019.56947  21259193.546    21259200.2804
  22177874.446    -9478854.680 9  -7156488.84447  22177874.107    22177880.1164
  24208112.130     6219985.516 8   4829632.49845  24208111.203    24208119.3384
 01  7 19 16  9 30.0010000  0  9 26 22 30 17 06 15 23 18 10
  22722241.684    -7001711.014 8  -5445052.71946  22722241.670    22722249.0844
  23146147.852    -4867148.041 8  -3782366.98046  23146147.096    23146154.4894
  24945741.251     7446633.516 7   5779949.80945  24945741.942    24945752.3274
  20859473.494    -4300535.217 9  -3346565.67548  20859473.047    20859479.5934
  20959154.008      506953.404 9    275315.24748  20959153.780    20959159.8344
  21435887.938    -6684837.659 9  -5199722.95147  21435887.364    21435894.1904
  21250752.071    -6596940.697 9  -5130587.99447  21250751.601    21250758.3284
  22161436.444    -9565236.836 9  -7223799.57247  22161436.147    22161442.1154
  24227884.525     6323889.175 8   4910596.31445  24227883.565    24227891.5784
 01  7 19 16 10  0.0010000  0  9 26 22 30 17 06 15 23 18 10
  22712951.347    -7050531.981 8  -5483094.99346  22712951.371    22712958.7744
  23142576.649    -4885915.128 8  -3796990.70946  23142575.958    23142583.2484
  24966660.440     7556563.638 7   5865609.42945  24966661.280    24966671.3404
  20855057.116    -4323743.192 9  -3364649.81948  20855056.735    20855063.2144
  20967243.546      549464.426 9    308440.69348  20967243.339    20967249.4594
  21425840.344    -6737638.329 9  -5240866.32147  21425839.740    21425846.5194
  21242399.254    -6640834.873 9  -5164791.23647  21242398.803    21242405.5524
  22145065.526    -9651266.443 9  -7290835.59547  22145065.210    22145071.1184
  24247685.255     6427941.613 8   4991676.08445  24247684.278    24247692.1234
 01  7 19 16 10 30.0010000  0  9 26 22 30 17 06 15 23 18 10
  22703760.341    -7098831.194 8  -5520730.70846  22703760.354    22703767.7014
  23139113.972    -4904112.185 8  -3811170.23546  23139113.276    23139120.5814
  24987572.717     7666455.963 7   5951239.67245  24987573.284    24987583.1564
  20850692.063    -4346682.100 9  -3382524.29148  20850691.646    20850698.0564
  20975418.207      592422.562 9    341914.53248  20975418.030    20975424.1404
  21415842.897    -6790175.488 9  -5281804.35047  21415842.291    21415849.0534
  21234135.648    -6684260.181 9  -5198629.13247  21234135.224    21234141.9584
  22128761.947    -9736942.310 9  -7357595.95647  22128761.567    22128767.5204
  24267513.476     6532139.991 8   5072869.56545  24267512.660    24267520.5014
 01  7 19 16 11  0.0010000  0  9 26 22 30 17 06 15 23 18 10
  22694669.089    -7146605.577 8  -5557957.44946  22694669.177    22694676.4804
  23135759.906    -4921737.906 8  -3824904.57546  23135759.238    23135766.4164
  25008477.317     7776308.825 7   6036839.09545  25008477.731    25008487.7794
  20846378.272    -4369351.361 9  -3400188.65248  20846377.833    20846384.1724
  20983678.084      635828.219 9    375737.08448  20983677.912    20983683.9784
  21405895.739    -6842448.417 9  -5322536.49547  21405895.097    21405901.8694
  21225961.537    -6727215.528 9  -5232100.81647  21225961.093    21225967.8254
  22112526.132    -9822261.956 9  -7424078.76947  22112525.807    22112531.6264
  24287369.383     6636482.230 8   5154175.14045  24287368.464    24287376.2994
 01  7 19 16 11 30.0010000  0  9 26 22 30 17 06 15 23 18 10
  22685678.290    -7193852.776 8  -5594773.40346  22685678.252    22685685.5474
  23132514.571    -4938792.120 8  -3838193.58946  23132513.854    23132521.0724
  25029373.835     7886119.274 8   6122405.46345  25029374.064    25029384.2644
  20842115.780    -4391751.000 9  -3417642.91948  20842115.334    20842121.6954
  20992023.061      679680.990 9    409908.03748  20992022.845    20992028.9214
  21395998.831    -6894456.895 9  -5363062.56647  21395998.179    21396004.9834
  21217876.928    -6769700.418 9  -5265205.91647  21217876.480    21217883.2254
  22096358.402    -9907223.702 9  -7490282.68647  22096358.020    22096363.8294
  24307251.818     6740966.000 8   5235591.00245  24307251.001    24307258.7754
 01  7 19 16 12  0.0010000  0  9 26 22 30 17 06 15 23 18 10
  22676788.333    -7240570.159 8  -5631176.52446  22676788.226    22676795.5344
  23129378.065    -4955274.633 8  -3851037.11846  23129377.336    23129384.6394
  25050261.540     7995884.940 7   6207936.98545  25050261.755    25050272.3204
  20837904.573    -4413880.805 9  -3434886.92248  20837904.129    20837910.5564
  21000452.969      723980.652 9    444427.22148  21000452.809    21000458.9304
  21386152.205    -6946200.527 9  -5403382.26847  21386151.626    21386158.5274
  21209881.968    -6811713.951 9  -5297943.72047  21209881.505    21209888.3274
  22080259.094    -9991825.609 9  -7556206.20647  22080258.765    22080264.6054
  24327160.837     6845588.780 8   5317115.20945  24327160.147    24327167.7194
 01  7 19 16 12 30.0010000  0 10 26 22 21 30 17 06 15 23 18 10
  22667998.924    -7286758.058 8  -5667167.08146  22667999.031    22668006.2224
  23126349.772    -4971188.195 8  -3863437.31246  23126349.101    23126356.3824
  25213960.580    -2048679.316 8  -1583391.63745  25213960.449    25213971.0494
  25071139.563     8105600.501 7   6293429.40145  25071139.871    25071150.8464
  20833744.341    -4435743.319 9  -3451922.65248  20833743.859    20833750.3214
  21008967.471      768724.311 9    479292.37748  21008967.294    21008973.4274
  21376355.674    -6997681.583 9  -5443497.36647  21376355.038    21376362.0194
  21201976.305    -6853258.343 9  -5330315.95447  21201975.838    21201982.7034
  22064228.016   -10076068.497 9  -7621849.97747  22064227.793    22064233.6934
  24347095.588     6950345.492 8   5398743.77445  24347094.619    24347102.2914
 01  7 19 16 13  0.0010000  0 10 26 22 21 30 17 06 15 23 18 10
  22659311.292    -7332411.952 8  -5702741.49646  22659311.345    22659318.5654
  23123430.266    -4986530.236 8  -3875392.15546  23123429.563    23123436.9674
  25194976.260    -2148441.754 7  -1661128.53645  25194976.102    25194986.7734
  25092008.075     8215265.465 7   6378882.41745  25092008.444    25092019.6154
  20829635.206    -4457336.764 9  -3468748.71548  20829634.754    20829641.2034
  21017566.735      813913.481 9    514504.67348  21017566.551    21017572.6824
  21366609.442    -7048897.877 9  -5483406.16147  21366608.864    21366615.8224
  21194160.403    -6894331.231 9  -5362320.78847  21194159.938    21194166.7844
  22048266.099   -10159948.679 9  -7687211.11547  22048265.873    22048271.7984
  24367055.175     7055235.673 7   5480476.28145  24367054.310    24367062.3084
 01  7 19 16 13 30.0010000  0 10 26 22 21 30 17 06 15 23 18 10
  22650726.062    -7377527.306 8  -5737896.28746  22650726.119    22650733.3624
  23120620.104    -5001297.988 8  -3886899.51046  23120619.408    23120626.6464
  25176011.123    -2248102.765 7  -1738786.40045  25176010.940    25176021.8434
  25112867.187     8324879.429 7   6464295.70545  25112867.343    25112878.5884
  20825577.811    -4478658.787 9  -3485363.27248  20825577.333    20825583.7404
  21026251.129      859550.267 9    550065.77348  21026250.969    21026257.1064
  21356914.254    -7099846.721 9  -5523106.54047  21356913.636    21356920.6214
  21186434.739    -6934930.011 9  -5393956.18147  21186434.267    21186441.0274
  22032374.109   -10243462.044 9  -7752286.43247  22032373.855    22032379.7484
  24387040.479     7160259.158 7   5562312.69045  24387039.623    24387047.7814
 01  7 19 16 14  0.0010000  0  9 26 22 21 17 06 15 23 18 10
  22642243.887    -7422100.982 8  -5772628.98646  22642243.981    22642251.2704
  23117919.410    -5015490.639 8  -3897958.74646  23117918.767    23117925.8324
  25157065.794    -2347660.154 7  -1816363.55645  25157065.796    25157076.7784
  20821572.063    -4499708.517 9  -3501765.66348  20821571.646    20821578.1434
  21035020.823      905635.108 9    585975.99648  21035020.618    21035026.7984
  21347270.178    -7150526.976 9  -5562597.63447  21347269.573    21347276.4854
  21178799.534    -6975053.231 9  -5425221.02247  21178799.082    21178805.7764
  22016552.456   -10326606.115 9  -7817073.98347  22016552.098    22016558.0074
  24407050.987     7265414.420 7   5644251.77445  24407050.020    24407058.2704
 01  7 19 16 14 30.0010000  0  9 26 22 21 17 06 15 23 18 10
  22633864.765    -7466133.246 8  -5806939.80446  22633864.851    22633872.1854
  23115327.513    -5029111.242 8  -3908572.20946  23115326.833    23115334.1004
  25138140.105    -2447115.076 7  -1893860.83745  25138139.769    25138150.9964
  20817617.689    -4520488.760 9  -3517958.05348  20817617.283    20817623.8474
  21043875.128      952164.858 9    622232.89748  21043874.978    21043881.1524
  21337676.852    -7200941.054 9  -5601881.31247  21337676.114    21337683.0114
  21171254.402    -7014703.229 9  -5456117.10047  21171253.946    21171260.5854
  22000800.617   -10409381.884 9  -7881574.53547  22000800.303    22000806.3154
  24427085.393     7370696.313 7   5726289.54245  24427084.641    24427092.7774
 01  7 19 16 15  0.0010000  0  9 26 22 21 17 06 15 23 18 10
  22625589.185    -7509621.819 8  -5840826.98546  22625589.251    22625596.5484
  23112844.516    -5042159.711 8  -3918739.86546  23112843.771    23112851.1134
  25119234.230    -2546466.192 7  -1971277.24245  25119234.006    25119245.0514
  20813714.606    -4540999.458 9  -3533940.41348  20813714.225    20813720.7954
  21052814.109      999139.131 9    658836.18748  21052813.930    21052820.1074
  21328134.029    -7251088.435 9  -5640957.17947  21328133.321    21328140.2194
  21163799.477    -7053879.472 9  -5486644.03047  21163798.997    21163805.6024
  21985119.303   -10491787.461 9  -7945786.63347  21985119.009    21985125.0384
  24447143.579     7476102.243 7   5808423.97845  24447142.914    24447150.8474
 01  7 19 16 15 30.0010000  0  9 26 22 21 17 06 15 23 18 10
  22617417.317    -7552564.707 8  -5874288.94746  22617417.468    22617424.7444
  23110470.560    -5054635.559 8  -3928461.31946  23110469.685    23110477.0724
  25100348.398    -2645711.652 7  -2048611.33745  25100348.310    25100359.3724
  20809862.784    -4561240.865 9  -3549712.93948  20809862.412    20809869.0144
  21061837.541     1046557.287 9    695785.36548  21061837.343    21061843.4924
  21318641.938    -7300969.388 9  -5679825.43847  21318641.322    21318648.1764
  21156434.650    -7092581.776 9  -5516801.65447  21156434.195    21156440.7944
  21969508.702   -10573821.516 9  -8009709.24047  21969508.406    21969514.4954
  24467225.286     7581629.599 8   5890653.07645  24467224.453    24467231.9744
 01  7 19 16 16  0.0010000  0  9 26 22 21 17 06 15 23 18 10
  22609349.860    -7594959.273 8  -5907323.65346  22609350.013    22609357.3314
  23108205.541    -5066538.454 8  -3937736.32146  23108204.683    23108212.1334
  25081483.130    -2744849.714 7  -2125861.72945  25081482.711    25081494.0704
  20806062.324    -4581212.700 9  -3565275.40748  20806061.933    20806068.4594
  21070945.408     1094419.354 9    733080.44147  21070945.198    21070951.3954
  21309200.713    -7350583.560 9  -5718485.81947  21309200.068    21309206.8504
  21149160.209    -7130809.441 9  -5546589.42747  21149159.741    21149166.2974
  21953969.216   -10655481.963 9  -8073340.72647  21953968.904    21953974.9534
  24487329.350     7687276.385 7   5972975.17145  24487328.376    24487336.0974
 01  7 19 16 16 30.0010000  0  9 26 22 21 17 06 15 23 18 10
  22601387.200    -7636803.029 8  -5939929.15546  22601387.425    22601394.7094
  23106049.670    -5077868.190 8  -3946564.71246  23106048.666    23106056.0624
  25062638.435    -2843878.431 7  -2203026.88245  25062638.067    25062649.5864
  20802313.275    -4600914.451 9  -3580627.41348  20802312.848    20802319.3514
  21080137.691     1142725.303 9    770721.40547  21080137.495    21080143.7794
  21299810.424    -7399930.161 9  -5756937.69647  21299809.778    21299816.5104
  21141976.199    -7168561.719 9  -5576006.76947  21141975.705    21141982.2844
  21938501.221   -10736766.754 9  -8136679.50047  21938500.932    21938506.9354
  24507455.407     7793040.804 7   6055388.90245  24507454.582    24507462.5594
 01  7 19 16 17  0.0010000  0  9 26 22 21 17 06 15 23 18 10
  22593529.916    -7678093.066 8  -5972103.18546  22593530.145    22593537.4784
  23104002.406    -5088624.907 8  -3954946.59846  23104001.642    23104009.1664
  25043814.720    -2942796.184 7  -2280105.59545  25043814.549    25043826.3044
  20798615.624    -4620345.770 9  -3595768.69548  20798615.188    20798621.6804
  21089414.387     1191475.013 9    808708.15847  21089414.252    21089420.5424
  21290471.114    -7449008.535 9  -5795180.57147  21290470.464    21290477.1924
  21134882.769    -7205837.815 9  -5605053.06447  21134882.285    21134888.8394
  21923104.991   -10817673.811 9  -8199723.90847  21923104.771    21923110.7544
  24527603.574     7898920.438 7   6137892.43445  24527602.874    24527610.8484
 01  7 19 16 17 30.0010000  0  9 26 22 21 17 06 15 23 18 10
  22585778.173    -7718828.070 8  -6003844.72946  22585778.521    22585785.8164
  23102064.601    -5098808.657 8  -3962882.00446  23102063.744    23102071.3934
  25025012.741    -3041601.402 7  -2357096.61845  25025012.345    25025024.5064
  20794969.354    -4639507.199 9  -3610699.67848  20794968.913    20794975.3984
  21098775.468     1240667.446 9    847039.88647  21098775.322    21098781.6154
  21281182.773    -7497818.629 9  -5833214.39847  21281182.184    21281188.9304
  21127879.904    -7242637.887 9  -5633728.42447  21127879.433    21127885.9884
  21907781.004   -10898201.884 9  -8262473.00547  21907780.779    21907786.7974
  24547773.045     8004912.616 7   6220483.67845  24547772.540    24547780.4724
 01  7 19 16 18  0.0010000  0  9 26 22 21 17 06 15 23 18 10
  22578132.708    -7759005.796 8  -6035152.03146  22578132.984    22578140.1324
  23100235.724    -5108419.368 8  -3970370.89046  23100234.900    23100242.5174
  25006232.135    -3140293.195 7  -2433999.25845  25006231.786    25006243.8994
  20791374.376    -4658399.087 9  -3625420.62948  20791373.941    20791380.3804
  21108220.591     1290301.839 9    885715.99347  21108220.463    21108226.7314
  21271945.555    -7546360.301 9  -5871039.06047  21271944.989    21271951.7074
  21120967.602    -7278962.007 9  -5662032.91447  21120967.159    21120973.7474
  21892529.385   -10978349.702 9  -8324925.79447  21892529.147    21892535.2124
  24567963.693     8111014.945 7   6303160.73145  24567963.193    24567971.3924
 01  7 19 16 18 30.0010000  0  9 26 22 21 17 06 15 23 18 10
  22570593.450    -7798624.626 8  -6066023.82346  22570593.783    22570600.8744
  23098515.910    -5117457.569 8  -3977413.64146  23098515.071    23098522.6464
  24987473.555    -3238870.566 7  -2510812.75245  24987473.173    24987485.1394
  20787830.637    -4677021.563 9  -3639931.65048  20787830.175    20787836.5994
  21117749.688     1340377.242 9    924735.75047  21117749.556    21117755.8264
  21262759.451    -7594633.865 9  -5908654.81047  21262758.859    21262765.5834
  21114145.884    -7314810.220 9  -5689966.57647  21114145.401    21114152.0364
  21877350.333   -11058116.020 9  -8387081.33847  21877350.156    21877356.1634
  24588174.828     8217224.536 8   6385921.38245  24588174.211    24588182.5334
 01  7 19 16 19  0.0010000  0  9 26 22 21 17 06 15 23 18 10
  22563161.143    -7837682.211 8  -6096458.27046  22563161.278    22563168.3654
  23096904.790    -5125923.622 8  -3984010.59346  23096904.026    23096911.5674
  24968737.170    -3337331.503 7  -2587535.46945  24968736.574    24968748.5404
  20784338.174    -4695374.515 9  -3654232.64948  20784337.732    20784344.1714
  21127362.696     1390893.400 9    964098.95347  21127362.501    21127368.7494
  21253624.392    -7642638.913 9  -5946061.32347  21253623.773    21253630.5304
  21107414.807    -7350181.929 9  -5717528.93247  21107414.361    21107421.0344
  21862244.313   -11137498.728 9  -8448937.95247  21862244.113    21862250.0494
  24608406.195     8323539.078 8   6468763.81345  24608405.415    24608413.6594
 01  7 19 16 19 30.0010000  0  9 26 22 21 17 06 15 23 18 10
  22555835.921    -7876176.422 8  -6126453.74046  22555836.069    22555843.1114
  23095402.558    -5133817.768 8  -3990161.90046  23095401.886    23095409.2694
  24950023.102    -3435674.345 7  -2664166.19845  24950022.648    24950034.3564
  20780897.019    -4713457.993 9  -3668323.66948  20780896.555    20780902.9584
  21137059.364     1441849.958 9   1003805.32647  21137059.208    21137065.4944
  21244540.425    -7690375.013 9  -5983258.26647  21244539.831    21244546.6894
  21100774.548    -7385076.877 9  -5744719.78347  21100774.088    21100780.7304
  21847211.631   -11216496.473 9  -8510494.59147  21847211.350    21847217.2204
  24628656.889     8429956.223 8   6551686.18445  24628656.126    24628664.3994
 01  7 19 16 20  0.0010000  0  9 26 22 21 17 06 15 23 18 10
  22548618.560    -7914104.457 8  -6156008.03646  22548618.567    22548625.6344
  23094009.142    -5141138.846 8  -3995866.64846  23094008.621    23094016.1354
  24931331.811    -3533896.803 7  -2740703.11045  24931331.489    24931343.1664
  20777507.228    -4731271.224 9  -3682204.11548  20777506.801    20777513.2034
  21146839.913     1493247.106 9   1043855.02447  21146839.737    21146846.0834
  21235507.879    -7737840.997 9  -6020244.73547  21235507.314    21235514.2454
  21094225.122    -7419494.152 9  -5771538.42047  21094224.622    21094231.3494
  21832252.546   -11295107.038 9  -8571749.52847  21832252.217    21832258.0724
  24648926.770     8536474.109 8   6634687.08145  24648925.984    24648934.1984
 01  7 19 16 20 30.0010000  0  9 26 22 21 17 06 15 23 18 10
  22541509.182    -7951464.276 8  -6185119.56046  22541509.258    22541516.3044
  23092725.098    -5147886.805 8  -4001124.81746  23092724.639    23092732.0904
  24912663.627    -3631998.011 7  -2817145.53745  24912663.461    24912674.7734
  20774168.903    -4748814.086 9  -3695873.88048  20774168.482    20774174.8924
  21156704.218     1545084.241 9   1084247.56747  21156704.079    21156710.3604
  21226526.825    -7785036.491 9  -6057020.42547  21226526.282    21226533.2074
  21087766.639    -7453433.417 9  -5797984.58347  21087766.163    21087772.8864
  21817367.387   -11373328.455 9  -8632701.24947  21817367.101    21817372.8854
  24669215.332     8643090.832 8   6717764.96045  24669214.438    24669222.8094
 01  7 19 16 21  0.0010000  0  9 26 22 21 17 06 15 23 18 10
  22534508.012    -7988254.649 8  -6213787.37246  22534508.125    22534515.3654
  23091549.999    -5154063.044 8  -4005937.49946  23091549.453    23091556.8194
  24894019.081    -3729976.857 7  -2893492.63845  24894018.849    24894029.8564
  20770881.965    -4766087.441 9  -3709333.64048  20770881.488    20770887.9044
  21166651.927     1597359.944 9   1124981.85247  21166651.802    21166658.0904
  21217597.139    -7831962.387 9  -6093586.05347  21217596.584    21217603.4344
  21081399.100    -7486895.340 9  -5824058.79647  21081398.621    21081405.3274
  21802556.498   -11451160.273 9  -8693349.38247  21802556.224    21802561.9074
  24689522.352     8749803.295 8   6800917.45245  24689521.230    24689529.4894
 01  7 19 16 21 30.0010000  0  9 26 22 21 17 06 15 23 18 10
  22527615.778    -8024472.900 8  -6242009.35746  22527615.976    22527623.2994
  23090483.454    -5159667.529 8  -4010304.63446  23090483.001    23090490.3424
  24875398.169    -3827831.208 7  -2969742.77645  24875397.970    24875408.5644
  20767646.307    -4783090.594 9  -3722582.85348  20767645.888    20767652.3474
  21176683.212     1650074.383 9   1166058.00847  21176683.087    21176689.3674
  21208718.851    -7878617.767 9  -6129940.87347  21208718.310    21208725.1914
  21075122.494    -7519879.130 9  -5849760.43247  21075122.027    21075128.7104
  21787820.298   -11528600.131 9  -8753692.09047  21787819.906    21787825.4734
  24709846.968     8856609.718 7   6884143.16145  24709845.870    24709854.3424
 01  7 19 16 22  0.0010000  0  9 26 22 21 17 06 15 23 18 10
  22520833.007    -8060117.128 8  -6269784.04846  22520833.162    22520840.4114
  23089525.994    -5164700.167 8  -4014226.19546  23089525.453    23089532.6544
  24856800.896    -3925559.757 7  -3045894.81645  24856800.795    24856811.5074
  20764462.144    -4799823.655 9  -3735621.60148  20764461.712    20764468.1424
  21186797.878     1703227.009 9   1207475.60347  21186797.755    21186804.0244
  21199892.183    -7925002.037 9  -6166084.44647  21199891.640    21199898.5004
  21068937.034    -7552384.349 9  -5875089.15847  21068936.529    21068943.1474
  21773158.666   -11605646.573 9  -8813728.23147  21773158.366    21773164.0234
  24730188.759     8963507.580 7   6967440.11245  24730187.787    24730196.5004
 01  7 19 16 22 30.0010000  0  9 26 22 21 17 06 15 23 18 10
  22514159.749    -8095185.139 8  -6297109.72946  22514159.902    22514167.0834
  23088677.240    -5169160.789 8  -4017702.02046  23088676.582    23088683.9184
  24838228.093    -4023160.765 8  -3121947.45645  24838227.912    24838238.8274
  20761329.380    -4816286.388 9  -3748449.70648  20761328.961    20761335.4024
  21196995.813     1756817.336 9   1249234.26547  21196995.705    21197001.9254
  21191117.216    -7971114.978 9  -6202016.58847  21191116.645    21191123.5104
  21062842.595    -7584410.775 9  -5900044.80347  21062842.078    21062848.6534
  21758572.472   -11682297.796 9  -8873456.41947  21758572.114    21758577.7344
  24750547.724     9070494.936 7   7050806.82145  24750546.903    24750555.5094
 01  7 19 16 23  0.0010000  0  9 26 22 21 17 06 15 23 18 10
  22507596.379    -8129675.491 8  -6323985.30446  22507596.545    22507603.7574
  23087937.065    -5173050.024 8  -4020732.62046  23087936.434    23087943.7914
  24819680.020    -4120632.823 8  -3197899.66045  24819679.573    24819690.4494
  20758247.967    -4832479.241 9  -3761067.51348  20758247.554    20758254.0614
  21207276.864     1810844.297 9   1291333.16347  21207276.738    21207282.9454
  21182393.767    -8016956.798 9  -6237737.47447  21182393.204    21182400.1814
  21056839.164    -7615958.711 9  -5924627.59547  21056838.694    21056845.2134
  21744061.559   -11758552.531 9  -8932875.65047  21744061.240    21744066.9814
  24770923.293     9177569.170 7   7134241.20245  24770922.457    24770931.1394
 01  7 19 16 23 30.0010000  0  9 26 22 21 17 06 15 23 18 10
  22501143.340    -8163585.863 8  -6350408.92646  22501143.612    22501150.8084
  23087305.599    -5176368.401 8  -4023318.39446  23087304.912    23087312.3494
  24801156.368    -4217974.549 7  -3273750.30845  24801155.928    24801166.8644
  20755218.004    -4848401.595 9  -3773474.53948  20755217.622    20755224.1024
  21217640.872     1865307.510 9   1333771.99847  21217640.773    21217647.0014
  21173722.104    -8062526.614 9  -6273246.41047  21173721.568    21173728.5484
  21050926.947    -7647027.730 9  -5948837.20447  21050926.447    21050932.9794
  21729626.464   -11834408.887 9  -8991984.45547  21729626.163    21729631.9364
  24791314.936     9284728.216 7   7217741.67445  24791314.170    24791322.7784
 01  7 19 16 24  0.0010000  0  9 26 22 21 17 06 15 23 18 10
  22494801.225    -8196914.160 8  -6376378.98746  22494801.473    22494808.5714
  23086782.847    -5179116.052 8  -4025459.43346  23086782.124    23086789.5794
  24782657.883    -4315184.230 7  -3349498.05245  24782657.423    24782668.5204
  20752239.603    -4864053.473 9  -3785670.80348  20752239.174    20752245.6234
  21228087.851     1920206.460 9   1376550.36747  21228087.741    21228093.9964
  21165102.277    -8107824.185 9  -6308543.20647  21165101.735    21165108.6584
  21045105.875    -7677617.595 9  -5972673.45347  21045105.387    21045111.9034
  21715267.391   -11909865.561 9  -9050781.82247  21715267.133    21715272.9134
  24811722.653     9391969.894 7   7301306.54145  24811721.872    24811730.1314
 01  7 19 16 24 30.0010000  0  9 26 22 21 17 06 15 23 18 10
  22488570.197    -8229659.232 8  -6401894.59646  22488570.407    22488577.3624
  23086368.343    -5181293.563 8  -4027156.22146  23086367.691    23086375.2754
  24764184.749    -4412260.924 7  -3425142.15045  24764184.232    24764195.6644
  20749312.541    -4879435.486 9  -3797656.78548  20749312.090    20749318.5284
  21238617.453     1975539.945 9   1419667.33747  21238617.331    21238623.6374
  21156534.115    -8152850.026 9  -6343628.25747  21156533.607    21156540.4394
  21039375.876    -7707728.865 9  -5996136.76847  21039375.394    21039381.8624
  21700984.757   -11984921.273 9  -9109266.75747  21700984.511    21700990.2094
  24832145.523     9499291.553 7   7384933.73645  24832144.714    24832152.7304
 01  7 19 16 25  0.0010000  0  9 26 22 21 17 06 15 23 18 10
  22482450.483    -8261818.713 8  -6426953.88646  22482450.634    22482457.5344
  23086062.510    -5182900.554 8  -4028408.44646  23086061.831    23086069.4034
  24745737.115    -4509202.517 7  -3500680.96545  24745736.753    24745748.3424
  20746436.896    -4894547.087 9  -3809432.05248  20746436.461    20746442.8594
  21249229.796     2031307.779 9   1463122.75247  21249229.634    21249235.9134
  21148017.933    -8197603.226 9  -6378500.86547  21148017.342    21148024.0994
  21033737.131    -7737360.731 9  -6019226.52047  21033736.637    21033743.0784
  21686778.837   -12059574.394 9  -9167437.98547  21686778.546    21686784.1954
  24852583.077     9606691.427 8   7468621.87045  24852582.325    24852590.2114
 01  7 19 16 25 30.0010000  0  9 26 22 21 17 06 15 23 18 10
  22476442.371    -8293391.046 8  -6451555.66846  22476442.593    22476449.4734
  23085865.327    -5183938.099 8  -4029216.93946  23085864.528    23085871.9604
  24727315.570    -4606007.860 7  -3576113.64645  24727315.356    24727326.7764
  20743612.704    -4909388.464 9  -3820996.75548  20743612.246    20743618.6344
  21259924.617     2087509.009 9   1506915.89447  21259924.420    21259930.6754
  21139553.480    -8242083.776 9  -6413161.00947  21139552.912    21139559.7394
  21028189.555    -7766513.508 9  -6041942.95447  21028189.097    21028195.4924
  21672649.703   -12133823.564 9  -9225294.44147  21672649.397    21672655.0564
  24873035.099     9714167.126 7   7552369.09445  24873034.347    24873042.4714
 01  7 19 16 26  0.0010000  0  9 26 22 21 17 06 15 23 18 10
  22470546.583    -8324374.021 8  -6475698.21646  22470546.804    22470553.5854
  23085776.273    -5184406.752 8  -4029582.16246  23085775.510    23085782.6604
  24708920.217    -4702675.339 7  -3651438.85645  24708919.931    24708931.3744
  20740839.952    -4923959.418 9  -3832350.74048  20740839.496    20740845.8844
  21270701.704     2144143.228 9   1551046.41447  21270701.560    21270707.8664
  21131141.176    -8286290.970 9  -6447608.15747  21131140.626    21131147.4214
  21022733.226    -7795186.978 9  -6064285.90147  21022732.695    21022739.0664
  21658597.838   -12207666.953 9  -9282834.70247  21658597.435    21658603.1104
  24893500.864     9821716.370 7   7636173.60345  24893500.118    24893508.3834
 01  7 19 16 26 30.0010000  0  9 26 22 21 17 06 15 23 18 10
  22464763.099    -8354765.992 8  -6499380.21946  22464763.238    22464770.2494
  23085795.463    -5184306.437 8  -4029504.01546  23085794.676    23085801.8814
  24690551.524    -4799203.168 7  -3726655.28645  24690551.257    24690562.6264
  20738118.698    -4938259.702 9  -3843493.82048  20738118.240    20738124.6384
  21281561.123     2201209.832 9   1595513.85947  21281561.012    21281567.3674
  21122780.915    -8330224.345 9  -6481841.93147  21122780.344    21122787.2064
  21017368.128    -7823380.797 9  -6086255.09648  21017367.589    21017373.9714
  21644623.302   -12281103.034 9  -9340057.58947  21644622.959    21644628.6224
  24913980.182     9929337.023 7   7720033.77445  24913979.482    24913987.9964
 01  7 19 16 27  0.0010000  0  9 26 22 21 17 06 15 23 18 10
  22459092.293    -8384565.316 8  -6522600.42646  22459092.504    22459099.6094
  23085922.732    -5183637.382 8  -4028982.68846  23085921.989    23085929.3344
  24672209.634    -4895590.238 8  -3801762.03245  24672209.345    24672220.5754
  20735448.920    -4952289.411 9  -3854426.05648  20735448.488    20735454.8784
  21292502.727     2258707.980 9   1640317.57247  21292502.597    21292508.9214
  21114472.815    -8373883.872 9  -6515862.32847  21114472.245    21114479.0754
  21012094.265    -7851095.166 9  -6107850.69848  21012093.740    21012100.0744
  21630726.685   -12354130.586 9  -9396962.13947  21630726.330    21630731.9454
  24934472.728    10037026.823 7   7803947.82145  24934472.164    24934480.7624
 01  7 19 16 27 30.0010000  0  9 26 22 21 17 06 15 23 18 10
  22453534.716    -8413770.318 8  -6545357.52346  22453534.961    22453542.0074
  23086157.867    -5182400.391 8  -4028018.82046  23086157.236    23086164.7374
  24653895.107    -4991835.151 8  -3876757.99245  24653894.714    24653905.6114
  20732830.559    -4966048.682 9  -3865147.56448  20732830.180    20732836.5654
  21303526.293     2316636.823 9   1685456.90347  21303526.146    21303532.4084
  21106216.856    -8417269.215 9  -6549669.06547  21106216.291    21106223.0494
  21006911.630    -7878330.151 9  -6129072.75048  21006911.118    21006917.4544
  21616907.986   -12426748.251 9  -9453547.30047  21616907.616    21616913.2204
  24954978.106    10144783.321 7   7887913.83145  24954977.529    24954986.0224
 01  7 19 16 28  0.0010000  0  9 26 22 21 17 06 15 23 18 10
  22448090.640    -8442379.639 8  -6567650.47846  22448090.831    22448097.7994
  23086501.095    -5180596.668 8  -4026613.34846  23086500.438    23086508.0164
  24635607.594    -5087937.163 7  -3951642.57845  24635607.215    24635617.7974
  20730263.711    -4979537.753 9  -3875658.53048  20730263.307    20730269.6834
  21314631.528     2374995.156 9   1730930.88647  21314631.358    21314637.6324
  21098013.026    -8460380.774 9  -6583262.46547  21098012.430    21098019.1374
  21001820.147    -7905086.087 9  -6149921.52148  21001819.603    21001825.9854
  21603167.487   -12498954.961 9  -9509812.23047  21603167.109    21603172.7634
  24975495.847    10252604.210 8   7971930.02645  24975495.484    24975503.7754
 01  7 19 16 28 30.0010000  0  9 26 22 21 17 06 15 23 18 10
  22442760.248    -8470390.871 8  -6589477.37246  22442760.410    22442767.4324
  23086952.329    -5178226.163 8  -4024766.22346  23086951.666    23086959.2484
  24617347.303    -5183893.785 8  -4026413.87645  24617347.095    24617357.5394
  20727748.437    -4992755.849 9  -3885958.33948  20727747.999    20727754.3634
  21325818.454     2433783.004 9   1776739.55847  21325818.333    21325824.6304
  21089861.539    -8503217.142 9  -6616641.43047  21089860.943    21089867.6824
  20996819.860    -7931362.378 9  -6170396.54548  20996819.364    20996825.7624
  21589505.516   -12570748.364 9  -9565755.10047  21589505.237    21589510.9104
  24996025.493    10360487.809 8   8055995.09945  24996025.211    24996033.3314
 01  7 19 16 29  0.0010000  0  9 26 22 21 17 06 15 23 18 10
  22437543.808    -8497803.070 8  -6610837.49946  22437544.052    22437551.1424
  23087511.176    -5175289.527 8  -4022477.95846  23087510.439    23087518.1484
  24599115.167    -5279703.962 8  -4101071.10145  24599115.067    24599125.3044
  20725284.548    -5005703.524 9  -3896047.44248  20725284.144    20725290.5444
  21337087.006     2492998.927 9   1822881.79147  21337086.842    21337093.1234
  21081762.378    -8545778.529 9  -6649806.12147  21081761.780    21081768.5184
  20991910.797    -7957159.616 9  -6190498.27948  20991910.303    20991916.7264
  21575922.510   -12642127.789 9  -9621375.39647  21575922.200    21575927.8914
  25016566.843    10468431.797 8   8140107.21945  25016566.392    25016574.7544
 01  7 19 16 29 30.0010000  0  9 26 22 21 17 06 15 23 18 10
  22432441.847    -8524614.430 8  -6631729.42946  22432441.984    22432449.1504
  23088177.484    -5171787.099 8  -4019748.80946  23088176.907    23088184.6954
  24580911.119    -5375366.331 7  -4175613.12345  24580911.020    24580921.2884
  20722872.207    -5018380.630 9  -3905925.70848  20722871.774    20722878.1484
  21348436.806     2552642.297 9   1869357.10047  21348436.665    21348442.9804
  21073715.642    -8588064.753 9  -6682756.40147  21073715.011    21073721.7204
  20987092.910    -7982477.721 9  -6210226.66548  20987092.408    20987098.8394
  21562418.579   -12713091.718 9  -9676671.93147  21562418.189    21562423.8864
  25037119.168    10576433.978 8   8224264.71945  25037118.543    25037126.9954
 01  7 19 16 30  0.0010000  0  8 26 22 21 17 06 15 23 18
  22427454.523    -8550822.830 8  -6652151.53546  22427454.706    22427461.7564
  23088951.877    -5167719.179 8  -4016579.04246  23088951.082    23088958.7244
  24562735.676    -5470878.643 8  -4250038.23045  24562735.483    24562745.6674
  20720511.467    -5030786.573 9  -3915592.67548  20720511.029    20720517.3194
  21359867.802     2612712.769 9   1916165.21847  21359867.691    21359874.0364
  21065721.407    -8630075.089 9  -6715491.70247  21065720.745    21065727.4294
  20982366.243    -8007316.287 9  -6229581.38348  20982365.770    20982372.2174
  21548993.884   -12783638.464 9  -9731643.37347  21548993.492    21548999.2384
 01  7 19 16 30 30.0010000  0  8 26 22 21 17 06 15 23 18
  22422582.208    -8576427.422 8  -6672103.15146  22422582.379    22422589.2094
  23089833.263    -5163087.568 8  -4012970.02146  23089832.542    23089840.0644
  24544589.050    -5566240.319 8  -4324345.92945  24544588.595    24544599.1414
  20718202.209    -5042922.094 9  -3925048.91948  20718201.737    20718207.9614
  21371379.761     2673208.872 9   1963304.99247  21371379.652    21371386.0964
  21057779.540    -8671809.916 9  -6748012.32147  21057778.883    21057785.5294
  20977730.755    -8031676.082 9  -6248563.02748  20977730.250    20977736.6534
  21535648.783   -12853767.211 9  -9786289.11247  21535648.411    21535654.1054
 01  7 19 16 31  0.0010000  0  8 26 22 21 17 06 15 23 18
  22417825.054    -8601426.391 8  -6691582.83946  22417825.133    22417832.0844
  23090821.962    -5157892.471 8  -4008921.92946  23090821.217    23090828.6634
  24526471.164    -5661450.319 8  -4398535.45645  24526470.667    24526480.9684
  20715944.400    -5054786.737 9  -3934294.09848  20715943.921    20715950.1944
  21382972.703     2734130.095 9   2010776.02947  21382972.556    21382979.0704
  21049890.237    -8713268.326 9  -6780317.55447  21049889.585    21049896.1804
  20973186.402    -8055556.904 9  -6267171.45248  20973185.915    20973192.3484
  21522383.563   -12923476.367 9  -9840607.89947  21522383.214    21522388.8984
 01  7 19 16 31 30.0010000  0  8 26 22 21 17 06 15 23 18
  22413183.470    -8625817.733 8  -6710589.07346  22413183.576    22413190.6164
  23091917.993    -5152133.633 8  -4004434.55546  23091917.139    23091924.3664
  24508382.503    -5756506.267 8  -4472604.96545  24508382.071    24508392.3054
  20713738.217    -5066380.036 9  -3943327.84048  20713737.788    20713744.0924
  21394646.440     2795475.920 9   2058577.92847  21394646.354    21394652.8414
  21042053.646    -8754449.806 9  -6812406.99747  21042053.020    21042059.5764
  20968733.247    -8078958.433 9  -6285406.40148  20968732.748    20968739.1864
  21509198.636   -12992764.060 9  -9894598.27647  21509198.202    21509203.8264
 01  7 19 16 32  0.0010000  0  8 26 22 21 17 06 15 23 18
  22408657.716    -8649600.698 8  -6729121.23046  22408657.839    22408664.8894
  23093121.002    -5145812.281 8  -3999508.85846  23093120.055    23093127.2354
  24490323.487    -5851407.254 8  -4546553.71845  24490323.052    24490333.3424
  20711583.689    -5077702.560 9  -3952150.58448  20711583.219    20711589.5114
  21406400.735     2857244.808 9   2106709.48547  21406400.607    21406407.0934
  21034269.734    -8795354.730 9  -6844280.94547  21034269.099    21034275.5964
  20964371.109    -8101881.635 9  -6303268.62848  20964370.598    20964377.0474
  21496093.846   -13061629.677 9  -9948259.75847  21496093.484    21496099.0634
 01  7 19 16 32 30.0010000  0  8 26 22 21 17 06 15 23 18
  22404248.040    -8672773.045 8  -6747177.60846  22404248.152    22404255.2564
  23094430.881    -5138929.046 8  -3994145.31646  23094429.999    23094437.0824
  24472294.044    -5946151.698 8  -4620380.48845  24472293.724    24472303.9564
  20709480.763    -5088753.615 9  -3960761.79748  20709480.255    20709486.5164
  21418235.430     2919436.622 9   2155170.58847  21418235.324    21418241.8264
  21026538.558    -8835982.083 9  -6875938.60347  21026537.941    21026544.4784
  20960100.074    -8124325.909 9  -6320757.66648  20960099.585    20960106.0094
  21483069.809   -13130071.194 9 -10001590.77447  21483069.431    21483075.0664
 01  7 19 16 33  0.0010000  0  8 26 22 21 17 06 15 23 18
  22399954.700    -8695333.848 8  -6764757.43846  22399954.824    22399962.0184
  23095847.494    -5131485.223 8  -3988344.96046  23095846.578    23095853.7204
  24454294.667    -6040738.093 8  -4694084.07545  24454294.414    24454304.7094
  20707429.446    -5099533.414 9  -3969161.63948  20707428.965    20707435.1684
  21430150.489     2982050.195 9   2203960.33747  21430150.385    21430156.8944
  21018860.180    -8876331.943 9  -6907380.03247  21018859.566    21018866.2014
  20955920.051    -8146291.791 9  -6337873.92748  20955919.589    20955926.0524
  21470126.556   -13198087.663 9 -10054590.58347  21470126.211    21470131.8904
 01  7 19 16 33 30.0010000  0  8 26 22 21 17 06 15 23 18
  22395778.224    -8717281.439 8  -6781859.45746  22395778.395    22395785.5874
  23097370.682    -5123480.972 8  -3982107.89346  23097369.734    23097376.9964
  24436326.039    -6135165.240 8  -4767663.60245  24436325.584    24436335.7514
  20705429.807    -5110041.790 9  -3977349.98748  20705429.290    20705435.4924
  21442145.669     3045084.751 9   2253078.12447  21442145.561    21442152.0264
  21011234.773    -8916403.918 9  -6938604.93547  21011234.135    21011240.7184
  20951831.078    -8167779.355 9  -6354617.47948  20951830.639    20951837.0964
  21457264.380   -13265677.815 9 -10107258.19847  21457264.115    21457269.8644
 01  7 19 16 34  0.0010000  0  9 26 22 21 17 06 15 23 18 03
  22391718.343    -8738617.034 8  -6798484.61146  22391718.466    22391725.5924
  23098999.587    -5114919.498 8  -3975436.65046  23098998.786    23099006.2454
  24418387.317    -6229434.223 8  -4841119.86745  24418386.872    24418396.9734
  20703481.332    -5120281.336 9  -3985328.85348  20703480.818    20703486.9494
  21454220.334     3108536.850 9   2302521.26847  21454220.182    21454226.6824
  21003661.734    -8956200.118 9  -6969614.95047  21003661.118    21003667.6784
  20947832.602    -8188791.350 9  -6370990.45048  20947832.168    20947838.6204
  21444483.282   -13332842.830 9 -10159594.53947  21444483.013    21444488.7824
  24921113.714    -2829609.275 7  -1959065.02945  24921113.233    24921122.2384
 01  7 19 16 34 30.0010000  0  9 26 22 21 17 06 15 23 18 03
  22387775.582    -8759336.411 8  -6814629.58246  22387775.726    22387782.8684
  23100735.290    -5105798.749 8  -3968329.59946  23100734.394    23100741.9274
  24400479.465    -6323540.732 8  -4914449.53045  24400478.990    24400489.0654
  20701584.551    -5130248.946 9  -3993095.81948  20701584.072    20701590.2114
  21466374.668     3172408.442 9   2352291.28547  21466374.508    21466381.0604
  20996141.841    -8995717.248 9  -7000407.50347  20996141.234    20996147.7724
  20943925.173    -8209324.998 9  -6386990.69048  20943924.763    20943931.1574
  21431783.893   -13399578.620 9 -10211596.41747  21431783.595    21431789.3714
  24901428.043    -2933057.571 7  -2039674.00245  24901427.580    24901436.7564
 01  7 19 16 35  0.0010000  0  9 26 22 21 17 06 15 23 18 03
  22383950.518    -8779437.719 8  -6830292.92846  22383950.613    22383957.6094
  23102577.139    -5096119.726 8  -3960787.52446  23102576.339    23102583.8174
  24382602.685    -6417482.917 8  -4987651.16245  24382602.316    24382612.4544
  20699739.587    -5139944.139 9  -4000650.51248  20699739.119    20699745.2824
  21478608.727     3236699.044 9   2402387.79347  21478608.579    21478615.2454
  20988675.206    -9034954.609 9  -7030982.06547  20988674.603    20988681.1834
  20940108.819    -8229380.107 9  -6402618.03948  20940108.395    20940114.7774
  21419166.553   -13465883.312 9 -10263262.37047  21419166.220    21419172.0164
  24881757.224    -3036427.879 7  -2120222.21045  24881756.878    24881766.1354
 01  7 19 16 35 30.0010000  0  9 26 22 21 17 06 15 23 18 03
  22380243.098    -8798920.318 8  -6845474.19346  22380243.250    22380250.1074
  23104525.052    -5085883.713 8  -3952811.42846  23104524.191    23104531.7414
  24364757.172    -6511259.751 8  -5060723.93645  24364756.940    24364767.2474
  20697946.373    -5149367.446 9  -4007993.34548  20697945.890    20697952.0604
  21490922.212     3301406.930 9   2452809.46847  21490922.124    21490928.8024
  20981261.685    -9073912.709 9  -7061339.01147  20981261.075    20981267.7414
  20936383.300    -8248957.599 9  -6417873.21848  20936382.914    20936389.2984
  21406631.356   -13531756.396 9 -10314592.00747  21406631.018    21406636.7134
  24862101.459    -3139718.788 7  -2200708.53845  24862101.166    24862110.4594
 01  7 19 16 36  0.0010000  0  9 26 22 21 17 06 15 23 18 03
  22376653.753    -8817782.561 8  -6860172.04546  22376653.944    22376660.8424
  23106578.657    -5075090.785 8  -3944401.40046  23106577.999    23106585.6384
  24346943.692    -6604869.656 8  -5133666.63545  24346943.522    24346953.7964
  20696204.915    -5158518.435 9  -4015123.98548  20696204.476    20696210.6714
  21503315.111     3366531.430 9   2503555.77147  21503314.995    21503321.6144
  20973901.402    -9112590.628 9  -7091477.64347  20973900.841    20973907.5154
  20932748.702    -8268057.522 9  -6432756.26448  20932748.270    20932754.6784
  21394178.610   -13597196.343 9 -10365584.13447  21394178.229    21394183.8894
  24842461.167    -3242927.834 7  -2281131.09045  24842461.032    24842470.2634
 01  7 19 16 36 30.0010000  0  9 26 22 21 17 06 15 23 18 03
  22373182.598    -8836024.419 8  -6874386.49246  22373182.688    22373189.5864
  23108738.023    -5063742.963 8  -3935558.98446  23108737.404    23108745.1154
  24329162.015    -6698312.683 8  -5206479.28745  24329161.662    24329172.0444
  20694515.105    -5167398.108 9  -4022043.20948  20694514.726    20694520.9494
  21515786.771     3432070.487 9   2554625.10947  21515786.681    21515793.2954
  20966594.383    -9150989.182 9  -7121398.58647  20966593.839    20966600.4754
  20929204.700    -8286681.160 9  -6447268.17848  20929204.274    20929210.7004
  21381808.167   -13662203.084 9 -10416238.69447  21381807.813    21381813.4494
  24822836.686    -3346054.184 7  -2361489.25745  24822836.768    24822845.9554
 01  7 19 16 37  0.0010000  0  9 26 22 21 17 06 15 23 18 03
  22369829.634    -8853644.262 8  -6888116.25646  22369829.789    22369836.6034
  23111003.124    -5051841.139 8  -3926284.86846  23111002.396    23111010.0704
  24311412.646    -6791587.001 8  -5279160.49245  24311412.190    24311422.3614
  20692877.104    -5176006.184 9  -4028750.79548  20692876.699    20692882.9194
  21528337.237     3498023.411 9   2606016.93647  21528337.172    21528343.7934
  20959340.721    -9189107.914 9  -7151101.48547  20959340.131    20959346.7344
  20925751.334    -8304828.431 9  -6461408.90348  20925750.924    20925757.3874
  21369520.534   -13726775.070 9 -10466554.48547  21369520.159    21369525.7864
  24803228.850    -3449095.659 7  -2441781.25045  24803228.732    24803237.8654
 01  7 19 16 37 30.0010000  0  9 26 22 21 17 06 15 23 18 03
  22366595.208    -8870641.685 8  -6901361.03046  22366595.299    22366602.0134
  23113373.209    -5039387.339 8  -3916580.64446  23113372.375    23113379.9854
  24293695.581    -6884691.639 8  -5351709.50045  24293695.075    24293705.1534
  20691290.636    -5184343.117 9  -4035247.11048  20691290.208    20691296.4824
  21540966.267     3564388.586 9   2657729.99847  21540966.149    21540972.7324
  20952140.196    -9226947.123 9  -7180586.57247  20952139.576    20952146.1534
  20922388.511    -8322500.479 9  -6475179.31948  20922388.082    20922394.4714
  21357315.641   -13790911.880 9 -10516531.18847  21357315.308    21357320.9244
  24783637.274    -3552050.684 7  -2522005.85045  24783637.005    24783646.1044
 01  7 19 16 38  0.0010000  0  9 26 22 21 17 06 15 23 18 03
  22363479.485    -8887015.035 8  -6914119.50146  22363479.565    22363486.3554
  23115848.287    -5026381.758 8  -3906446.47546  23115847.372    23115854.9444
  24276011.161    -6977624.735 8  -5424124.78845  24276010.507    24276020.5724
  20689755.833    -5192408.454 9  -4041531.79148  20689755.410    20689761.7384
  21553673.515     3631165.419 9   2709763.83447  21553673.382    21553679.9414
  20944992.905    -9264505.978 9  -7209853.20947  20944992.333    20944998.9574
  20919116.147    -8339697.066 9  -6488579.25048  20919115.727    20919122.0614
  21345193.954   -13854611.724 9 -10566167.39647  21345193.580    21345199.1874
  24764062.759    -3654916.770 7  -2602161.20045  24764062.326    24764071.2584
 01  7 19 16 38 30.0010000  0  9 26 22 21 17 06 15 23 18 03
  22360482.730    -8902762.209 8  -6926390.04946  22360482.920    22360489.8084
  23118428.135    -5012823.934 8  -3895881.97046  23118427.306    23118434.9194
  24258359.263    -7070384.770 8  -5496405.21345  24258358.688    24258368.9354
  20688272.958    -5200201.128 9  -4047604.00848  20688272.517    20688278.8384
  21566459.023     3698353.935 9   2762118.46347  21566458.931    21566465.5134
  20937899.344    -9301783.242 9  -7238900.42347  20937898.734    20937905.4014
  20915934.409    -8356417.639 9  -6501608.25548  20915933.960    20915940.2214
  21333155.642   -13917872.696 9 -10615461.61947  21333155.334    21333160.9744
  24744505.450    -3757690.800 7  -2682244.78045  24744505.006    24744513.8854
 01  7 19 16 39  0.0010000  0  9 26 22 21 17 06 15 23 18 03
  22357605.531    -8917881.934 8  -6938171.64546  22357605.702    22357612.5164
  23121112.781    -4998715.052 8  -3884888.10446  23121112.097    23121119.7204
  24240740.537    -7162969.946 8  -5568549.42445  24240740.155    24240750.3494
  20686841.958    -5207720.957 9  -4053463.60948  20686841.548    20686847.8444
  21579322.883     3765953.216 9   2814793.17347  21579322.735    21579329.3104
  20930859.313    -9338778.552 9  -7267727.93347  20930858.728    20930865.3954
  20912843.190    -8372662.288 9  -6514266.41148  20912842.720    20912848.9234
  21321201.265   -13980693.478 9 -10664412.83847  21321200.930    21321206.5414
  24724966.026    -3860370.780 7  -2762255.06845  24724965.573    24724974.3264
 01  7 19 16 39 30.0010000  0  9 26 22 21 17 06 15 23 18 03
  22354847.763    -8932373.580 8  -6949463.84346  22354847.981    22354854.7864
  23123902.235    -4984056.958 8  -3873466.24146  23123901.446    23123909.1094
  24223155.361    -7255379.317 8  -5640556.63045  24223155.208    24223165.3244
  20685462.891    -5214968.206 9  -4059110.81748  20685462.462    20685468.7484
  21592264.570     3833961.667 9   2867786.71147  21592264.406    21592270.9464
  20923873.016    -9375491.971 9  -7296335.78047  20923872.445    20923879.0354
  20909842.330    -8388431.844 9  -6526554.36548  20909841.848    20909848.0854
  21309330.826   -14043073.305 9 -10713020.45447  21309330.428    21309336.0034
  24705444.543    -3962954.856 7  -2842190.65245  24705444.187    24705453.1234
 01  7 19 16 40  0.0010000  0  9 26 22 21 17 06 15 23 18 03
  22352209.759    -8946236.753 8  -6960266.33146  22352209.907    22352216.6674
  23126795.820    -4968851.356 8  -3861617.76646  23126794.993    23126802.6774
  24205604.256    -7347612.015 8  -5712426.19145  24205603.920    24205613.9104
  20684135.612    -5221943.389 9  -4064546.02848  20684135.161    20684141.4194
  21605283.729     3902377.658 9   2921097.81647  21605283.553    21605290.0764
  20916940.275    -9411923.844 9  -7324724.24747  20916939.664    20916946.3024
  20906931.622    -8403727.453 9  -6538473.00848  20906931.143    20906937.4254
  21297544.337   -14105011.666 9 -10761284.07947  21297543.967    21297549.4974
  24685941.508    -4065441.930 7  -2922050.65945  24685941.429    24685950.1394
 01  7 19 16 40 30.0010000  0  9 26 22 21 17 06 15 23 18 03
  22349691.593    -8959470.240 8  -6970578.14446  22349691.730    22349698.5074
  23129793.364    -4953098.748 8  -3849343.05346  23129792.578    23129800.4004
  24188086.744    -7439666.798 8  -5784157.06245  24188086.337    24188096.4594
  20682860.062    -5228646.309 9  -4069769.08748  20682859.634    20682865.8774
  21618380.206     3971200.107 9   2974725.64647  21618380.087    21618386.6044
  20910061.138    -9448073.815 9  -7352893.04947  20910060.526    20910067.1844
  20904111.048    -8418549.351 9  -6550022.53148  20904110.595    20904116.9414
  21285842.068   -14166507.370 9 -10809202.77447  21285841.718    21285847.2354
  24666457.483    -4167829.500 7  -3001833.14245  24666457.407    24666466.1664
 01  7 19 16 41  0.0010000  0  9 26 22 21 17 06 15 23 18 03
  22347293.309    -8972073.175 8  -6980398.62146  22347293.421    22347300.2664
  23132894.929    -4936800.241 8  -3836642.96446  23132894.161    23132901.9444
  24170603.262    -7531542.345 8  -5855748.29145  24170602.980    24170613.1374
  20681636.330    -5235077.009 9  -4074780.02548  20681635.921    20681642.1794
  21631553.824     4040427.833 9   3028669.26247  21631553.707    21631560.2684
  20903235.748    -9483941.353 9  -7380841.77747  20903235.122    20903241.8384
  20901380.589    -8432898.091 9  -6561203.36148  20901380.116    20901386.4644
  21274224.159   -14227559.666 9 -10856775.95647  21274223.851    21274229.3444
  24646992.917    -4270115.697 7  -3081536.63245  24646992.862    24647001.6594
 01  7 19 16 41 30.0010000  0  9 26 22 21 17 06 15 23 18 03
  22345015.282    -8984044.242 8  -6989726.72046  22345015.388    22345022.2004
  23136100.054    -4919956.870 8  -3823518.30346  23136099.362    23136107.2684
  24153154.325    -7623236.853 8  -5927198.43145  24153153.969    24153164.2004
  20680464.496    -5241234.929 9  -4079578.40648  20680464.093    20680470.3544
  21644804.323     4110060.024 9   3082928.05047  21644804.264    21644810.9604
  20896464.204    -9519525.580 9  -7408569.73747  20896463.639    20896470.3524
  20898740.095    -8446773.765 9  -6572015.56148  20898739.624    20898745.9994
  21262690.959   -14288166.939 9 -10904002.38147  21262690.656    21262696.1084
  24627547.906    -4372297.893 7  -3161159.06545  24627548.153    24627557.0424
 01  7 19 16 42  0.0010000  0  9 26 22 21 17 06 15 23 18 03
  22342857.579    -8995382.870 8  -6998562.03746  22342857.711    22342864.4974
  23139408.620    -4902570.573 8  -3809970.57646  23139407.891    23139415.8504
  24135740.192    -7714749.730 8  -5998507.05045  24135739.715    24135749.7344
  20679344.520    -5247120.331 9  -4084164.43748  20679344.148    20679350.4134
  21658131.663     4180095.367 9   3137500.98147  21658131.567    21658138.2834
  20889746.697    -9554826.805 9  -7436077.18047  20889746.090    20889752.7314
  20896189.458    -8460177.159 9  -6582459.75548  20896189.039    20896195.4404
  21251242.498   -14348328.476 9 -10950881.47447  21251242.211    21251247.7074
  24608123.302    -4474374.465 7  -3240699.21745  24608123.829    24608132.4654
 01  7 19 16 42 30.0010000  0  9 26 22 21 17 06 15 23 18 03
  22340820.446    -9006088.390 8  -7006903.99646  22340820.512    22340827.4164
  23142820.263    -4884642.279 8  -3796000.52446  23142819.609    23142827.4934
  24118360.660    -7806079.508 8  -6069672.99345  24118360.087    24118370.1434
  20678276.349    -5252733.421 9  -4088538.27748  20678275.987    20678282.2904
  21671535.424     4250532.441 9   3192386.95947  21671535.338    21671542.0774
  20883082.994    -9589844.915 9  -7463364.00647  20883082.383    20883089.0084
  20893728.643    -8473109.027 9  -6592536.52548  20893728.193    20893734.5504
  21239879.078   -14408043.395 9 -10997412.54247  21239878.798    21239884.3134
  24588719.261    -4576343.540 7  -3320155.60245  24588719.814    24588728.3544
 01  7 19 16 43  0.0010000  0  9 26 22 21 17 06 15 23 18 03
  22338903.833    -9016159.291 8  -7014751.44046  22338903.939    22338911.0654
  23146335.170    -4866172.325 8  -3781608.38146  23146334.476    23146342.3464
  24101016.161    -7897224.521 8  -6140694.99245  24101015.753    24101025.7184
  20677260.220    -5258073.310 9  -4092699.23248  20677259.851    20677266.1474
  21685015.544     4321370.582 9   3247585.45047  21685015.416    21685022.1824
  20876473.262    -9624579.120 9  -7490429.61747  20876472.669    20876479.2774
  20891357.556    -8485569.240 9  -6602245.77148  20891357.084    20891363.4374
  21228600.981   -14467310.203 9 -11043594.44947  21228600.725    21228606.2324
  24569336.140    -4678202.192 7  -3399525.92645  24569336.523    24569345.2264
 01  7 19 16 43 30.0010000  0  9 26 22 21 17 06 15 23 18 03
  22337108.178    -9025594.977 8  -7022103.90246  22337108.322    22337115.4764
  23149952.607    -4847162.208 8  -3766795.34746  23149951.912    23149959.8554
  24083707.131    -7988183.878 8  -6211572.30845  24083706.717    24083716.5524
  20676296.062    -5263140.255 9  -4096647.49848  20676295.678    20676301.9024
  21698571.751     4392608.620 9   3303095.55347  21698571.621    21698578.3924
  20869917.644    -9659029.240 9  -7517273.85947  20869917.057    20869923.6884
  20889076.089    -8497558.383 9  -6611587.95048  20889075.654    20889081.9584
  21217408.415   -14526127.976 9 -11089426.45147  21217408.104    21217413.5344
  24549974.436    -4779948.580 7  -3478808.79745  24549974.846    24549983.3334
 01  7 19 16 44  0.0010000  0  9 26 22 21 17 06 15 23 18 03
  22335433.700    -9034394.675 8  -7028960.82346  22335433.840    22335440.9294
  23153672.586    -4827613.799 8  -3751562.88146  23153671.857    23153679.7684
  24066433.507    -8078956.636 8  -6282304.23345  24066433.165    24066442.8944
  20675383.818    -5267934.195 9  -4100383.04248  20675383.450    20675389.6794
  21712203.751     4464245.226 9   3358916.22247  21712203.684    21712210.4364
  20863416.097    -9693194.995 9  -7543896.51247  20863415.518    20863422.1264
  20886884.159    -8509077.220 9  -6620563.65948  20886883.681    20886889.9504
  21206301.345   -14584495.852 9 -11134907.88647  21206301.023    21206306.4654
  24530634.586    -4881580.516 7  -3558002.47745  24530634.905    24530643.3544
 01  7 19 16 44 30.0010000  0  9 26 22 21 17 06 15 23 18 03
  22333880.386    -9042557.681 8  -7035321.60446  22333880.526    22333887.6214
  23157494.923    -4807528.366 8  -3735911.92746  23157494.100    23157501.9764
  24049195.601    -8169541.056 8  -6352889.39145  24049195.430    24049205.1584
  20674523.533    -5272455.032 9  -4103905.77648  20674523.155    20674529.4224
  21725911.419     4536279.203 9   3415046.53747  21725911.324    21725918.1284
  20856968.818    -9727076.019 9  -7570297.29947  20856968.211    20856974.7234
  20884781.526    -8520126.344 9  -6629173.35748  20884781.067    20884787.3874
  21195280.070   -14642413.065 9 -11180038.15347  21195279.733    21195285.1974
  24511316.935    -4983096.118 7  -3637105.48245  24511317.108    24511325.5344
 01  7 19 16 45  0.0010000  0  9 26 22 21 17 06 15 23 18 03
  22332448.233    -9050083.296 8  -7041185.69646  22332448.438    22332455.5334
  23161419.063    -4786906.831 8  -3719843.23546  23161418.263    23161426.1344
  24031993.702    -8259936.159 8  -6423327.01445  24031993.607    24032003.3964
  20673715.161    -5276702.640 9  -4107215.60648  20673714.825    20673721.1154
  21739694.466     4608709.299 9   3471485.50847  21739694.413    21739701.1854
  20850575.715    -9760671.963 9  -7596475.94847  20850575.087    20850581.6004
  20882768.280    -8530706.288 9  -6637417.46548  20882767.781    20882774.1174
  21184344.681   -14699878.575 9 -11224816.44347  21184344.364    21184349.8624
  24492021.721    -5084493.037 7  -3716116.01045  24492021.816    24492030.2544
 01  7 19 16 45 30.0010000  0  9 26 22 21 17 06 15 23 18 03
  22331137.651    -9056970.892 8  -7046552.64346  22331137.835    22331144.8184
  23165445.139    -4765750.483 8  -3703357.81446  23165444.247    23165452.1764
  24014828.179    -8350140.478 8  -6493615.99545  24014828.171    24014837.9394
  20672958.961    -5280677.145 9  -4110312.62448  20672958.569    20672964.8654
  21753552.708     4681534.189 9   3528232.12647  21753552.619    21753559.3074
  20844236.829    -9793982.752 9  -7622432.40447  20844236.226    20844242.7514
  20880844.103    -8540817.795 9  -6645296.55348  20880843.643    20880849.9634
  21173495.493   -14756891.443 9 -11269242.03047  21173495.164    21173500.6574
  24472749.620    -5185769.520 7  -3795032.70345  24472749.528    24472757.8764
 01  7 19 16 46  0.0010000  0  9 26 22 21 17 06 15 23 18 03
  22329948.482    -9063219.741 8  -7051421.87246  22329948.678    22329955.6514
  23169572.487    -4744060.799 8  -3686456.81046  23169571.530    23169579.6144
  23997699.418    -8440152.420 8  -6563755.07745  23997699.338    23997709.0924
  20672254.668    -5284378.249 9  -4113196.61448  20672254.246    20672260.5874
  21767485.803     4754752.626 9   3585285.39147  21767485.663    21767492.4204
  20837952.291    -9827007.861 9  -7648166.25147  20837951.736    20837958.2594
  20879009.031    -8550461.291 9  -6652810.95948  20879008.563    20879014.8504
  21162732.602   -14813450.635 9 -11313314.10547  21162732.275    21162737.7794
  24453500.782    -5286923.139 8  -3873853.66345  24453500.654    24453509.0014
 01  7 19 16 46 30.0010000  0  9 26 22 21 17 06 15 23 18 03
  22328881.217    -9068829.015 8  -7055792.73246  22328881.377    22328888.2864
  23173801.079    -4721839.499 8  -3669141.56746  23173800.182    23173808.1414
  23980607.462    -8529971.629 8  -6633743.97945  23980607.281    23980616.9834
  20671602.363    -5287805.878 9  -4115867.49648  20671601.968    20671608.3144
  21781493.449     4828363.400 9   3642644.36347  21781493.296    21781500.1834
  20831722.179    -9859747.216 9  -7673677.42847  20831721.609    20831728.1384
  20877262.881    -8559637.423 9  -6659961.19048  20877262.412    20877268.6774
  21152056.254   -14869555.323 9 -11357032.01647  21152055.926    21152061.4104
  24434275.832    -5387951.736 8  -3952577.18845  24434275.643    24434283.9184
 01  7 19 16 47  0.0010000  0  9 26 22 21 17 06 15 23 18 03
  22327935.656    -9073798.724 8  -7059665.21846  22327935.722    22327942.6024
  23178130.536    -4699088.349 8  -3651413.45146  23178129.685    23178137.5044
  23963552.665    -8619596.589 8  -6703581.49745  23963552.168    23963561.8674
  20671002.067    -5290960.410 9  -4118325.58248  20671001.673    20671008.0434
  21795575.542     4902364.712 9   3700307.66147  21795575.367    21795582.2804
  20825546.544    -9892200.863 9  -7698965.97247  20825545.915    20825552.4204
  20875605.431    -8568347.144 9  -6666747.97848  20875604.969    20875611.2754
  21141466.307   -14925205.349 9 -11400395.64847  21141466.008    21141471.4724
  24415074.846    -5488853.692 7  -4031202.01945  24415074.726    24415082.9044
 01  7 19 16 47 30.0010000  0  9 26 22 21 17 06 15 23 18 03
  22327111.751    -9078127.450 8  -7063038.22846  22327111.942    22327118.8774
  23182560.787    -4675807.456 8  -3633272.54346  23182559.878    23182567.6414
  23946534.536    -8709026.135 8  -6773266.78545  23946534.190    23946543.8764
  20670453.880    -5293841.026 9  -4120570.22748  20670453.503    20670459.8974
  21809731.849     4976755.954 8   3758274.80347  21809731.627    21809738.5444
  20819425.265    -9924367.779 9  -7724031.09847  20819424.702    20819431.2524
  20874036.770    -8576590.510 9  -6673171.38048  20874036.315    20874042.6284
  21130963.225   -14980398.922 9 -11443403.60147  21130962.959    21130968.4464
  24395898.579    -5589626.019 8  -4109725.85745  24395898.520    24395906.4994
 01  7 19 16 48  0.0010000  0  9 26 22 21 17 06 15 23 18 03
  22326410.169    -9081814.694 8  -7065911.39346  22326410.258    22326416.9734
  23187091.547    -4651998.249 8  -3614719.95246  23187090.662    23187098.4064
  23929554.215    -8798258.727 8  -6842798.57146  23929553.854    23929563.4654
  20669957.947    -5296447.366 9  -4122601.14648  20669957.566    20669963.9004
  21823961.967     5051535.954 9   3816544.86847  21823961.816    21823968.6764
  20813358.736    -9956247.412 9  -7748872.35847  20813358.212    20813364.7864
  20872556.708    -8584368.113 9  -6679231.85048  20872556.260    20872562.5504
  21120547.253   -15035135.098 9 -11486055.13747  21120547.010    21120552.4594
  24376747.533    -5690266.442 8  -4188146.90845  24376747.309    24376755.5164
 01  7 19 16 48 30.0010000  0  9 26 22 21 17 06 15 23 18 03
  22325830.607    -9084860.017 8  -7068284.35246  22325830.719    22325837.4674
  23191722.392    -4627662.954 8  -3595757.44546  23191721.635    23191729.4724
  23912611.702    -8887293.136 8  -6912175.92946  23912611.124    23912620.7584
  20669514.138    -5298779.796 9  -4124418.63848  20669513.743    20669520.0474
  21838265.880     5126703.209 9   3875116.68847  21838265.703    21838272.5464
  20807346.917    -9987839.641 9  -7773489.67547  20807346.424    20807352.9384
  20871165.103    -8591681.018 9  -6684930.21648  20871164.643    20871170.9344
  21110218.469   -15089413.561 9 -11528350.01547  21110218.180    21110223.5664
  24357621.993    -5790773.043 8  -4266463.66945  24357621.699    24357629.8914
 01  7 19 16 49  0.0010000  0  9 26 22 21 17 06 15 23 18 03
  22325373.276    -9087263.154 8  -7070156.90146  22325373.366    22325380.2364
  23196453.240    -4602803.218 8  -3576386.28146  23196452.390    23196460.1974
  23895706.869    -8976128.130 8  -6981397.90946  23895706.347    23895715.8874
  20669122.442    -5300838.147 9  -4126022.55948  20669122.045    20669128.3734
  21852643.118     5202256.317 9   3933989.16947  21852643.010    21852649.8514
  20801389.923   -10019144.315 9  -7797882.91747  20801389.358    20801395.8444
  20869861.845    -8598529.880 9  -6690266.98748  20869861.376    20869867.6534
  21099976.966   -15143233.193 9 -11570287.35747  21099976.670    21099981.9244
  24338522.275    -5891143.699 8  -4344674.53845  24338521.952    24338530.0024
 01  7 19 16 49 30.0010000  0  9 26 22 21 17 06 15 23 18 03
  22325038.379    -9089022.944 8  -7071528.15846  22325038.537    22325045.4344
  23201283.640    -4577419.629 8  -3556606.91646  23201282.786    23201290.5474
  23878840.113    -9064762.628 8  -7050463.65845  23878839.643    23878849.0794
  20668783.056    -5302621.940 9  -4127412.54148  20668782.640    20668788.9134
  21867093.844     5278194.481 9   3993161.70047  21867093.696    21867100.4474
  20795487.648   -10050160.771 9  -7822051.57447  20795487.104    20795493.6054
  20868646.841    -8604914.944 9  -6695242.35748  20868646.357    20868652.6244
  21089823.024   -15196592.544 9 -11611866.04547  21089822.740    21089827.9214
  24319448.817    -5991375.677 8  -4422777.33245  24319448.356    24319456.5024
 01  7 19 16 50  0.0010000  0  9 26 22 21 17 06 15 23 18 03
  22324825.887    -9090139.523 8  -7072398.21646  22324826.075    22324832.9834
  23206213.427    -4551513.741 8  -3536420.55646  23206212.513    23206220.3144
  23862011.638    -9153195.402 8  -7119372.23046  23862011.254    23862020.7374
  20668495.842    -5304131.265 9  -4128588.64948  20668495.428    20668501.7114
  21881617.418     5354516.010 9   4052632.95347  21881617.272    21881624.0574
  20789640.298   -10080888.879 9  -7845995.54347  20789639.762    20789646.2164
  20867519.959    -8610837.179 9  -6699857.08548  20867519.447    20867525.7004
  21079756.705   -15249491.374 9 -11653085.88847  21079756.388    21079761.6184
  24300401.884    -6091467.343 7  -4500770.77245  24300401.482    24300409.7394
 01  7 19 16 50 30.0010000  0  9 26 22 21 17 06 15 23 18 03
  22324736.028    -9090611.787 8  -7072766.19246  22324736.176    22324743.1684
  23211242.126    -4525086.811 8  -3515828.21846  23211241.332    23211249.2854
  23845222.100    -9241425.132 8  -7188122.58246  23845221.736    23845231.1884
  20668260.972    -5305365.601 9  -4129550.48548  20668260.561    20668266.8554
  21896213.704     5431219.870 8   4112402.11447  21896213.607    21896220.3954
  20783848.016   -10111327.829 9  -7869714.19847  20783847.432    20783853.8754
  20866480.991    -8616296.830 9  -6704111.35748  20866480.526    20866486.7794
  21069778.119   -15301928.500 9 -11693945.95647  21069777.866    21069783.1824
  24281381.974    -6191415.939 8  -4578652.74545  24281381.670    24281389.8134
 01  7 19 16 51  0.0010000  0  9 26 22 21 17 06 15 23 18 03
  22324768.859    -9090439.751 8  -7072632.12746  22324768.944    22324775.8894
  23216369.545    -4498141.388 8  -3494831.83446  23216368.882    23216376.9064
  23828471.361    -9329450.582 8  -7256713.74746  23828470.993    23828480.4144
  20668078.427    -5306325.034 9  -4130298.11048  20668077.977    20668084.2844
  21910882.462     5508304.491 8   4172467.98847  21910882.412    21910889.1764
  20778110.577   -10141477.615 9  -7893207.52647  20778110.074    20778116.5984
  20865529.916    -8621295.005 9  -6708006.03748  20865529.434    20865535.6554
  21059887.648   -15353903.606 9 -11734446.01447  21059887.353    21059892.6524
  24262389.786    -6291219.418 7  -4656421.64545  24262389.568    24262397.9244
 01  7 19 16 51 30.0010000  0  9 26 22 21 17 06 15 23 18 03
  22324924.215    -9089623.371 8  -7071995.95846  22324924.316    22324931.1604
  23221595.672    -4470678.966 8  -3473432.59846  23221594.944    23221602.8614
  23811759.904    -9417271.045 8  -7325145.17946  23811759.322    23811768.7094
  20667948.076    -5307009.806 9  -4130831.71348  20667947.707    20667953.9744
  21925623.333     5585768.029 8   4232829.11647  21925623.227    21925630.1294
  20772428.300   -10171338.348 9  -7916475.62047  20772427.787    20772434.3354
  20864666.503    -8625832.781 9  -6711541.96448  20864665.982    20864672.1394
  21050085.155   -15405416.186 9 -11774585.66647  21050084.850    21050090.1234
  24243425.567    -6390875.863 7  -4734075.99345  24243425.426    24243433.8674
 01  7 19 16 52  0.0010000  0  9 26 22 21 17 06 15 23 18 03
  22325202.186    -9088162.318 8  -7070857.44846  22325202.264    22325209.1534
  23226919.956    -4442700.615 8  -3451631.35146  23226919.158    23226927.1274
  23795087.311    -9504885.200 8  -7393415.86146  23795086.744    23795096.2554
  20667870.181    -5307419.766 9  -4131151.16948  20667869.732    20667876.0094
  21940435.984     5663609.126 9   4293484.44147  21940435.932    21940442.8614
  20766801.101   -10200909.638 9  -7939518.17547  20766800.563    20766807.0694
  20863890.481    -8629910.670 9  -6714719.53848  20863889.950    20863896.1074
  21040370.774   -15456465.462 9 -11814364.29947  21040370.435    21040375.7274
  24224489.895    -6490382.975 8  -4811613.95745  24224489.875    24224498.1704
 01  7 19 16 52 30.0010000  0  9 26 22 21 17 06 15 23 18 03
  22325602.913    -9086055.852 8  -7069216.02646  22325603.047    22325610.0044
  23232341.986    -4414207.736 8  -3429429.16946  23232341.165    23232349.0564
  23778454.014    -9592291.633 8  -7461524.67746  23778453.629    23778463.1424
  20667844.499    -5307554.393 9  -4131256.09148  20667844.129    20667850.4334
  21955320.386     5741826.713 8   4354433.13847  21955320.298    21955327.2404
  20761229.101   -10230190.718 9  -7962334.59547  20761228.551    20761235.0564
  20863201.842    -8633529.295 9  -6717539.24848  20863201.356    20863207.4874
  21030744.738   -15507050.184 9 -11853780.94347  21030744.429    21030749.7834
  24205583.106    -6589738.363 7  -4889033.70445  24205582.964    24205591.4944
 01  7 19 16 53  0.0010000  0  9 26 22 21 17 06 15 23 18 03
  22326126.678    -9083303.673 8  -7067071.45346  22326126.834    22326133.7874
  23237861.518    -4385202.245 8  -3406827.54946  23237860.784    23237868.6384
  23761860.923    -9679488.962 8  -7529470.56646  23761860.456    23761869.8864
  20667871.346    -5307413.475 9  -4131146.30148  20667870.961    20667877.2434
  21970276.139     5820419.601 8   4415674.28147  21970276.064    21970283.0664
  20755712.435   -10259181.064 9  -7984924.46648  20755711.890    20755718.3594
  20862600.509    -8636689.311 9  -6720001.59848  20862600.012    20862606.1394
  21021207.303   -15557169.679 9 -11892835.06247  21021207.001    21021212.3074
  24186705.517    -6688939.457 7  -4966333.16845  24186705.362    24186714.0414
 01  7 19 16 53 30.0010000  0  9 26 22 21 17 06 15 23 18 03
  22326773.164    -9079906.478 8  -7064424.27546  22326773.337    22326780.2624
  23243478.164    -4355687.006 8  -3383828.73746  23243477.405    23243485.1264
  23745307.315    -9766477.289 8  -7597253.58846  23745306.976    23745316.4494
  20667950.343    -5306997.951 9  -4130822.53048  20667949.966    20667956.3444
  21985302.761     5899385.144 8   4477205.79747  21985302.672    21985309.7704
  20750250.913   -10287881.328 9  -8007288.29848  20750250.381    20750256.8534
  20862086.034    -8639392.694 9  -6722108.12848  20862085.549    20862091.7274
  21011758.330   -15606824.376 9 -11931527.00948  21011758.013    21011763.2854
  24167857.796    -6787985.102 7  -5043511.54045  24167857.331    24167866.0004
 01  7 19 16 54  0.0010000  0  9 26 22 21 17 06 15 23 18 03
  22327542.560    -9075863.423 8  -7061273.81946  22327542.654    22327549.6154
  23249191.737    -4325662.428 8  -3360433.04146  23249190.980    23249198.6044
  23728793.884    -9853255.227 8  -7664872.68046  23728793.677    23728803.0654
  20668081.922    -5306306.692 9  -4130283.89748  20668081.565    20668087.9164
  22000400.286     5978722.874 8   4539027.32547  22000400.220    22000407.3554
  20744844.821   -10316290.266 9  -8029425.12147  20744844.303    20744850.7764
  20861658.455    -8641639.350 9  -6723858.76348  20861658.005    20861664.2154
  21002398.149   -15656012.434 9 -11969855.34148  21002397.882    21002403.0764
  24149040.204    -6886872.099 7  -5120566.29645  24149039.748    24149048.2994
 01  7 19 16 54 30.0010000  0  9 26 22 21 17 06 15 23 18 03
  22328434.799    -9071174.105 8  -7057619.78146  22328434.956    22328441.8574
  23255001.932    -4295129.884 8  -3336641.50746  23255001.168    23255008.8504
  23712320.927    -9939821.034 8  -7732326.45746  23712320.643    23712330.0664
  20668266.001    -5305339.654 9  -4129530.37048  20668265.617    20668271.9414
  22015568.496     6058431.526 9   4601137.88547  22015568.379    22015575.4294
  20739494.308   -10344407.727 9  -8051334.82448  20739493.747    20739500.2224
  20861317.692    -8643429.986 9  -6725254.06448  20861317.231    20861323.4114
  20993126.862   -15704733.687 9 -12007819.93148  20993126.561    20993131.6564
  24130253.176    -6985598.116 8  -5197495.59045  24130252.664    24130261.2054
 01  7 19 16 55  0.0010000  0  9 26 22 21 17 06 15 23 18 03
  22329450.126    -9065838.732 8  -7053462.32446  22329450.244    22329457.0684
  23260908.430    -4264091.675 8  -3312455.96646  23260907.538    23260915.3744
  23695888.504   -10026173.580 8  -7799614.06246  23695888.158    23695897.6654
  20668502.533    -5304096.932 9  -4128562.02748  20668502.134    20668508.4454
  22030806.880     6138509.109 8   4663535.93047  22030806.750    22030813.7754
  20734199.160   -10372233.808 9  -8073017.47548  20734198.613    20734205.0834
  20861063.485    -8644765.795 9  -6726294.95248  20861063.037    20861069.2254
  20983944.482   -15752987.455 9 -12045420.25048  20983944.158    20983949.2924
  24111497.371    -7084161.230 8  -5274297.96245  24111496.848    24111505.3034
 01  7 19 16 55 30.0010000  0  9 26 22 21 17 06 15 23 18 03
  22330588.394    -9059857.350 8  -7048801.49346  22330588.505    22330595.3184
  23266910.681    -4232550.151 8  -3287878.23646  23266909.733    23266917.6324
  23679496.771   -10112312.470 8  -7866735.17546  23679496.406    23679505.9564
  20668791.415    -5302578.599 9  -4127378.92347  20668790.994    20668797.3424
  22046115.175     6218954.153 8   4726220.29647  22046114.992    22046122.0344
  20728959.534   -10399768.122 9  -8094472.77748  20728959.010    20728965.5054
  20860895.585    -8645647.867 9  -6726982.27548  20860895.133    20860901.3784
  20974851.033   -15800773.250 9 -12082655.91048  20974850.763    20974855.9794
  24092772.853    -7182559.308 8  -5350971.70745  24092772.371    24092780.7194
 01  7 19 16 56  0.0010000  0  9 26 22 21 17 06 15 23 18 03
  22331849.645    -9053229.596 8  -7043636.98046  22331849.722    22331856.4754
  23273008.446    -4200506.738 8  -3262909.41046  23273007.532    23273015.4664
  23663145.667   -10198236.503 8  -7933688.87746  23663145.416    23663154.9764
  20669132.904    -5300784.431 9  -4125980.88247  20669132.467    20669138.8054
  22061493.062     6299765.254 8   4789189.90947  22061492.866    22061499.9444
  20723775.565   -10427010.245 9  -8115700.39448  20723775.009    20723781.4964
  20860813.940    -8646076.889 9  -6727316.57748  20860813.509    20860819.7554
  20965846.884   -15848090.526 9 -12119526.49348  20965846.597    20965851.8304
  24074080.152    -7280790.069 8  -5427515.09245  24074079.731    24074087.9164
 01  7 19 16 56 30.0010000  0  9 26 22 21 17 06 15 23 18 03
  22333233.850    -9045955.084 8  -7037968.51646  22333233.934    22333240.7324
  23279201.568    -4167962.137 8  -3237550.05846  23279200.625    23279208.5354
  23646836.056   -10283943.636 8  -8000473.57046  23646835.836    23646845.3014
  20669526.962    -5298713.481 9  -4124367.16847  20669526.525    20669532.9254
  22076940.321     6380941.630 8   4852444.15447  22076940.292    22076947.4054
  20718647.346   -10453959.251 9  -8136699.61148  20718646.789    20718653.2974
  20860818.508    -8646053.221 9  -6727298.13048  20860818.066    20860824.2984
  20956932.025   -15894938.009 9 -12156031.00148  20956931.768    20956937.0084
  24055419.986    -7378850.810 8  -5503925.99245  24055419.490    24055427.6014
 01  7 19 16 57  0.0010000  0  9 26 22 21 17 06 15 23 18 03
  22334741.048    -9038034.419 8  -7031796.54146  22334741.180    22334747.9944
  23285489.554    -4134918.858 8  -3211802.10646  23285488.641    23285496.5804
  23630567.977   -10369433.572 8  -8067088.98646  23630567.638    23630577.1294
  20669973.544    -5296366.592 9  -4122538.43147  20669973.115    20669979.5334
  22092456.798     6462481.001 8   4915981.24247  22092456.760    22092463.8474
  20713574.801   -10480615.580 9  -8157470.77048  20713574.271    20713580.7684
  20860908.855    -8645578.451 9  -6726928.17448  20860908.413    20860914.6414
  20948106.543   -15941315.798 9 -12192169.52048  20948106.318    20948111.5894
  24036792.594    -7476739.851 8  -5580203.11145  24036791.875    24036799.9304
 01  7 19 16 57 30.0010000  0  9 26 22 21 17 06 15 23 18 03
  22336371.395    -9029467.141 8  -7025120.72046  22336371.402    22336378.2624
  23291872.045    -4101378.709 8  -3185667.00146  23291871.143    23291879.2064
  23614341.313   -10454705.001 8  -8133534.16846  23614340.992    23614350.3634
  20670472.745    -5293743.123 9  -4120494.17847  20670472.340    20670478.7524
  22108042.142     6544382.151 8   4979800.24147  22108042.081    22108049.1704
  20708558.168   -10506978.495 9  -8178013.29148  20708557.564    20708564.0554
  20861084.983    -8644653.260 9  -6726207.24048  20861084.522    20861090.6994
  20939370.663   -15987222.901 9 -12227941.26848  20939370.446    20939375.7444
  24018197.947    -7574454.451 8  -5656344.28745  24018197.298    24018205.3334
 01  7 19 16 58  0.0010000  0  9 26 22 21 17 06 15 23 18 03
  22338124.635    -9020253.148 8  -7017940.96946  22338124.718    22338131.6204
  23298348.812    -4067343.576 8  -3159146.17146  23298347.810    23298356.0044
  23598156.348   -10539756.406 8  -8199807.89446  23598156.107    23598165.5344
  20671024.721    -5290842.575 9  -4118234.02447  20671024.308    20671030.7034
  22123696.071     6626643.882 8   5043900.20547  22123696.024    22123703.1004
  20703597.403   -10533047.395 9  -8198326.71248  20703596.808    20703603.3534
  20861346.617    -8643278.294 9  -6725135.83248  20861346.161    20861352.3414
  20930724.517   -16032658.486 9 -12263345.59248  20930724.321    20930729.6514
  23999637.075    -7671991.938 8  -5732347.46845  23999636.477    23999644.4284
 01  7 19 16 58 30.0010000  0  9 26 22 21 17 06 15 23 18 03
  22340001.109    -9010392.382 8  -7010257.23846  22340001.139    22340008.0634
  23304919.455    -4032814.824 8  -3132240.70346  23304918.550    23304926.7024
  23582013.644   -10624586.777 8  -8265909.38346  23582013.412    23582022.7834
  20671629.403    -5287664.855 9  -4115757.88247  20671628.989    20671635.4014
  22139418.234     6709264.512 8   5108279.84347  22139418.259    22139425.3744
  20698692.655   -10558821.920 9  -8218410.74748  20698692.093    20698698.6024
  20861693.747    -8641454.329 9  -6723714.55048  20861693.260    20861699.4454
  20922168.201   -16077622.347 9 -12298382.33848  20922167.964    20922173.2794
  23981110.434    -7769349.929 8  -5808210.78045  23981109.993    23981117.8174
 01  7 19 16 59  0.0010000  0  9 26 22 21 17 06 15 23 18 03
  22342000.543    -8999885.822 8  -7002070.29646  22342000.555    22342007.3794
  23311583.693    -3997794.858 8  -3104952.49746  23311582.677    23311590.7184
  23565913.018   -10709195.935 8  -8331838.48846  23565912.748    23565922.0674
  20672286.746    -5284210.640 9  -4113066.29947  20672286.344    20672292.7554
  22155208.352     6792241.800 8   5172937.37947  22155208.338    22155215.5184
  20693843.860   -10584302.601 9  -8238265.81648  20693843.291    20693849.7734
  20862125.920    -8639183.213 9  -6721944.84448  20862125.421    20862131.6164
  20913701.618   -16122114.569 9 -12333051.58148  20913701.356    20913706.6694
  23962618.192    -7866527.036 8  -5883933.15245  23962617.735    23962625.5894
 01  7 19 16 59 30.0010000  0  9 26 22 21 17 06 15 23 18 03
  22344122.844    -8988732.979 8  -6993379.75046  22344122.806    22344129.6644
  23318340.797    -3962285.154 8  -3077282.67646  23318339.899    23318348.0034
  23549854.658   -10793582.679 8  -8397594.31546  23549854.485    23549863.7494
  20672996.825    -5280479.338 9  -4110158.79747  20672996.412    20673002.8184
  22171066.064     6875574.685 8   5237872.00947  22171066.070    22171073.3414
  20689051.065   -10609488.478 9  -8257891.16948  20689050.548    20689057.0544
  20862643.028    -8636465.417 9  -6719827.07048  20862642.573    20862648.7734
  20905324.910   -16166134.144 9 -12367352.52048  20905324.685    20905330.0174
  23944160.739    -7963520.422 8  -5959512.37345  23944160.373    23944168.3904
 01  7 19 17  0  0.0010000  0  9 26 22 21 17 06 15 23 18 03
  22346368.000    -8976933.826 8  -6984185.58346  22346368.052    22346374.9954
  23325190.952    -3926287.774 8  -3049232.81446  23325190.066    23325198.1294
  23533839.055   -10877745.311 8  -8463175.47746  23533838.793    23533848.0994
  20673759.729    -5276470.232 9  -4107034.83147  20673759.324    20673765.7674
  22186991.239     6959261.697 8   5303082.58247  22186991.235    22186998.5124
  20684314.600   -10634378.730 9  -8277286.16848  20684314.057    20684320.5534
  20863245.080    -8633301.607 9  -6717361.75548  20863244.646    20863250.8154
  20897038.377   -16209680.304 9 -12401284.57448  20897038.132    20897043.4314
  23925738.785    -8060327.463 8  -6034946.38645  23925738.556    23925746.7084
 01  7 19 17  0 30.0010000  0  9 26 22 21 17 06 15 23 18 03
  22348736.261    -8964488.774 8  -6974488.13746  22348736.292    22348743.1894
  23332133.464    -3889805.058 8  -3020804.79746  23332132.621    23332140.5894
  23517866.158   -10961683.000 8  -8528581.38046  23517865.960    23517875.2494
  20674575.488    -5272183.876 9  -4103694.81948  20674575.040    20674581.4614
  22202983.500     7043300.981 8   5368567.66347  22202983.464    22202990.7214
  20679634.372   -10658973.409 9  -8296450.84848  20679633.837    20679640.3114
  20863931.810    -8629693.123 9  -6714549.93948  20863931.331    20863937.4824
  20888841.870   -16252752.962 9 -12434847.66248  20888841.636    20888846.9244
  23907352.813    -8156946.210 8  -6110233.68645  23907352.555    23907360.7164
 01  7 19 17  1  0.0010000  0  9 26 22 21 17 06 15 23 18 03
  22351227.455    -8951398.010 8  -6964287.52646  22351227.447    22351234.2604
  23339167.849    -3852838.379 8  -2991999.65146  23339167.111    23339175.1584
  23501936.231   -11045395.241 8  -8593811.59246  23501935.958    23501945.2134
  20675444.002    -5267619.784 9  -4100138.39547  20675443.568    20675449.9824
  22219042.432     7127691.086 8   5434326.11147  22219042.427    22219049.7554
  20675010.433   -10683272.239 9  -8315384.99648  20675009.918    20675016.3974
  20864702.874    -8625640.999 9  -6711392.43448  20864702.407    20864708.5304
  20880735.596   -16295351.545 9 -12468041.34448  20880735.388    20880740.6384
  23889003.027    -8253374.171 8  -6185372.29345  23889002.907    23889011.1244
 01  7 19 17  1 30.0010000  0  9 26 22 21 17 06 15 23 18 03
  22353841.254    -8937662.193 8  -6953584.27546  22353841.278    22353848.0554
  23346294.005    -3815389.839 8  -2962819.04746  23346293.238    23346301.4444
  23486049.489   -11128881.010 8  -8658865.35946  23486049.206    23486058.3484
  20676365.372    -5262778.254 9  -4096365.78547  20676364.950    20676371.3194
  22235167.785     7212429.978 8   5500356.33647  22235167.783    22235175.1434
  20670442.875   -10707275.330 9  -8334088.69548  20670442.290    20670448.7804
  20865558.152    -8621146.512 9  -6707890.22348  20865557.675    20865563.8084
  20872719.652   -16337475.880 9 -12500865.47948  20872719.407    20872724.6114
  23870690.159    -8349609.338 8  -6260360.68245  23870689.896    23870698.1594
 01  7 19 17  2  0.0010000  0  9 26 22 21 17 06 15 23 18 03
  22356577.855    -8923280.924 8  -6942378.07546  22356577.933    22356584.7544
  23353511.582    -3777461.066 8  -2933264.24946  23353510.990    23353519.1334
  23470206.182   -11212138.695 8  -8723741.37946  23470205.725    23470214.9164
  20677339.694    -5257658.438 9  -4092376.33348  20677339.246    20677345.5684
  22251359.409     7297516.862 8   5566657.72647  22251359.384    22251366.7174
  20665931.698   -10730981.540 9  -8352561.06148  20665931.134    20665937.6324
  20866497.487    -8616209.924 9  -6704043.52248  20866497.045    20866503.1524
  20864794.082   -16379125.113 9 -12533319.39948  20864793.804    20864798.9964
  23852414.329    -8445648.705 8  -6335196.47945  23852414.167    23852422.4744
 01  7 19 17  2 30.0010000  0  9 26 22 21 17 06 15 23 18 03
  22359437.246    -8908255.011 8  -6930669.57346  22359437.234    22359444.0624
  23360820.095    -3739055.191 8  -2903337.64146  23360819.451    23360827.5514
  23454406.067   -11295167.555 8  -8788439.09146  23454405.663    23454415.0264
  20678366.875    -5252260.730 9  -4088170.34047  20678366.415    20678372.7354
  22267616.714     7382949.505 8   5633228.53047  22267616.670    22267624.1434
  20661476.966   -10754391.260 9  -8370802.40048  20661476.437    20661482.9324
  20867520.707    -8610833.124 9  -6699853.80148  20867520.236    20867526.3804
  20856958.883   -16420299.357 9 -12565403.20948  20856958.628    20856963.7804
  23834176.277    -8541490.659 8  -6409878.47145  23834176.093    23834184.2284
 01  7 19 17  3  0.0010000  0  9 26 22 21 17 06 15 23 18 03
  22362419.162    -8892584.386 8  -6918458.69846  22362419.200    22362426.0794
  23368219.010    -3700173.450 8  -2873040.26646  23368218.429    23368226.5414
  23438649.789   -11377966.804 8  -8852957.89146  23438649.401    23438658.7784
  20679446.931    -5246584.514 9  -4083747.32047  20679446.517    20679452.8494
  22283939.586     7468726.480 8   5700067.64347  22283939.559    22283947.1374
  20657078.855   -10777503.635 9  -8388812.03548  20657078.302    20657084.7844
  20868627.470    -8605016.743 9  -6695321.54948  20868627.050    20868633.2094
  20849214.178   -16460997.851 9 -12597116.29648  20849213.930    20849219.1114
  23815976.350    -8637132.476 8  -6484404.52545  23815976.154    23815984.1124
 01  7 19 17  3 30.0010000  0  9 26 22 21 17 06 15 23 18 03
  22365523.725    -8876269.228 8  -6905745.59346  22365523.850    22365530.8354
  23375708.225    -3660817.146 8  -2842373.09246  23375707.674    23375715.8724
  23422937.489   -11460534.683 8  -8917296.40146  23422937.188    23422946.5444
  20680580.092    -5240629.530 9  -4079107.08947  20680579.732    20680586.0594
  22300327.728     7554846.369 8   5767173.98047  22300327.714    22300335.3354
  20652737.482   -10800318.094 9  -8406589.52948  20652736.888    20652743.3394
  20869817.769    -8598761.523 9  -6690447.34548  20869817.376    20869823.5034
  20841560.149   -16501219.858 9 -12628458.09548  20841559.918    20841565.1494
  23797814.809    -8732571.410 8  -6558772.45845  23797814.656    23797822.6994
 01  7 19 17  4  0.0010000  0  9 26 22 21 17 06 15 23 18 03
  22368750.788    -8859310.411 8  -6892530.93346  22368750.896    22368757.9954
  23383287.486    -3620988.965 8  -2811338.21046  23383286.837    23383295.0854
  23407269.399   -11542870.543 8  -8981454.12546  23407269.125    23407278.3894
  20681766.349    -5234395.932 9  -4074249.74647  20681765.981    20681772.2844
  22316780.817     7641307.145 8   5834545.93147  22316780.754    22316788.3634
  20648452.878   -10822834.466 9  -8424134.74248  20648452.224    20648458.6064
  20871091.348    -8592069.023 9  -6685232.40348  20871090.954    20871097.0614
  20833996.761   -16540965.572 9 -12659428.76448  20833996.534    20834001.7424
  23779692.244    -8827805.609 8  -6632980.86645  23779692.141    23779700.0444
 01  7 19 17  4 30.0010000  0  9 26 22 21 17 06 15 23 18 03
  22372100.352    -8841708.650 8  -6878815.27446  22372100.527    22372107.3644
  23390955.877    -3580691.692 8  -2779937.80746  23390955.228    23390963.6264
  23391645.485   -11624974.125 8  -9045430.86146  23391645.291    23391654.4584
  20683005.502    -5227884.066 9  -4069175.57547  20683005.143    20683011.4744
  22333298.236     7728106.804 8   5902181.95346  22333298.239    22333305.7884
  20644224.737   -10845052.808 9  -8441447.72748  20644224.131    20644230.5494
  20872447.870    -8584940.682 9  -6679677.84648  20872447.435    20872453.5264
  20826523.989   -16580235.230 9 -12690028.47748  20826523.768    20826528.9504
  23761609.153    -8922833.004 8  -6707028.14545  23761608.941    23761616.7314
 01  7 19 17  5  0.0010000  0  9 26 22 21 17 06 15 23 18 03
  22375572.335    -8823463.916 8  -6864598.60646  22375572.444    22375579.1364
  23398713.101    -3539927.061 8  -2748173.24046  23398712.498    23398720.9754
  23376066.221   -11706844.060 8  -9109225.50746  23376065.927    23376075.1254
  20684297.860    -5221093.115 9  -4063883.93047  20684297.479    20684303.8074
  22349880.050     7815244.248 8   5970081.18146  22349880.010    22349887.5744
  20640053.580   -10866972.376 9  -8458527.90148  20640052.999    20640059.3844
  20873887.176    -8577376.972 9  -6673784.03948  20873886.769    20873892.8474
  20819142.076   -16619027.672 9 -12720256.33048  20819141.768    20819146.9644
  23743565.912    -9017650.563 8  -6780911.89645  23743565.682    23743573.4754
 01  7 19 17  5 30.0010000  0  9 26 22 21 17 06 15 23 18 03
  22379166.464    -8804576.793 8  -6849881.37846  22379166.515    22379173.3394
  23406559.055    -3498696.713 8  -2716045.77046  23406558.337    23406566.9634
  23360531.373   -11788479.432 8  -9172837.40446  23360531.121    23360540.3114
  20685643.319    -5214023.009 9  -4058374.76347  20685642.877    20685649.1924
  22366525.731     7902717.493 8   6038242.07746  22366525.646    22366533.2254
  20635939.277   -10888593.171 9  -8475375.26648  20635938.657    20635945.0594
  20875409.113    -8569379.262 9  -6667552.05548  20875408.665    20875414.7504
  20811850.891   -16657342.780 9 -12750112.23848  20811850.596    20811855.8044
  23725563.003    -9112255.977 8  -6854630.37445  23725562.835    23725570.3814
 01  7 19 17  6  0.0010000  0  9 26 22 21 17 06 15 23 18 03
  22382882.764    -8785047.587 8  -6834663.81646  22382882.882    22382889.6164
  23414493.317    -3457002.407 8  -2683556.76046  23414492.594    23414501.1774
  23345041.282   -11869879.368 8  -9236265.82746  23345041.095    23345050.3644
  20687041.827    -5206673.521 9  -4052647.89447  20687041.419    20687047.7834
  22383235.169     7990525.157 8   6106663.53946  22383234.998    22383242.6294
  20631881.861   -10909914.678 9  -8491989.41948  20631881.266    20631887.6974
  20877013.414    -8560948.475 9  -6660982.60648  20877012.995    20877019.0774
  20804650.562   -16695180.249 9 -12779595.95948  20804650.320    20804655.5474
  23707600.947    -9206647.016 8  -6928181.80045  23707600.749    23707608.2904
 01  7 19 17  6 30.0010000  0  9 26 22 21 17 06 15 23 18 03
  22386721.056    -8764877.352 8  -6818946.77646  22386721.225    22386727.8524
  23422515.395    -3414847.232 8  -2650708.66046  23422514.601    23422523.1154
  23329596.303   -11951042.801 8  -9299509.97446  23329596.137    23329605.4114
  20688493.400    -5199045.008 9  -4046703.59947  20688493.084    20688499.4534
  22400007.729     8078665.004 8   6175343.85546  22400007.567    22400015.1964
  20627881.440   -10930936.723 9  -8508370.22648  20627880.865    20627887.3324
  20878699.795    -8552086.407 9  -6654077.09548  20878699.357    20878705.4914
  20797541.237   -16732540.280 9 -12808707.64948  20797540.972    20797546.1944
  23689680.139    -9300821.865 8  -7001564.75245  23689679.906    23689687.3694
 01  7 19 17  7  0.0010000  0  9 26 22 21 17 06 15 23 18 03
  22390681.283    -8744066.352 8  -6802730.41946  22390681.474    22390688.0894
  23430624.671    -3372233.377 8  -2617503.13746  23430623.827    23430632.3654
  23314196.599   -12031968.879 8  -9362569.16846  23314196.397    23314205.5324
  20689998.241    -5191136.934 9  -4040541.46447  20689997.883    20690004.2744
  22416843.214     8167135.400 8   6244281.73646  22416842.982    22416850.6574
  20623938.090   -10951658.768 9  -8524517.27148  20623937.535    20623944.0414
  20880468.081    -8542793.838 9  -6646836.13248  20880467.653    20880473.8304
  20790522.835   -16769422.121 9 -12837446.72448  20790522.621    20790527.7904
  23671800.859    -9394777.701 8  -7074777.04845  23671800.653    23671808.1354
 01  7 19 17  7 30.0010000  0  9 26 22 21 17 06 15 23 18 03
  22394763.315    -8722614.909 8  -6786015.03046  22394763.488    22394770.1934
  23438820.827    -3329162.268 8  -2583941.31746  23438820.002    23438828.5754
  23298842.316   -12112656.456 8  -9425442.51246  23298842.047    23298851.0994
  20691556.359    -5182948.653 9  -4034160.99247  20691556.014    20691562.4684
  22433741.273     8255935.127 8   6313476.24346  22433741.084    22433748.7224
  20620051.994   -10972080.058 9  -8540429.95648  20620051.465    20620058.0484
  20882318.177    -8533071.547 9  -6639260.31748  20882317.722    20882323.9254
  20783595.530   -16805825.284 9 -12865812.80648  20783595.336    20783600.4874
  23653963.769    -9488511.830 8  -7147816.57645  23653963.572    23653971.1134
 01  7 19 17  8  0.0010000  0  9 26 22 21 17 06 15 23 18 03
  22398967.191    -8700523.421 8  -6768800.90246  22398967.387    22398974.0944
  23447103.789    -3285635.688 8  -2550024.57346  23447102.978    23447111.5344
  23283533.530   -12193104.783 8  -9488129.44146  23283533.185    23283542.1404
  20693167.939    -5174480.054 9  -4027562.08847  20693167.578    20693174.0744
  22450701.608     8345062.470 8   6382926.02746  22450701.532    22450709.1604
  20616223.292   -10992200.336 9  -8556108.08048  20616222.716    20616229.2744
  20884249.782    -8522920.696 9  -6631350.56148  20884249.335    20884255.5784
  20776759.320   -16841749.688 9 -12893805.82348  20776759.109    20776764.2824
  23636169.548    -9582021.855 8  -7220681.47446  23636169.231    23636176.7034
 01  7 19 17  8 30.0010000  0  9 26 22 21 17 06 15 23 18 03
  22403292.659    -8677793.275 8  -6751089.08946  22403292.783    22403299.4964
  23455472.991    -3241656.470 8  -2515755.12146  23455472.075    23455480.5754
  23268270.411   -12273313.191 8  -9550629.42046  23268269.992    23268278.9184
  20694832.713    -5165731.679 9  -4020745.17947  20694832.336    20694838.8254
  22467724.014     8434514.980 8   6452629.18546  22467723.868    22467731.5204
  20612451.720   -11012019.737 9  -8571551.76548  20612451.197    20612457.7734
  20886262.636    -8512343.096 9  -6623108.27648  20886262.212    20886268.4234
  20770014.199   -16877195.624 9 -12921426.01348  20770013.968    20770019.1154
  23618418.191    -9675306.006 8  -7293370.36745  23618417.820    23618425.3464
 01  7 19 17  9  0.0010000  0  9 26 22 21 17 06 15 23 18 03
  22407739.470    -8654424.351 8  -6732879.54246  22407739.705    22407746.4584
  23463927.758    -3197226.667 8  -2481134.55546  23463926.861    23463935.3734
  23253053.174   -12353279.891 8  -9612941.06246  23253052.856    23253061.6614
  20696550.986    -5156702.467 9  -4013709.42847  20696550.556    20696557.0484
  22484808.001     8524291.705 8   6522584.99246  22484807.871    22484815.5484
  20608737.744   -11031537.179 9  -8586760.15048  20608737.208    20608743.7234
  20888356.650    -8501339.174 9  -6614533.78948  20888356.182    20888362.4064
  20763360.368   -16912162.313 9 -12948672.76548  20763360.095    20763365.1714
  23600710.464    -9768360.921 8  -7365880.60645  23600709.989    23600717.4844
 01  7 19 17  9 30.0010000  0  9 26 22 21 17 06 15 23 18 03
  22412307.619    -8630417.687 8  -6714173.04846  22412307.912    22412314.7754
  23472467.911    -3152348.661 8  -2446164.71746  23472466.850    23472475.5574
  23237881.991   -12433004.658 8  -9675064.15846  23237881.620    23237890.4644
  20698322.608    -5147392.333 9  -4006454.77747  20698322.200    20698328.6774
  22501953.386     8614390.693 8   6592791.90646  22501953.242    22501960.8824
  20605081.210   -11050752.297 9  -8601732.96348  20605080.660    20605087.1784
  20890531.446    -8489910.253 9  -6605628.13548  20890531.026    20890537.2384
  20756797.618   -16946649.666 9 -12975546.00648  20756797.358    20756802.4074
  23583046.875    -9861184.308 8  -7438210.48245  23583046.367    23583053.7024
 01  7 19 17 10  0.0010000  0  9 26 22 21 17 06 15 23 18 03
  22416997.384    -8605774.073 8  -6694970.23746  22416997.555    22417004.3564
  23481092.778    -3107024.542 8  -2410847.27546  23481091.748    23481100.5674
  23222756.943   -12512486.382 8  -9736997.90146  23222756.641    23222765.4844
  20700147.669    -5137801.570 9  -3998981.44847  20700147.296    20700153.7684
  22519159.513     8704809.944 8   6663248.37046  22519159.450    22519167.1564
  20601482.230   -11069665.143 9  -8616470.23748  20601481.691    20601488.1674
  20892786.918    -8478057.735 9  -6596392.40748  20892786.495    20892792.6904
  20750326.134   -16980657.413 9 -13002045.53248  20750325.868    20750330.9534
  23565427.466    -9953774.159 8  -7510358.34446  23565427.184    23565434.5074
 01  7 19 17 10 30.0010000  0  9 26 22 21 17 06 15 23 18 03
  22421808.104    -8580494.110 8  -6675271.57246  22421808.235    22421815.0664
  23489802.129    -3061255.908 8  -2375183.46746  23489801.179    23489810.0464
  23207678.334   -12591724.425 8  -9798741.75246  23207678.029    23207686.8954
  20702026.300    -5127929.410 9  -3991288.85947  20702025.906    20702032.3154
  22536426.497     8795547.959 8   6733953.22346  22536426.376    22536434.1224
  20597940.949   -11088275.037 9  -8630971.44648  20597940.343    20597946.8124
  20895122.776    -8465782.677 9  -6586827.42848  20895122.368    20895128.5684
  20743945.937   -17014185.433 9 -13028171.24048  20743945.675    20743950.7914
  23547852.981   -10046127.694 8  -7582322.06046  23547852.791    23547860.2514
 01  7 19 17 11  0.0010000  0  9 26 22 21 17 06 15 23 18 03
  22426739.685    -8554578.564 8  -6655077.63446  22426739.771    22426746.6874
  23498595.696    -3015045.496 8  -2339175.40146  23498594.851    23498603.5564
  23192646.347   -12670717.715 8  -9860294.88246  23192646.036    23192654.9524
  20703958.511    -5117775.931 9  -3983377.05847  20703958.088    20703964.4624
  22553753.688     8886602.811 8   6804904.95246  22553753.591    22553761.4434
  20594457.318   -11106581.677 9  -8645236.35248  20594456.744    20594463.1764
  20897538.786    -8453086.243 9  -6576934.10348  20897538.405    20897544.6444
  20737657.015   -17047233.712 9 -13053923.12848  20737656.769    20737661.8784
  23530323.730   -10138242.704 8  -7654099.92346  23530323.736    23530331.3494
 01  7 19 17 11 30.0010000  0  9 26 22 21 17 06 15 23 18 03
  22431791.985    -8528028.180 8  -6634389.02646  22431792.143    22431799.0724
  23507472.921    -2968395.870 8  -2302825.10046  23507472.035    23507480.6974
  23177661.089   -12749465.027 8  -9921656.35346  23177660.809    23177669.7774
  20705944.271    -5107340.817 9  -3975245.80647  20705943.843    20705950.1904
  22571140.797     8977973.056 8   6876102.44746  22571140.804    22571148.6624
  20591031.426   -11124584.622 9  -8659264.61748  20591030.866    20591037.3454
  20900034.829    -8439969.655 9  -6566713.38448  20900034.397    20900040.6624
  20731459.485   -17079801.951 9 -13079300.95648  20731459.220    20731464.3454
  23512840.815   -10230116.637 8  -7725689.95646  23512840.759    23512848.3344
 01  7 19 17 12  0.0010000  0  9 26 22 21 17 06 15 23 18 03
  22436964.757    -8500844.037 8  -6613206.57946  22436965.052    22436972.0264
  23516433.081    -2921309.403 8  -2266134.39346  23516432.253    23516440.9854
  23162722.783   -12827965.805 8  -9982825.71646  23162722.551    23162731.5244
  20707983.571    -5096624.075 9  -3966895.09647  20707983.152    20707989.5084
  22588587.700     9069656.342 8   6947543.85946  22588587.606    22588595.4504
  20587663.451   -11142283.729 9  -8673056.12548  20587662.878    20587669.3554
  20902610.470    -8426434.420 9  -6556166.44748  20902610.034    20902616.3654
  20725353.257   -17111890.367 9 -13104304.89848  20725352.967    20725358.0834
  23495404.007   -10321747.058 8  -7797090.25246  23495403.921    23495411.5464
 01  7 19 17 12 30.0010000  0  9 26 22 21 17 06 15 23 18 03
  22442258.284    -8473027.109 8  -6591531.06146  22442258.478    22442265.4104
  23525476.128    -2873787.970 8  -2229104.75146  23525475.272    23525483.9194
  23147831.523   -12906219.643 8 -10043802.66246  23147831.320    23147840.3234
  20710076.565    -5085625.697 9  -3958324.93547  20710076.113    20710082.4544
  22606093.730     9161650.855 8   7019227.80646  22606093.647    22606101.4524
  20584353.218   -11159678.747 9  -8686610.68148  20584352.649    20584359.1364
  20905265.555    -8412482.008 9  -6545294.43548  20905265.106    20905271.4184
  20719338.365   -17143498.843 9 -13128934.85248  20719338.081    20719343.1764
  23478014.125   -10413132.110 8  -7868299.32146  23478013.939    23478021.5924
 01  7 19 17 13  0.0010000  0  9 26 22 21 17 06 15 23 18 03
  22447671.837    -8444578.570 8  -6569363.38246  22447672.030    22447678.9774
  23534601.520    -2825834.276 8  -2191738.30446  23534600.655    23534609.2074
  23132987.430   -12984225.911 8 -10104586.69246  23132987.156    23132996.1674
  20712223.051    -5074345.669 9  -3949535.30847  20712222.597    20712228.9934
  22623658.519     9253954.486 8   7091152.61046  22623658.537    22623666.3884
  20581100.863   -11176769.591 9  -8699928.21648  20581100.371    20581106.8524
  20907999.699    -8398113.905 9  -6534098.50748  20907999.253    20908005.5234
  20713414.793   -17174627.683 9 -13153191.07048  20713414.491    20713419.5334
  23460671.228   -10504269.370 8  -7939315.32446  23460671.086    23460678.8234
 01  7 19 17 13 30.0010000  0  9 26 22 21 17 06 15 23 18 03
  22453205.570    -8415498.554 8  -6546703.62846  22453205.749    22453212.7394
  23543808.743    -2777450.308 8  -2154036.55846  23543807.871    23543816.4204
  23118190.828   -13061982.831 8 -10165176.40646  23118190.520    23118199.4924
  20714423.259    -5062783.139 9  -3940525.54147  20714422.883    20714429.2754
  22641281.933     9346566.120 8   7163317.42446  22641282.036    22641289.9794
  20577906.646   -11193555.420 9  -8713008.07548  20577906.122    20577912.5624
  20910812.847    -8383330.664 9  -6522579.09448  20910812.396    20910818.6604
  20707582.544   -17205276.178 9 -13177072.99348  20707582.229    20707587.2874
  23443375.896   -10595155.639 8  -8010135.74046  23443375.839    23443383.7034
 01  7 19 17 14  0.0010000  0  9 26 22 21 17 06 15 23 18 03
  22458859.171    -8385788.817 8  -6523553.16846  22458859.326    22458866.3124
  23553097.217    -2728639.317 8  -2116002.09146  23553096.370    23553104.9484
  23103441.506   -13139490.330 8 -10225571.78446  23103441.241    23103450.1424
  20716677.250    -5050938.565 9  -3931296.01247  20716676.833    20716683.2344
  22658963.601     9439483.273 8   7235720.30346  22658963.696    22658971.6424
  20574770.471   -11210036.247 9  -8725850.27448  20574769.943    20574776.3574
  20913704.663    -8368134.069 9  -6510737.58548  20913704.214    20913710.4544
  20701841.518   -17235444.832 9 -13200581.01648  20701841.264    20701846.4244
  23426128.959   -10685789.181 8  -8080759.24746  23426128.878    23426136.5934
 01  7 19 17 14 30.0010000  0  9 26 22 21 17 06 15 23 18 03
  22464632.489    -8355450.128 8  -6499912.61646  22464632.559    22464639.4744
  23562466.714    -2679403.073 8  -2077636.25946  23562465.705    23562474.3944
  23088739.847   -13216747.623 8 -10285772.19246  23088739.628    23088748.4584
  20718984.924    -5038811.637 9  -3921846.46147  20718984.485    20718990.9424
  22676703.112     9532704.243 8   7308359.91646  22676703.105    22676711.1064
  20571692.407   -11226211.652 9  -8738454.48348  20571691.854    20571698.3104
  20916674.915    -8352525.413 9  -6498574.99548  20916674.468    20916680.6744
  20696191.887   -17265133.554 9 -13223715.06348  20696191.635    20696196.7934
  23408930.498   -10776167.571 8  -8151183.91046  23408930.345    23408938.1124
 01  7 19 17 15  0.0010000  0  9 26 22 21 17 06 15 23 18 03
  22470525.376    -8324483.393 8  -6475782.66546  22470525.429    22470532.1804
  23571916.591    -2629743.621 8  -2038940.64346  23571915.592    23571924.0664
  23074085.905   -13293753.955 8 -10345777.03146  23074085.723    23074094.5834
  20721346.400    -5026401.901 9  -3912176.54147  20721345.951    20721352.4374
  22694500.040     9626227.204 8   7381234.83846  22694499.974    22694508.0114
  20568672.498   -11242080.974 9  -8750820.19148  20568672.025    20568678.5114
  20919723.414    -8336505.745 9  -6486092.13148  20919722.937    20919729.1354
  20690633.621   -17294342.101 9 -13246474.94748  20690633.393    20690638.5474
  23391781.006   -10866288.329 8  -8221407.82646  23391780.927    23391788.6164
 01  7 19 17 15 30.0010000  0  9 26 22 21 17 06 15 23 18 03
  22476537.471    -8292889.410 8  -6451163.96346  22476537.517    22476544.3184
  23581446.564    -2579663.227 8  -1999917.02946  23581445.614    23581454.2144
  23059480.034   -13370508.348 8 -10405585.56246  23059479.814    23059488.5094
  20723761.749    -5013709.146 9  -3902286.08347  20723761.309    20723767.7934
  22712354.013     9720050.611 8   7454343.89046  22712354.044    22712362.0424
  20565711.097   -11257643.752 9  -8762947.02648  20565710.555    20565716.9694
  20922849.744    -8320076.344 9  -6473289.99848  20922849.303    20922855.5174
  20685166.890   -17323070.345 9 -13268860.56948  20685166.657    20685171.7554
  23374681.357   -10956148.663 8  -8291428.81946  23374681.185    23374688.5844
 01  7 19 17 16  0.0010000  0  9 26 22 21 17 06 15 23 18 03
  22482668.661    -8260669.207 8  -6426057.27646  22482668.812    22482675.6454
  23591056.230    -2529164.642 8  -1960567.53346  23591055.302    23591063.9584
  23044922.268   -13447009.443 8 -10465196.71446  23044922.073    23044930.6984
  20726231.072    -5000732.898 9  -3892174.71947  20726230.619    20726237.1114
  22730265.142     9814172.780 8   7527685.73446  22730265.055    22730272.9034
  20562807.994   -11272899.531 9  -8774834.64648  20562807.445    20562813.8574
  20926053.907    -8303238.339 9  -6460169.46948  20926053.485    20926059.7174
  20679791.556   -17351318.356 9 -13290871.98548  20679791.268    20679796.2934
  23357631.436   -11045745.823 8  -8361244.72446  23357631.389    23357638.8464
 01  7 19 17 16 30.0010000  0  9 26 22 21 17 06 15 23 18 03
  22488918.928    -8227823.727 8  -6400463.41046  22488919.105    22488926.0114
  23600744.715    -2478250.291 8  -1920894.07546  23600743.926    23600752.7484
  23030412.868   -13523256.696 8 -10524610.04646  23030412.627    23030421.1964
  20728754.377    -4987473.064 9  -3881842.38047  20728753.912    20728760.3804
  22748232.587     9908591.631 8   7601258.76846  22748232.506    22748240.2614
  20559963.370   -11287847.979 9  -8786482.77548  20559962.824    20559969.3124
  20929335.481    -8285993.332 9  -6446731.79548  20929335.063    20929341.3284
  20674507.560   -17379086.054 9 -13312509.13648  20674507.266    20674512.2324
  23340632.093   -11135077.501 8  -8430853.77646  23340632.147    23340639.5454
 01  7 19 17 17  0.0010000  0  9 26 22 21 17 06 15 23 18 03
  22495287.919    -8194354.451 8  -6374383.41346  22495288.036    22495295.0034
  23610512.062    -2426922.337 8  -1880898.33746  23610511.332    23610520.2074
  23015952.088   -13599249.229 8 -10583824.92046  23015951.818    23015960.2144
  20731331.550    -4973929.635 9  -3871289.05947  20731331.128    20731337.5744
  22766256.090    10003304.977 8   7675061.27646  22766255.988    22766263.6984
  20557177.329   -11302488.775 9  -8797891.18448  20557176.793    20557183.3004
  20932694.289    -8268342.814 9  -6432978.13848  20932693.848    20932700.1224
  20669314.869   -17406373.593 9 -13333772.12948  20669314.572    20669319.5514
  23323683.576   -11224141.632 8  -8500254.34446  23323683.760    23323691.1884
 01  7 19 17 17 30.0010000  0  9 26 22 21 17 06 15 23 18 03
  22501775.298    -8160262.622 8  -6347818.33246  22501775.436    22501782.4654
  23620357.931    -2375183.251 8  -1840582.20846  23620357.068    23620365.9494
  23001539.695   -13674986.823 8 -10642841.12446  23001539.346    23001547.7944
  20733962.768    -4960102.552 9  -3860514.71247  20733962.367    20733968.7914
  22784335.391    10098310.725 8   7749091.61546  22784335.153    22784342.8514
  20554449.899   -11316821.765 9  -8809059.74248  20554449.321    20554455.7974
  20936129.995    -8250288.161 9  -6418909.57148  20936129.549    20936135.7644
  20664213.471   -17433181.319 9 -13354661.24948  20664213.203    20664218.2124
  23306786.536   -11312935.690 8  -8569444.45046  23306786.717    23306794.2514
 01  7 19 17 18  0.0010000  0  9 26 22 21 17 06 15 23 18 03
  22508380.917    -8125549.349 8  -6320769.01146  22508381.102    22508388.0814
  23630281.071    -2323035.801 8  -1799947.88546  23630280.357    23630289.3604
  22987175.831   -13750468.375 8 -10701657.82046  22987175.570    22987184.0014
  20736648.012    -4945991.519 9  -3849519.09947  20736647.628    20736654.0434
  22802469.675    10193607.136 8   7823348.46346  22802469.519    22802477.2924
  20551781.086   -11330846.447 9  -8819988.05748  20551780.538    20551786.9904
  20939642.330    -8231830.645 9  -6404527.08748  20939641.888    20939648.0604
  20659203.386   -17459509.422 9 -13375176.63848  20659203.081    20659208.0944
  23289941.551   -11401457.293 8  -8638422.28046  23289941.560    23289949.0594
 01  7 19 17 18 30.0010000  0  9 26 22 21 17 06 15 23 18 03
  22515104.822    -8090215.529 8  -6293236.16046  22515104.957    22515111.8784
  23640281.910    -2270482.598 8  -1758997.40846  23640281.014    23640289.8254
  22972861.072   -13825693.014 8 -10760274.31046  22972860.799    22972869.1694
  20739387.361    -4931596.121 9  -3838301.90847  20739386.981    20739393.3774
  22820658.964    10289192.556 8   7897830.48446  22820658.777    22820666.7164
  20549171.009   -11344562.297 9  -8830675.72448  20549170.465    20549176.9004
  20943231.145    -8212971.454 9  -6389831.60648  20943230.693    20943236.8154
  20654284.593   -17485357.736 9 -13395318.16348  20654284.317    20654289.3174
  23273148.766   -11489703.718 8  -8707185.66846  23273148.764    23273156.1004
 01  7 19 17 19  0.0010000  0  9 26 22 21 17 06 15 23 18 03
  22521946.415    -8054262.720 8  -6265220.95246  22521946.571    22521953.4104
  23650359.204    -2217525.897 8  -1717732.49845  23650358.387    23650367.1824
  22958595.313   -13900660.115 8 -10818690.14146  22958595.026    22958603.2594
  20742180.925    -4916916.422 9  -3826863.17547  20742180.427    20742186.8494
  22838902.608    10385064.678 8   7972535.91846  22838902.627    22838910.7684
  20546619.822   -11357969.162 9  -8841122.62648  20546619.241    20546625.6104
  20946896.096    -8193712.175 9  -6374824.36948  20946895.616    20946901.7694
  20649457.098   -17510726.470 9 -13415085.99248  20649456.769    20649461.7474
  23256409.013   -11577672.712 8  -8775732.89846  23256408.863    23256416.0924
 01  7 19 17 19 30.0010000  0  9 26 22 21 17 06 15 23 18 03
  22528905.662    -8017691.549 8  -6236723.91446  22528905.863    22528912.6184
  23660512.969    -2164167.309 8  -1676154.42945  23660512.249    23660521.0154
  22944378.614   -13975368.652 8 -10876904.48146  22944378.357    22944386.5554
  20745028.575    -4901951.616 9  -3815202.29347  20745028.106    20745034.5514
  22857200.787    10481222.193 8   8047463.74546  22857200.869    22857209.0964
  20544127.587   -11371066.341 9  -8851328.21048  20544126.987    20544133.3024
  20950636.920    -8174053.723 9  -6359506.08948  20950636.436    20950642.6504
  20644720.832   -17535615.328 9 -13434479.88648  20644720.547    20644725.5094
  23239722.226   -11665361.518 8  -8844061.76946  23239722.156    23239729.5144
 01  7 19 17 20  0.0010000  0  9 26 22 21 17 06 15 23 18 03
  22535982.221    -7980504.147 8  -6207746.69546  22535982.414    22535989.0124
  23670742.548    -2110410.426 8  -1634266.04445  23670741.846    23670750.6454
  22930211.385   -14049818.593 8 -10934917.33246  22930210.995    22930219.1484
  20747930.340    -4886702.446 9  -3803319.82747  20747929.877    20747936.3494
  22875552.989    10577662.514 8   8122611.93746  22875552.904    22875561.2664
  20541694.152   -11383853.946 9  -8861292.56448  20541693.591    20541699.9264
  20954453.245    -8153998.385 9  -6343878.55048  20954452.814    20954459.0654
  20640075.826   -17560025.157 9 -13453500.51148  20640075.533    20640080.4894
  23223089.033   -11752768.236 8  -8912170.83046  23223089.031    23223096.5524
 01  7 19 17 20 30.0010000  0  9 26 22 21 17 06 15 23 18 03
  22543175.822    -7942701.341 8  -6178289.95646  22543176.024    22543182.6634
  23681047.659    -2056257.670 8  -1592069.15046  23681046.952    23681055.6954
  22916093.305   -14124009.103 8 -10992728.02446  22916092.889    22916101.1674
  20750886.394    -4871168.026 9  -3791215.09547  20750886.010    20750892.4694
  22893958.472    10674383.972 8   8197979.19446  22893958.462    22893966.8384
  20539319.817   -11396331.205 9  -8871015.08848  20539319.255    20539325.5414
  20958345.037    -8133546.968 9  -6327942.38148  20958344.590    20958350.8254
  20635521.968   -17583955.699 9 -13472147.66848  20635521.686    20635526.6734
  23206510.194   -11839889.901 8  -8980057.79446  23206510.168    23206517.7674
 01  7 19 17 21  0.0010000  0  9 26 22 21 17 06 15 23 18 03
  22550486.304    -7904284.677 8  -6148354.88146  22550486.463    22550493.1964
  23691427.607    -2001711.622 8  -1549565.78246  23691426.877    23691435.6344
  22902024.665   -14197939.417 8 -11050335.96346  22902024.299    22902032.5744
  20753896.849    -4855348.439 9  -3778888.15447  20753896.417    20753902.8684
  22912417.041    10771384.396 8   8273563.82146  22912417.064    22912425.3974
  20537004.514   -11408498.141 9  -8880495.80648  20537003.928    20537010.2494
  20962311.969    -8112700.928 9  -6311698.70848  20962311.484    20962317.6994
  20631059.248   -17607407.280 9 -13490421.61048  20631058.995    20631064.0244
  23189986.226   -11926724.239 8  -9047720.87046  23189986.117    23189993.5204
 01  7 19 17 21 30.0010000  0  9 26 22 21 17 06 15 23 18 03
  22557913.324    -7865255.412 8  -6117942.46246  22557913.432    22557920.1774
  23701881.806    -1946774.401 8  -1506757.61746  23701881.059    23701889.9044
  22888005.659   -14271609.078 8 -11107740.80846  22888005.354    22888013.6194
  20756961.512    -4839243.440 9  -3766338.80847  20756961.115    20756967.5614
  22930928.519    10868661.936 8   8349364.40646  22930928.459    22930936.7664
  20534748.306   -11420354.192 9  -8889734.27548  20534747.730    20534754.0924
  20966353.651    -8091461.719 9  -6295148.66948  20966353.156    20966359.3954
  20626687.612   -17630380.255 9 -13508322.60748  20626687.361    20626692.4284
  23173517.511   -12013268.725 8  -9115158.09146  23173517.268    23173524.5474
 01  7 19 17 22  0.0010000  0  9 26 22 21 17 06 15 23 18 03
  22565456.521    -7825615.038 8  -6087053.84546  22565456.680    22565463.4904
  23712409.922    -1891448.683 8  -1463646.71145  23712409.211    23712418.0134
  22874036.463   -14345016.920 8 -11164941.62546  22874036.194    22874044.5474
  20760080.548    -4822852.922 9  -3753566.97647  20760080.156    20760086.5154
  22949492.444    10966214.434 8   8425379.22646  22949492.237    22949500.4294
  20532551.367   -11431898.988 9  -8898730.20548  20532550.811    20532557.1314
  20970469.849    -8069830.836 9  -6278293.43348  20970469.376    20970475.6044
  20622407.034   -17652874.729 9 -13525850.74948  20622406.795    20622411.8574
  23157104.268   -12099521.162 8  -9182367.72846  23157103.971    23157111.1134
 01  7 19 17 22 30.0010000  0  9 26 22 21 17 06 15 23 18 03
  22573115.929    -7785364.912 8  -6055690.11646  22573116.077    22573122.8084
  23723011.538    -1835737.155 8  -1420235.20445  23723010.811    23723019.5164
  22860117.401   -14418162.566 8 -11221938.14146  22860117.011    22860125.3164
  20763253.923    -4806176.782 9  -3740572.58647  20763253.509    20763259.8664
  22968108.164    11064040.013 8   8501606.84546  22968107.970    22968116.0984
  20530413.824   -11443132.053 9  -8907483.22748  20530413.261    20530419.5674
  20974660.281    -8047809.866 9  -6261134.23048  20974659.795    20974666.0664
  20618217.428   -17674891.080 9 -13543006.32948  20618217.165    20618222.2374
  23140747.029   -12185479.206 8  -9249347.98146  23140746.724    23140753.7904
 01  7 19 17 23  0.0010000  0  9 26 22 21 17 06 15 23 18 03
  22580891.422    -7744504.655 8  -6023850.96546  22580891.505    22580898.2284
  23733686.370    -1779641.093 8  -1376524.05545  23733685.582    23733694.3354
  22846248.671   -14491043.500 8 -11278728.41546  22846248.192    22846256.3514
  20766482.089    -4789212.700 9  -3727353.82247  20766481.684    20766488.0534
  22986775.666    11162138.621 8   8578047.21146  22986775.546    22986783.6694
  20528335.941   -11454051.497 9  -8915991.87548  20528335.339    20528341.6374
  20978925.013    -8025398.235 9  -6243670.61248  20978924.563    20978930.8444
  20614119.148   -17696427.593 9 -13559788.00848  20614118.902    20614123.9524
  23124446.518   -12271138.349 8  -9316095.31246  23124446.299    23124453.4574
 01  7 19 17 23 30.0010000  0  9 26 22 21 17 06 15 23 18 03
  22588782.186    -7703037.539 8  -5991538.94046  22588782.381    22588789.1774
  23744433.567    -1723164.340 8  -1332516.23545  23744432.811    23744441.6064
  22832429.926   -14563660.836 8 -11335313.26346  22832429.508    22832437.6174
  20769764.749    -4771962.391 9  -3713912.02947  20769764.321    20769770.6574
  23005494.274    11260506.429 8   8654697.34446  23005494.328    23005502.5874
  20526317.438   -11464658.485 9  -8924257.04948  20526316.857    20526323.2084
  20983263.520    -8002599.280 9  -6225905.19048  20983263.049    20983269.3564
  20610111.830   -17717486.326 9 -13576197.39548  20610111.547    20610116.5564
  23108202.967   -12356497.916 8  -9382609.19646  23108202.784    23108210.0144
 01  7 19 17 24  0.0010000  0  9 26 22 21 17 06 15 23 18 03
  22596788.292    -7660965.143 8  -5958755.26646  22596788.489    22596795.2884
  23755252.539    -1666309.262 8  -1288213.66045  23755251.911    23755260.8014
  22818661.589   -14636014.119 8 -11391692.36746  22818661.080    22818669.1164
  20773101.870    -4754425.839 9  -3700247.19747  20773101.451    20773107.8304
  23024263.910    11359141.227 8   8731555.52746  23024263.904    23024272.2614
  20524358.487   -11474952.807 9  -8932278.59048  20524357.943    20524364.2934
  20987675.416    -7979414.645 9  -6207839.23648  20987674.965    20987681.2964
  20606195.290   -17738067.677 9 -13592234.79148  20606195.008    20606200.0474
  23092017.075   -12441555.574 8  -9448887.84946  23092016.909    23092024.1604
 01  7 19 17 24 30.0010000  0  9 26 22 21 17 06 15 23 18 03
  22604909.254    -7618289.044 8  -5925501.15746  22604909.507    22604916.1724
  23766142.903    -1609078.822 8  -1243618.59745  23766142.422    23766151.3054
  22804943.473   -14708102.419 8 -11447864.98846  22804943.056    22804951.1344
  20776493.531    -4736602.933 9  -3686359.22347  20776493.063    20776499.4214
  23043084.032    11458040.808 8   8808620.00846  23043083.915    23043092.2924
  20522459.102   -11484934.203 9  -8940056.29148  20522458.548    20522464.9094
  20992160.476    -7955845.766 9  -6189473.87248  20992159.990    20992166.3184
  20602369.516   -17758172.129 9 -13607900.57948  20602369.267    20602374.3024
  23075889.321   -12526309.146 8  -9514929.52546  23075888.935    23075896.1954
 01  7 19 17 25  0.0010000  0  9 26 22 21 17 06 15 23 18 03
  22613144.992    -7575010.654 8  -5891777.72146  22613145.255    22613151.7404
  23777104.270    -1551476.021 8  -1198733.38145  23777103.833    23777112.8314
  22791276.023   -14779925.314 8 -11503830.80546  22791275.568    22791283.5914
  20779939.696    -4718493.390 9  -3672247.89947  20779939.217    20779945.5174
  23061954.058    11557203.283 8   8885889.35746  23061953.961    23061962.3774
  20520619.397   -11494602.184 9  -8947589.77148  20520618.831    20520625.1914
  20996718.375    -7931893.976 9  -6170810.13548  20996717.885    20996724.1944
  20598634.508   -17777799.946 9 -13623194.96048  20598634.232    20598639.2754
  23059819.659   -12610756.159 8  -9580732.33546  23059819.179    23059826.3474
 01  7 19 17 25 30.0010000  0  9 26 22 21 17 06 15 23 18 03
  22621495.010    -7531131.576 8  -5857586.24246  22621495.195    22621501.7844
  23788136.255    -1493503.498 8  -1153560.06045  23788135.696    23788144.7994
  22777659.186   -14851482.161 8 -11559589.31846  22777658.715    22777666.6354
  20783440.439    -4700096.934 9  -3657912.99947  20783439.934    20783446.3114
  23080873.594    11656626.539 8   8963361.91046  23080873.563    23080882.1414
  20518839.233   -11503956.584 9  -8954878.90448  20518838.694    20518845.0894
  21001348.845    -7907560.863 9  -6151849.26848  21001348.389    21001354.6154
  20594990.070   -17796951.258 9 -13638118.04348  20594989.825    20594994.8654
  23043808.970   -12694894.150 8  -9646294.37046  23043808.354    23043815.3784
 01  7 19 17 26  0.0010000  0  9 26 22 21 17 06 15 23 18 03
  22629959.022    -7486653.087 8  -5822927.68546  22629959.085    22629965.8724
  23799238.104    -1435163.065 8  -1108100.06245  23799237.650    23799246.6774
  22764093.196   -14922772.045 8 -11615139.79846  22764092.707    22764100.5884
  20786995.786    -4681413.143 9  -3643354.20547  20786995.283    20787001.6934
  23099842.679    11756308.936 8   9041036.38946  23099842.632    23099851.2664
  20517118.887   -11512996.802 9  -8961923.22148  20517118.365    20517124.7554
  21006051.646    -7882847.647 9  -6132592.21248  21006051.153    21006057.3204
  20591436.381   -17815626.068 9 -13652669.82248  20591436.125    20591441.1214
  23027857.319   -12778720.181 8  -9711613.29346  23027856.756    23027863.7524
 01  7 19 17 26 30.0010000  0  9 26 22 21 17 06 15 23 18 03
  22638536.805    -7441576.351 8  -5787802.97446  22638536.947    22638543.5864
  23810409.711    -1376456.931 8  -1062355.10245  23810409.126    23810418.2274
  22750578.023   -14993794.228 8 -11670481.68846  22750577.543    22750585.4424
  20790605.994    -4662441.281 9  -3628570.93947  20790605.533    20790611.9194
  23118860.662    11856248.932 8   9118911.58346  23118860.676    23118869.3654
  20515458.615   -11521721.870 9  -8968721.97348  20515458.084    20515464.4064
  21010826.451    -7857755.478 9  -6113039.87348  21010826.008    21010832.2094
  20587973.277   -17833824.673 9 -13666850.53748  20587973.043    20587978.0034
  23011965.198   -12862231.556 8  -9776687.04046  23011964.879    23011971.9124
 01  7 19 17 27  0.0010000  0  9 26 22 21 17 06 15 23 18 03
  22647228.027    -7395903.247 8  -5752213.53346  22647228.190    22647234.7864
  23821650.347    -1317388.035 8  -1016327.46045  23821649.615    23821658.7804
  22737113.907   -15064548.116 8 -11725614.50746  22737113.504    22737121.4014
  20794271.105    -4643181.388 9  -3613563.23547  20794270.606    20794276.9874
  23137927.321    11956444.124 8   9196985.65546  23137927.346    23137936.0194
  20513858.341   -11530131.390 9  -8975274.83148  20513857.792    20513864.1134
  21015673.143    -7832285.990 9  -6093193.51748  21015672.703    21015678.8734
  20584600.779   -17851547.374 9 -13680660.41548  20584600.537    20584605.4624
  22996133.555   -12945425.928 8  -9841513.76846  22996133.318    22996140.5134
 01  7 19 17 27 30.0010000  0  9 26 22 21 17 06 15 23 18 03
  22656032.530    -7349635.131 8  -5716160.45946  22656032.735    22656039.3324
  23832959.150    -1257959.304 8   -970019.40945  23832958.496    23832967.7494
  22723701.001   -15135032.710 8 -11780537.48246  22723700.580    22723708.5664
  20797991.041    -4623633.048 9  -3598330.76347  20797990.511    20797996.8954
  23157042.121    12056892.713 8   9275257.16746  23157042.213    23157050.8504
  20512318.157   -11538225.015 9  -8981581.54348  20512317.628    20512323.9324
  21020591.368    -7806440.468 9  -6073054.14548  21020590.918    21020597.0844
  20581318.783   -17868794.449 9 -13694099.67848  20581318.510    20581323.4414
  22980363.043   -13028300.418 8  -9906091.25046  22980362.865    22980369.9204
 01  7 19 17 28  0.0010000  0  9 26 22 21 17 06 15 23 18 03
  22664949.960    -7302774.637 8  -5679645.81246  22664950.081    22664956.6114
  23844335.807    -1198174.136 8   -923433.65545  23844335.250    23844344.7424
  22710339.230   -15205248.401 8 -11835250.94047  22710338.860    22710346.9424
  20801765.732    -4603796.975 9  -3582874.08847  20801765.228    20801771.6174
  23176204.718    12157591.901 8   9353723.94146  23176204.757    23176213.3564
  20510838.075   -11546003.107 9  -8987642.38448  20510837.523    20510843.7954
  21025580.756    -7780221.356 9  -6052623.66548  21025580.294    21025586.4214
  20578126.993   -17885567.122 9 -13707169.27648  20578126.749    20578131.6634
  22964653.698   -13110853.730 8  -9970418.45046  22964653.472    22964660.4814
 01  7 19 17 28 30.0010000  0  9 26 22 21 17 06 15 23 18 03
  22673979.712    -7255322.783 8  -5642670.35046  22673979.811    22673986.4384
  23855780.289    -1138034.157 8   -876571.42245  23855779.647    23855789.1904
  22697028.995   -15275193.929 8 -11889753.87547  22697028.594    22697036.6714
  20805595.285    -4583672.362 9  -3567192.57847  20805594.806    20805601.1724
  23195414.668    12258540.052 8   9432384.71646  23195414.649    23195423.2844
  20509418.118   -11553464.705 9  -8993456.60548  20509417.576    20509423.9094
  21030641.010    -7753629.532 9  -6031902.76748  21030640.521    21030646.6894
  20575025.556   -17901865.324 9 -13719869.16048  20575025.286    20575030.2094
  22949006.114   -13193082.648 8 -10034492.88946  22949005.824    22949012.8374
 01  7 19 17 29  0.0010000  0  9 26 22 21 17 06 15 23 18 03
  22683121.480    -7207282.031 8  -5605236.02746  22683121.641    22683128.3904
  23867291.696    -1077542.752 8   -829435.31945  23867290.868    23867300.3674
  22683770.063   -15344869.620 8 -11944046.55947  22683769.723    22683777.6184
  20809479.705    -4563259.659 9  -3551286.58947  20809479.217    20809485.5604
  23214671.546    12359734.553 8   9511237.45746  23214671.457    23214679.9104
  20508058.378   -11560610.173 9  -8999024.49948  20508057.857    20508064.1654
  21035771.842    -7726667.027 9  -6010893.02048  21035771.358    21035777.5044
  20572014.244   -17917690.032 9 -13732200.08348  20572013.991    20572018.8814
  22933420.376   -13274985.591 8 -10098313.32546  22933420.134    22933427.1914
 01  7 19 17 29 30.0010000  0  9 26 22 21 17 06 15 23 18 03
  22692375.449    -7158653.032 8  -5567343.31046  22692375.585    22692382.2594
  23878869.285    -1016702.237 8   -782027.21645  23878868.433    23878878.1154
  22670562.808   -15414273.945 8 -11998127.77647  22670562.456    22670570.3954
  20813419.118    -4542557.729 9  -3535155.21647  20813418.640    20813424.9834
  23233974.962    12461174.274 8   9590281.27946  23233974.834    23233983.2624
  20506759.079   -11567438.273 9  -9004345.08948  20506758.546    20506764.8054
  21040973.100    -7699334.408 9  -5989594.87248  21040972.578    21040978.7324
  20569093.220   -17933040.640 9 -13744161.57548  20569092.873    20569097.7284
  22917897.392   -13356559.043 8 -10161877.01346  22917897.160    22917904.3324
 01  7 19 17 30  0.0010000  0  9 26 22 21 17 06 15 23 18 03
  22701740.765    -7109437.656 8  -5528993.68346  22701740.942    22701747.6414
  23890512.925     -955515.350 8   -734349.24845  23890512.083    23890521.5924
  22657407.317   -15483406.325 8 -12051997.09147  22657406.954    22657414.8364
  20817413.657    -4521566.206 9  -3518798.18647  20817413.205    20817419.5704
  23253324.705    12562857.123 8   9669514.53146  23253324.478    23253333.0624
  20505520.183   -11573948.505 9  -9009417.98848  20505519.644    20505525.9534
  21046244.348    -7671633.315 9  -5968009.60248  21046243.889    21046250.0634
  20566262.140   -17947917.737 9 -13755754.10248  20566261.833    20566266.6594
  22902437.283   -13437800.646 8 -10225182.12146  22902437.253    22902444.5294
 01  7 19 17 30 30.0010000  0  9 26 22 21 17 06 15 23 18 03
  22711217.341    -7059637.901 8  -5490188.68546  22711217.481    22711224.1904
  23902221.849     -893984.605 8   -686403.27745  23902221.087    23902230.5604
  22644303.703   -15552266.217 8 -12105654.08347  22644303.295    22644311.1304
  20821463.253    -4500285.348 9  -3502215.70347  20821462.831    20821469.2104
  23272720.010    12664780.573 8   9748935.26146  23272719.931    23272728.7764
  20504341.784   -11580140.714 9  -9014243.07748  20504341.280    20504347.6134
  21051585.504    -7643565.612 9  -5946138.66248  21051585.051    21051591.1214
  20563521.102   -17962322.144 9 -13766978.29848  20563520.771    20563525.5654
  22887041.088   -13518708.064 8 -10288226.82046  22887041.081    22887048.3414
 01  7 19 17 31  0.0010000  0  9 26 22 21 17 06 15 23 18 03
  22720804.651    -7009255.719 8  -5450929.87146  22720804.805    22720811.5904
  23913995.712     -832112.673 8   -638191.47845  23913994.976    23914004.4724
  22631252.048   -15620853.397 8 -12159098.56847  22631251.641    22631259.3754
  20825567.921    -4478714.997 9  -3485407.64147  20825567.520    20825573.9244
  23292160.928    12766942.473 8   9828541.81346  23292160.812    23292169.5814
  20503224.078   -11586014.718 9  -9018820.21848  20503223.534    20503229.7904
  21056996.079    -7615132.769 9  -5923983.19748  21056995.625    21057001.7064
  20560869.907   -17976254.274 9 -13777834.48448  20560869.556    20560874.3854
  22871709.038   -13599278.958 8 -10351009.28946  22871708.876    22871716.2344
 01  7 19 17 31 30.0010000  0  9 26 22 21 17 06 15 23 18 03
  22730502.421    -6958293.127 8  -5411218.78746  22730502.690    22730509.4514
  23925833.929     -769902.745 8   -589716.29445  23925833.240    23925842.7484
  22618252.195   -15689167.464 8 -12212330.23547  22618251.840    22618259.5514
  20829727.704    -4456855.167 9  -3468374.01047  20829727.300    20829733.7654
  23311647.012    12869340.510 8   9908332.36746  23311646.682    23311655.3944
  20502166.867   -11591570.338 9  -9023149.26148  20502166.306    20502172.5764
  21062475.762    -7586336.723 9  -5901544.71848  21062475.342    21062481.4354
  20558308.397   -17989714.763 9 -13788323.16048  20558308.069    20558312.9504
  22856441.364   -13679511.140 8 -10413527.83846  22856441.195    22856448.5134
 01  7 19 17 32  0.0010000  0  9 26 22 21 17 06 15 23 18 03
  22740310.395    -6906751.656 8  -5371056.61646  22740310.751    22740317.4984
  23937736.009     -707357.733 8   -540980.02945  23937735.201    23937744.7784
  22605304.638   -15757207.501 8 -12265348.38447  22605304.224    22605311.9974
  20833942.718    -4434705.084 9  -3451114.20647  20833942.322    20833948.7344
  23331177.282    12971973.015 8   9988305.60346  23331177.062    23331185.9444
  20501170.372   -11596806.859 9  -9027229.65948  20501169.786    20501176.0404
  21068024.375    -7557178.646 9  -5878824.13648  21068023.940    21068030.0324
  20555836.595   -18002704.039 9 -13798444.65548  20555836.241    20555841.1644
  22841238.707   -13759402.096 8 -10475780.49846  22841238.500    22841245.8414
 01  7 19 17 32 30.0010000  0  9 26 22 21 17 06 15 23 18 03
  22750228.270    -6854633.042 8  -5330444.73646  22750228.624    22750235.3384
  23949701.427     -644480.007 8   -491984.47045  23949700.617    23949709.9184
  22592409.253   -15824973.015 8 -12318152.59847  22592408.751    22592416.6104
  20838213.018    -4412264.938 9  -3433628.38547  20838212.586    20838219.0134
  23350751.779    13074838.049 8  10068460.05146  23350751.741    23350760.7784
  20500234.637   -11601723.972 9  -9031061.16348  20500234.073    20500240.3214
  21073641.591    -7527660.065 9  -5855822.63748  21073641.132    21073647.2074
  20553454.364   -18015222.493 9 -13808199.27448  20553454.040    20553458.9684
  22826101.345   -13838949.141 8 -10537765.16846  22826101.129    22826108.4764
 01  7 19 17 33  0.0010000  0  9 26 22 21 17 06 15 23 18 03
  22760255.692    -6801939.497 8  -5289384.87246  22760255.923    22760262.6864
  23961729.484     -581272.238 8   -442731.70845  23961728.781    23961737.9444
  22579566.013   -15892463.913 8 -12370742.84047  22579565.562    22579573.5024
  20842538.499    -4389534.452 9  -3415916.32347  20842538.051    20842544.4884
  23370370.121    13177933.100 8  10148793.71346  23370370.159    23370379.2424
  20499359.776   -11606321.315 9  -9034643.49748  20499359.239    20499365.4544
  21079327.018    -7497782.782 9  -5832541.63648  21079326.556    21079332.6344
  20551161.627   -18027270.834 9 -13817587.57348  20551161.307    20551166.2504
  22811029.704   -13918150.160 8 -10599480.20346  22811029.623    22811036.9714
 01  7 19 17 33 30.0010000  0  9 26 22 21 17 06 15 23 18 03
  22770392.171    -6748672.666 8  -5247878.27646  22770392.326    22770399.1224
  23973820.017     -517736.834 8   -393223.67045  23973819.291    23973828.4434
  22566775.254   -15959679.275 8 -12423118.37547  22566774.857    22566782.7414
  20846919.273    -4366513.226 9  -3397977.71047  20846918.828    20846925.2934
  23390032.042    13281256.269 8  10229305.12746  23390032.098    23390041.1974
  20498545.937   -11610598.271 9  -9037976.17948  20498545.382    20498551.6124
  21085080.504    -7467548.054 9  -5808982.10248  21085080.053    21085086.1114
  20548958.322   -18038849.328 9 -13826609.76148  20548958.012    20548962.9324
  22796024.651   -13997002.409 8 -10660923.47046  22796024.471    22796031.8374
 01  7 19 17 34  0.0010000  0  9 26 22 21 17 06 15 23 18 03
  22780637.116    -6694834.669 8  -5205926.61946  22780637.353    22780644.2584
  23985972.093     -453877.307 8   -343463.08845  23985971.318    23985980.6394
  22554036.935   -16026618.975 8 -12475279.10547  22554036.526    22554044.4474
  20851355.413    -4343201.190 9  -3379812.49947  20851354.997    20851361.4564
  23409737.060    13384805.227 8  10309992.47546  23409736.826    23409746.0904
  20497793.028   -11614554.681 9  -9041059.08648  20497792.494    20497798.7434
  21090901.638    -7436957.774 9  -5785145.52048  21090901.163    21090907.2284
  20546844.254   -18049958.872 9 -13835266.52748  20546843.926    20546848.8234
  22781086.387   -14075503.708 8 -10722093.26346  22781086.152    22781093.5334
 01  7 19 17 34 30.0010000  0  9 26 22 21 17 06 15 23 18 03
  22790990.632    -6640427.162 8  -5163531.19146  22790990.805    22790997.6554
  23998185.153     -389696.422 8   -293452.09145  23998184.582    23998193.8544
  22541351.312   -16093282.239 8 -12527224.44847  22541350.928    22541358.8194
  20855847.023    -4319597.984 9  -3361420.40947  20855846.548    20855853.0444
  23429484.487    13488578.131 8  10390854.32346  23429484.265    23429493.4834
  20497101.272   -11618190.177 9  -9043891.93148  20497100.702    20497106.9544
  21096790.148    -7406013.255 9  -5761032.90748  21096789.706    21096795.7934
  20544819.318   -18060599.749 9 -13843558.10448  20544819.028    20544823.9094
  22766215.292   -14153651.349 8 -10782987.48746  22766215.147    22766222.5064
 01  7 19 17 35  0.0010000  0  9 26 22 21 17 06 15 23 18 03
  22801452.191    -6585452.360 8  -5120693.70446  22801452.173    22801458.9654
  24010459.226     -325196.701 8   -243192.66645  24010458.575    24010467.7664
  22528718.246   -16159668.490 8 -12578953.93247  22528717.953    22528725.8844
  20860393.917    -4295703.646 9  -3342801.44447  20860393.480    20860399.9584
  23449274.107    13592572.575 8  10471888.81646  23449273.945    23449283.1144
  20496470.566   -11621504.442 9  -9046474.46748  20496469.979    20496476.2674
  21102745.758    -7374716.248 9  -5736645.62748  21102745.323    21102751.4404
  20542883.476   -18070772.767 9 -13851485.11248  20542883.178    20542888.0164
  22751411.907   -14231443.090 8 -10843604.38046  22751411.756    22751419.1314
 01  7 19 17 35 30.0010000  0  9 26 22 21 17 06 15 23 18 03
  22812021.217    -6529912.172 8  -5077415.67146  22812021.196    22812027.9374
  24022793.373     -260380.466 8   -192686.60545  24022792.696    24022802.0254
  22516138.130   -16225777.500 8 -12630467.38447  22516137.832    22516145.7084
  20864996.372    -4271517.736 9  -3323955.28247  20864995.884    20865002.4104
  23469105.613    13696786.518 8  10553094.33446  23469105.356    23469114.5424
  20495901.039   -11624496.878 9  -9048806.23048  20495900.503    20495906.7744
  21108768.212    -7343068.105 9  -5711984.72848  21108767.764    21108773.8634
  20541036.499   -18080478.562 9 -13859048.05248  20541036.217    20541040.9984
  22736676.524   -14308876.381 8 -10903941.97046  22736676.547    22736683.9794
 01  7 19 17 36  0.0010000  0  9 26 22 21 17 06 15 23 18 03
  22822697.394    -6473808.247 8  -5033698.35346  22822697.465    22822704.2344
  24035186.974     -195250.623 8   -141936.16645  24035186.406    24035195.8104
  22503610.995   -16291608.291 8 -12681764.04347  22503610.645    22503618.4324
  20869654.335    -4247039.805 9  -3304881.57947  20869653.869    20869660.3854
  23488978.206    13801218.195 8  10634469.50046  23488978.088    23488987.3774
  20495392.954   -11627166.944 9  -9050886.79348  20495392.415    20495398.6704
  21114857.246    -7311070.296 9  -5687051.36748  21114856.749    21114862.8494
  20539278.428   -18089717.142 9 -13866246.93048  20539278.144    20539282.9214
  22722010.102   -14385948.639 8 -10963998.23046  22722010.160    22722017.5874
 01  7 19 17 36 30.0010000  0  9 26 22 21 17 06 15 23 18 03
  22833480.509    -6417143.130 8  -4989543.74246  22833480.590    22833487.1794
  24047640.017     -129810.811 8    -90944.21245  24047639.285    24047648.5814
  22491136.754   -16357160.755 8 -12732843.82947  22491136.440    22491144.1224
  20874367.804    -4222270.075 9  -3285580.51047  20874367.406    20874373.9274
  23508892.066    13905865.184 8  10716012.45445  23508891.883    23508901.1194
  20494946.246   -11629514.659 9  -9052716.17748  20494945.684    20494951.9314
  21121012.408    -7278724.628 9  -5661846.95048  21121011.958    21121018.0434
  20537609.097   -18098489.612 9 -13873082.60048  20537608.789    20537613.5724
  22707412.928   -14462657.797 8 -11023771.55346  22707412.915    22707420.3664
 01  7 19 17 37  0.0010000  0  9 26 22 21 17 06 15 23 18 03
  22844369.945    -6359918.984 8  -4944953.54146  22844370.002    22844376.5034
  24060151.309      -64063.867 8    -39712.92345  24060150.584    24060159.8494
  22478715.523   -16422435.056 8 -12783706.84947  22478715.129    22478722.7674
  20879136.870    -4197208.565 9  -3266052.06847  20879136.435    20879142.9734
  23528846.406    14010725.062 8  10797721.31445  23528846.218    23528855.3424
  20494560.845   -11631539.763 9  -9054294.17248  20494560.281    20494566.5444
  21127233.498    -7246032.944 9  -5636372.91148  21127233.001    21127239.0404
  20536028.271   -18106796.848 9 -13879555.75348  20536027.984    20536032.7844
  22692885.480   -14539001.868 8 -11083260.40446  22692885.302    22692892.4064
 01  7 19 17 37 30.0010000  0  9 26 22 21 17 06 15 23 18 03
  22855365.249    -6302137.781 8  -4899929.25946  22855365.361    22855371.9014
  24072720.622        1988.039 8     11755.98045  24072719.933    24072729.3964
  22466347.295   -16487430.166 8 -12834352.32647  22466346.912    22466354.5164
  20883961.500    -4171854.814 9  -3246295.90847  20883961.075    20883967.6524
  23548840.916    14115795.714 8  10879594.36345  23548840.596    23548849.7074
  20494236.994   -11633241.850 9  -9055620.47148  20494236.405    20494242.6654
  21133520.039    -7212996.759 9  -5610630.43048  21133519.569    21133525.6704
  20534535.862   -18114639.500 9 -13885666.88648  20534535.557    20534540.3484
  22678427.851   -14614978.038 8 -11142462.57946  22678427.611    22678434.5774
 01  7 19 17 38  0.0010000  0  9 26 22 21 17 06 15 23 18 03
  22866466.240    -6243800.951 8  -4854472.01446  22866466.374    22866473.1314
  24085347.535       68342.700 8     63460.80245  24085346.891    24085356.4024
  22454032.311   -16552145.668 8 -12884779.93247  22454031.927    22454039.4664
  20888841.985    -4146208.138 9  -3226311.49247  20888841.516    20888848.0504
  23568875.254    14221075.344 8  10961630.28245  23568874.887    23568883.9044
  20493974.682   -11634620.002 9  -9056694.35248  20493974.127    20493980.3934
  21139871.940    -7179617.119 9  -5584620.32148  21139871.482    21139877.6004
  20533131.809   -18122017.783 9 -13891416.18248  20533131.509    20533136.2594
  22664040.553   -14690583.348 8 -11201375.75046  22664040.312    22664047.3244
 01  7 19 17 38 30.0010000  0  9 26 22 21 17 06 15 23 18 03
  22877672.575    -6184910.686 8  -4808583.52246  22877672.826    22877679.7254
  24098031.392      134996.606 8    115398.79945  24098030.830    24098040.4664
  22441770.687   -16616580.870 9 -12934989.12347  22441770.306    22441777.7964
  20893778.093    -4120268.458 9  -3206098.77347  20893777.649    20893784.2204
  23588948.747    14326561.929 8  11043827.43645  23588948.510    23588957.4064
  20493774.130   -11635673.829 9  -9057515.50648  20493773.596    20493779.8174
  21146288.935    -7145895.689 9  -5558343.88348  21146288.469    21146294.5784
  20531816.025   -18128932.205 9 -13896804.02948  20531815.730    20531820.4564
  22649724.140   -14765815.648 8 -11259998.27846  22649723.973    22649730.9774
 01  7 19 17 39  0.0010000  0  9 26 22 21 17 06 15 23 18 03
  22888984.101    -6125469.406 8  -4762265.65646  22888984.137    22888991.1484
  24110771.727      201946.719 8    167567.62845  24110771.150    24110780.7044
  22429562.457   -16680735.519 8 -12984979.70347  22429562.027    22429569.5384
  20898770.025    -4094035.654 9  -3185657.64147  20898769.573    20898776.1304
  23609061.016    14432253.014 8  11126183.96545  23609060.976    23609069.9044
  20493635.380   -11636403.196 9  -9058083.83748  20493634.812    20493641.0054
  21152770.607    -7111834.230 9  -5531802.48248  21152770.162    21152776.2514
  20530588.314   -18135383.569 9 -13901831.05048  20530588.040    20530592.7654
  22635479.308   -14840672.675 8 -11318328.40346  22635479.104    22635486.1244
 01  7 19 17 39 30.0010000  0  9 26 22 21 17 06 15 23 18 03
  22900399.785    -6065479.239 8  -4715520.10546  22900399.893    22900406.9274
  24123568.026      269190.398 8    219965.20645  24123567.362    24123576.7274
  22417407.491   -16744609.073 8 -13034751.24647  22417407.122    22417414.7134
  20903817.736    -4067509.564 9  -3164987.97647  20903817.328    20903823.8544
  23629212.090    14538146.487 8  11208698.19045  23629212.016    23629220.9614
  20493558.528   -11636807.675 9  -9058399.01948  20493557.905    20493564.0744
  21159316.707    -7077434.348 9  -5504997.38048  21159316.250    21159322.3604
  20529448.639   -18141372.781 9 -13906497.95348  20529448.349    20529453.0854
  22621306.246   -14915152.090 8 -11376364.27446  22621306.106    22621313.2524
 01  7 19 17 40  0.0010000  0  9 26 22 21 17 06 15 23 18 03
  22911919.479    -6004942.447 8  -4668348.60646  22911919.638    22911926.6394
  24136419.407      336725.014 8    272589.49845  24136418.815    24136428.2764
  22405306.247   -16808200.871 8 -13084303.24147  22405305.910    22405313.5434
  20908921.402    -4040690.104 9  -3144089.70347  20908920.955    20908927.4654
  23649401.272    14644240.063 8  11291368.32845  23649401.150    23649410.0634
  20493543.355   -11636887.081 9  -9058460.88748  20493542.766    20493548.9594
  21165926.851    -7042697.907 9  -5477930.02548  21165926.334    21165932.4984
  20528396.700   -18146900.570 9 -13910805.30648  20528396.407    20528401.1284
  22607205.563   -14989251.360 8 -11434103.91446  22607205.457    22607212.6324
 01  7 19 17 40 30.0010000  0  9 26 22 21 17 06 15 23 18 03
  22923542.912    -5943861.035 8  -4620752.72346  22923543.141    22923549.9374
  24149325.667      404547.753 7    325438.25545  24149325.001    24149334.7414
  22393258.526   -16871511.222 9 -13133635.92647  22393258.310    22393265.9054
  20914080.864    -4013576.950 9  -3122962.58647  20914080.443    20914086.9284
  23669627.977    14750531.617 8  11374192.73145  23669627.867    23669636.8964
  20493590.172   -11636640.836 9  -9058269.00948  20493589.603    20493595.7964
  21172600.701    -7007626.318 9  -5450601.52448  21172600.204    21172606.4124
  20527432.486   -18151967.601 9 -13914753.63448  20527432.194    20527436.9154
  22593177.821   -15062967.966 8 -11491545.38946  22593177.639    22593184.7894
 01  7 19 17 41  0.0010000  0  9 26 22 21 17 06 15 23 18 03
  22935269.715    -5882237.470 8  -4572734.39346  22935269.842    22935276.4674
  24162286.083      472654.898 8    378508.66545  24162285.348    24162295.2564
  22381264.645   -16934539.558 8 -13182748.87047  22381264.393    22381271.8694
  20919296.260    -3986170.092 9  -3101606.60147  20919295.813    20919302.2264
  23689891.971    14857018.702 8  11457169.51145  23689891.789    23689900.9434
  20493699.013   -11636068.673 9  -9057823.16448  20493698.478    20493704.6454
  21179338.022    -6972221.328 9  -5423013.22248  21179337.540    21179343.7274
  20526555.749   -18156574.788 9 -13918343.63448  20526555.471    20526560.1864
  22579223.137   -15136300.073 8 -11548687.25646  22579222.959    22579230.0174
 01  7 19 17 41 30.0010000  0  9 26 22 21 17 06 15 23 18 03
  22947099.047    -5820073.988 8  -4524295.33846  22947099.234    22947105.8834
  24175300.126      541043.712 8    431798.55045  24175299.369    24175309.2474
  22369324.349   -16997285.775 9 -13231641.96747  22369324.109    22369331.6304
  20924567.560    -3958469.362 9  -3080021.62347  20924567.124    20924573.5544
  23710192.693    14963699.348 7  11540297.07945  23710192.446    23710201.7884
  20493870.017   -11635170.154 9  -9057123.01448  20493869.449    20493875.6554
  21186138.546    -6936484.538 9  -5395166.37848  21186138.052    21186144.2404
  20525766.307   -18160723.050 9 -13921576.03148  20525766.048    20525770.7654
  22565342.068   -15209245.287 8 -11605527.64546  22565341.949    22565349.0004
 01  7 19 17 42  0.0010000  0  9 26 22 21 17 06 15 23 18 03
  22959030.804    -5757372.246 8  -4475436.85346  22959031.033    22959037.6944
  24188367.448      609712.494 8    485306.57945  24188366.731    24188376.4974
  22357438.069   -17059749.129 9 -13280314.65147  22357437.718    22357445.2074
  20929894.884    -3930473.888 9  -3058206.96347  20929894.476    20929900.8804
  23730529.662    15070571.739 8  11623574.05645  23730529.506    23730539.0534
  20494103.153   -11633944.798 9  -9056168.19348  20494102.608    20494108.7824
  21193001.966    -6900417.068 9  -5367061.86148  21193001.480    21193007.6954
  20525064.186   -18164412.532 9 -13924450.94348  20525063.944    20525068.6464
  22551535.371   -15281800.795 8 -11662064.36646  22551535.127    22551542.0744
 01  7 19 17 42 30.0010000  0  9 26 22 21 17 06 15 23 18 03
  22971064.501    -5694134.679 8  -4426160.87746  22971064.722    22971071.4284
  24201487.201      678658.070 8    539030.33845  24201486.689    24201496.5884
  22345605.581   -17121929.177 9 -13328766.57747  22345605.199    22345612.6884
  20935278.356    -3902184.015 9  -3036162.91147  20935277.909    20935284.2934
  23750902.956    15177633.338 8  11706998.48345  23750902.811    23750912.3934
  20494398.567   -11632392.291 9  -9054958.45148  20494398.044    20494404.2524
  21199927.880    -6864020.838 9  -5338701.17048  21199927.426    21199933.6454
  20524449.208   -18167644.205 9 -13926969.12348  20524448.960    20524453.6164
  22537803.324   -15353964.176 8 -11718295.54346  22537802.924    22537809.7774
 01  7 19 17 43  0.0010000  0  9 26 22 21 17 06 15 23 18 03
  22983199.848    -5630364.262 8  -4376469.66246  22983199.882    22983206.4814
  24214659.295      747876.580 8    592966.75545  24214658.540    24214668.6004
  22333826.990   -17183825.991 9 -13376997.81047  22333826.613    22333834.0944
  20940717.675    -3873599.937 9  -3013889.62147  20940717.273    20940723.6924
  23771311.673    15284881.390 8  11790568.19145  23771311.673    23771321.2554
  20494756.149   -11630512.937 9  -9053494.01248  20494755.666    20494761.8734
  21206915.991    -6827298.130 9  -5310086.07948  21206915.508    21206921.7254
  20523921.129   -18170419.492 9 -13929131.66648  20523920.865    20523925.5074
  22524146.018   -15425733.912 8 -11774219.96146  22524145.559    22524152.4744
 01  7 19 17 43 30.0010000  0  9 26 22 21 17 06 15 23 18 03
  22995436.122    -5566062.365 8  -4326364.31346  22995436.201    22995442.7144
  24227882.689      817365.696 7    647114.02145  24227881.897    24227892.0734
  22322102.503   -17245438.484 9 -13425007.48847  22322102.110    22322109.5744
  20946213.203    -3844720.532 9  -2991386.19747  20946212.809    20946219.2474
  23791755.593    15392314.599 8  11874282.19845  23791755.759    23791765.3874
  20495176.275   -11628305.490 9  -9051773.92048  20495175.695    20495181.9884
  21213966.092    -6790249.600 9  -5281217.10448  21213965.637    21213971.8224
  20523479.883   -18172738.222 9 -13930938.45548  20523479.581    20523484.2944
  22510564.131   -15497106.634 8 -11829835.04046  22510563.731    22510570.6464
 01  7 19 17 44  0.0010000  0  9 26 22 21 17 06 15 23 18 03
  23007772.880    -5501231.406 8  -4275846.71946  23007773.070    23007779.6734
  24241157.148      887122.752 8    701470.07345  24241156.476    24241166.4414
  22310432.103   -17306766.801 9 -13472795.72447  22310431.700    22310439.1394
  20951764.915    -3815546.008 9  -2968652.81647  20951764.495    20951771.0164
  23812234.576    15499930.725 8  11958138.70345  23812234.573    23812244.3084
  20495658.749   -11625769.815 9  -9049798.06548  20495658.191    20495664.5264
  21221077.847    -6752877.085 9  -5252095.66548  21221077.394    21221083.5824
  20523125.209   -18174601.606 9 -13932390.43848  20523124.946    20523129.6674
  22497058.168   -15568080.192 8 -11885139.08446  22497057.841    22497064.7714
 01  7 19 17 44 30.0010000  0  9 26 22 21 17 06 15 23 18 03
  23020209.984    -5435874.136 8  -4224919.01046  23020210.150    23020216.8004
  24254482.100      957144.892 8    756032.72145  24254481.322    24254491.2564
  22298815.877   -17367810.527 9 -13520362.22047  22298815.442    22298822.8334
  20957372.694    -3786076.306 9  -2945689.43347  20957372.353    20957378.8754
  23832747.698    15607727.216 8  12042135.74645  23832747.721    23832757.5314
  20496203.734   -11622905.514 9  -9047566.13848  20496203.204    20496209.5744
  21228250.914    -6715182.488 9  -5222723.25948  21228250.428    21228256.6824
  20522857.061   -18176010.650 9 -13933488.38848  20522856.802    20522861.5234
  22483628.466   -15638652.634 8 -11940130.56946  22483628.298    22483635.2404
 01  7 19 17 45  0.0010000  0  9 26 22 21 17 06 15 23 18 03
  23032746.805    -5369992.570 8  -4173582.75846  23032747.011    23032753.6124
  24267856.685     1027429.120 7    810799.56445  24267856.043    24267866.0874
  22287253.857   -17428569.041 9 -13567706.46647  22287253.445    22287260.8424
  20963036.843    -3756311.055 9  -2922495.74347  20963036.442    20963043.0134
  23853294.926    15715701.837 8  12126271.59645  23853294.847    23853304.6594
  20496811.462   -11619712.314 9  -9045077.92848  20496810.893    20496817.2134
  21235484.991    -6677167.274 9  -5193101.02448  21235484.500    21235490.7034
  20522675.208   -18176966.132 9 -13934232.91548  20522674.948    20522679.6784
  22470275.800   -15708821.569 8 -11994807.62246  22470275.562    22470282.5574
 01  7 19 17 45 30.0010000  0  9 26 22 21 17 06 15 23 18 03
  23045382.999    -5303589.037 8  -4121839.78346  23045383.233    23045389.7564
  24281280.576     1097972.299 8    865768.15845  24281279.969    24281290.0824
  22275746.259   -17489042.492 9 -13614828.58147  22275745.762    22275753.1074
  20968757.252    -3726249.971 9  -2899071.53647  20968756.902    20968763.4804
  23873875.550    15823852.499 8  12210544.63745  23873875.450    23873885.2184
  20497481.792   -11616189.851 9  -9042333.14548  20497481.199    20497487.5384
  21242779.755    -6638833.060 9  -5163230.21448  21242779.270    21242785.4704
  20522579.590   -18177468.753 9 -13934624.55648  20522579.324    20522584.0264
  22457000.202   -15778584.672 8 -12049168.44346  22456999.973    22457007.0464
 01  7 19 17 46  0.0010000  0  9 26 22 21 17 06 15 23 18 03
  23058118.188    -5236666.188 8  -4069692.12946  23058118.277    23058124.8704
  24294753.245     1168771.200 8    920936.03445  24294752.662    24294762.6674
  22264292.746   -17549230.622 9 -13661728.36847  22264292.301    22264299.6784
  20974533.986    -3695893.203 9  -2875416.92847  20974533.623    20974540.1954
  23894489.179    15932176.664 8  12294952.85345  23894489.029    23894498.7654
  20498214.826   -11612337.779 9  -9039331.52648  20498214.232    20498220.5374
  21250134.916    -6600181.689 9  -5133112.27148  21250134.408    21250140.5854
  20522569.904   -18177519.527 9 -13934664.11048  20522569.641    20522574.3654
  22443802.390   -15847939.661 8 -12103211.26346  22443802.129    22443809.1424
 01  7 19 17 46 30.0010000  0  9 26 22 21 17 06 15 23 18 03
  23070951.625    -5169226.099 8  -4017141.42246  23070951.662    23070958.4384
  24308274.208     1239823.734 7    976301.56645  24308273.643    24308283.6294
  22252893.704   -17609132.885 9 -13708405.40747  22252893.243    22252900.5664
  20980367.111    -3665240.263 9  -2851531.53947  20980366.714    20980373.2454
  23915135.245    16040672.408 8  12379494.74245  23915135.196    23915144.9644
  20499010.644   -11608155.644 9  -9036072.72148  20499010.071    20499016.3574
  21257550.047    -6561214.542 9  -5102748.27248  21257549.595    21257555.8134
  20522646.141   -18177119.179 9 -13934352.14248  20522645.848    20522650.5734
  22430682.694   -15916883.990 8 -12156934.08646  22430682.432    22430689.4924
 01  7 19 17 47  0.0010000  0  9 26 22 21 17 06 15 23 18 03
  23083882.935    -5101271.095 8  -3964189.50746  23083883.041    23083889.9104
  24321842.635     1311127.023 7   1031862.49545  24321842.229    24321852.2294
  22241549.061   -17668748.886 9 -13754859.37447  22241548.636    22241555.9194
  20986256.598    -3634290.846 9  -2827415.12647  20986256.227    20986262.7684
  23935813.687    16149337.661 7  12464168.75045  23935813.581    23935823.3684
  20499869.411   -11603642.804 9  -9032556.21948  20499868.836    20499875.0984
  21265025.094    -6521933.136 9  -5072139.39148  21265024.620    21265030.8244
  20522808.057   -18176268.407 9 -13933689.20548  20522807.746    20522812.4834
  22417641.667   -15985415.104 8 -12210334.92246  22417641.390    22417648.4834
 01  7 19 17 47 30.0010000  0  9 26 22 21 17 06 15 23 18 03
  23096911.958    -5032803.566 8  -3910838.20046  23096912.070    23096918.8514
  24335458.342     1382678.001 8   1087616.41445  24335457.983    24335468.0824
  22230258.971   -17728078.387 9 -13801090.10347  22230258.552    22230265.7954
  20992202.611    -3603044.711 9  -2803067.50147  20992202.181    20992208.7534
  23956523.791    16258170.185 7  12548973.08145  23956523.703    23956533.6594
  20500791.230   -11598798.979 9  -9028781.81148  20500790.648    20500796.8204
  21272559.625    -6482339.045 9  -5041286.86548  21272559.104    21272565.3234
  20523055.449   -18174968.251 9 -13932676.09648  20523055.174    20523059.8874
  22404679.721   -16053530.625 8 -12263411.93446  22404679.533    22404686.5934
 01  7 19 17 48  0.0010000  0  9 26 22 21 17 06 15 23 18 03
  23110038.029    -4963826.370 8  -3857089.77046  23110038.073    23110044.8154
  24349120.845     1454472.891 8   1143560.38045  24349120.304    24349130.2134
  22219023.360   -17787121.389 9 -13847097.58947  22219022.991    22219030.2414
  20998204.949    -3571502.226 9  -2778488.95947  20998204.525    20998211.0974
  23977265.239    16367167.302 7  12633905.67745  23977265.334    23977275.3654
  20501775.946   -11593624.239 9  -9024749.55448  20501775.376    20501781.4894
  21280153.202    -6442434.399 9  -5010192.34348  21280152.727    21280158.9304
  20523388.185   -18173219.863 9 -13931313.71348  20523387.864    20523392.5794
  22391797.255   -16121228.841 8 -12316163.75446  22391797.061    22391804.0054
 01  7 19 17 48 30.0010000  0  9 26 22 21 17 06 15 23 18 03
  23123260.409    -4894341.966 8  -3802946.10046  23123260.530    23123267.2624
  24362829.071     1526509.014 8   1199692.34345  24362828.425    24362838.2814
  22207842.394   -17845877.430 9 -13892881.46947  22207842.031    22207849.2314
  21004263.734    -3539663.226 9  -2753679.37347  21004263.301    21004269.9134
  23998037.945    16476326.798 7  12718964.77645  23998037.944    23998048.0674
  20502823.720   -11588118.223 9  -9020459.14648  20502823.131    20502829.2534
  21287805.605    -6402220.912 9  -4978857.16548  21287805.109    21287811.3074
  20523806.020   -18171024.276 9 -13929602.86748  20523805.695    20523810.4134
  22378994.611   -16188507.667 8 -12368588.78746  22378994.375    22379001.1714
 01  7 19 17 49  0.0010000  0  9 26 22 21 17 06 15 23 18 03
  23136578.992    -4824352.685 8  -3748409.03346  23136579.049    23136585.9474
  24376583.126     1598784.010 7   1256010.40145  24376582.124    24376591.7174
  22196716.057   -17904346.620 9 -13938441.82647  22196715.644    22196722.8434
  21010378.961    -3507527.293 9  -2728638.39547  21010378.578    21010385.1904
  24018840.944    16585646.512 7  12804148.69545  24018840.802    24018851.2544
  20503934.575   -11582280.600 9  -9015910.35348  20503934.012    20503940.1484
  21295516.468    -6361700.202 9  -4947282.59348  21295515.991    21295522.1884
  20524308.726   -18168382.579 9 -13927544.40248  20524308.417    20524313.0984
  22366272.099   -16255364.704 8 -12420685.15746  22366271.842    22366278.5814
 01  7 19 17 49 30.0010000  0  9 26 22 21 17 06 15 23 18 03
  23149993.235    -4753860.841 8  -3693480.34946  23149993.183    23150000.1354
  24390381.270     1671294.954 7   1312512.34645  24390380.561    24390390.1934
  22185644.461   -17962528.146 9 -13983778.03347  22185644.058    22185651.1834
  21016550.731    -3475094.141 9  -2703365.81547  21016550.425    21016556.9354
  24039674.144    16695124.233 8  12889455.74545  24039673.979    24039684.3934
  20505108.567   -11576110.864 9  -9011102.77348  20505108.049    20505114.2174
  21303285.525    -6320873.616 9  -4915469.68548  21303285.053    21303291.2754
  20524896.198   -18165295.330 9 -13925138.75048  20524895.860    20524900.5624
  22353630.270   -16321797.400 8 -12472450.86847  22353630.074    22353636.8234
 01  7 19 17 50  0.0010000  0  9 26 22 21 17 06 15 23 18 03
  23163502.487    -4682868.919 8  -3638162.00746  23163502.451    23163509.5734
  24404223.838     1744038.441 8   1369195.46445  24404223.128    24404232.8594
  22174627.567   -18020422.234 9 -14028890.25047  22174627.175    22174634.3024
  21022779.246    -3442363.596 9  -2677861.50547  21022778.863    21022785.3434
  24060537.112    16804757.790 7  12974884.22745  24060536.797    24060547.3264
  20506345.945   -11569608.500 9  -9006036.00648  20506345.383    20506351.5924
  21311112.436    -6279742.906 9  -4883419.78948  21311111.934    21311118.1664
  20525568.272   -18161763.369 9 -13922386.57348  20525567.985    20525572.6764
  22341069.635   -16387803.647 8 -12523884.28247  22341069.469    22341076.2404
 01  7 19 17 50 30.0010000  0  9 26 22 21 17 06 15 23 18 03
  23177106.656    -4611378.865 8  -3582455.49046  23177106.673    23177113.6864
  24418110.347     1817012.023 7   1426057.89645  24418109.595    24418119.2324
  22163665.569   -18078027.738 9 -14073777.61747  22163665.184    22163672.2674
  21029064.352    -3409335.021 9  -2652124.96847  21029064.012    21029070.5074
  24081429.006    16914545.562 7  13060432.85645  24081428.893    24081439.5184
  20507646.727   -11562772.768 9  -9000709.46248  20507646.202    20507652.4064
  21318997.027    -6238309.189 9  -4851133.78548  21318996.556    21319002.7524
  20526324.972   -18157787.183 9 -13919288.24448  20526324.641    20526329.3494
  22328590.791   -16453380.800 8 -12574983.38047  22328590.548    22328597.3144
 01  7 19 17 51  0.0010000  0  9 26 22 21 17 06 15 23 18 03
  23190804.880    -4539393.923 8  -3526363.35346  23190804.820    23190811.9264
  24432040.122     1890212.525 8   1483097.13745  24432039.331    24432049.0724
  22152758.341   -18135344.887 9 -14118440.27647  22152757.975    22152765.1234
  21035406.152    -3376008.771 9  -2626156.47247  21035405.802    21035412.2514
  24102349.860    17024484.541 7  13146099.31845  24102349.789    24102360.4764
  20509010.960   -11555603.886 9  -8995123.31848  20509010.397    20509016.5704
  21326938.878    -6196574.714 9  -4818613.42248  21326938.368    21326944.5344
  20527165.777   -18153368.376 9 -13915845.02048  20527165.469    20527170.2164
  22316193.853   -16518526.967 8 -12625746.56447  22316193.651    22316200.4504
 01  7 19 17 51 30.0010000  0  9 26 22 21 17 06 15 23 18 03
  23204596.802    -4466916.061 8  -3469887.12746  23204596.862    23204603.9584
  24446012.863     1963637.910 8   1540311.60045  24446011.878    24446021.6324
  22141906.104   -18192373.670 9 -14162878.24447  22141905.718    22141912.9034
  21041804.734    -3342384.143 9  -2599955.48547  21041804.392    21041810.8354
  24123299.218    17134573.028 7  13231882.27645  24123299.227    24123309.7904
  20510438.741   -11548101.010 9  -8989276.92548  20510438.199    20510444.3654
  21334937.737    -6154540.709 9  -4785859.65847  21334937.190    21334943.3944
  20528090.722   -18148507.512 9 -13912057.33148  20528090.419    20528095.1844
  22303879.417   -16583239.550 8 -12676171.90047  22303879.166    22303886.0604
 01  7 19 17 52  0.0010000  0  9 26 22 21 17 06 15 23 18 03
  23218481.981    -4393948.628 8  -3413029.43646  23218482.050    23218489.3004
  24460027.444     2037283.923 8   1597698.07145  24460026.426    24460036.2744
  22131108.672   -18249114.473 9 -14207091.81547  22131108.313    22131115.5284
  21048259.948    -3308462.002 9  -2573522.66147  21048259.563    21048266.0494
  24144276.382    17244807.941 7  13317779.31145  24144276.485    24144287.1244
  20511929.989   -11540264.537 9  -8983170.58348  20511929.407    20511935.6224
  21342993.084    -6112209.527 9  -4752874.33347  21342992.544    21342998.7104
  20529099.456   -18143206.428 9 -13907926.61848  20529099.180    20529103.9424
  22291647.938   -16647517.008 8 -12726258.20947  22291647.593    22291654.3664
 01  7 19 17 52 30.0010000  0  9 26 22 21 17 06 15 23 18 03
  23232460.035    -4320493.636 8  -3355791.79346  23232460.093    23232467.4824
  24474083.368     2111147.683 8   1655254.17445  24474082.295    24474092.1774
  22120366.161   -18305566.267 9 -14251080.18247  22120365.869    22120373.0364
  21054771.937    -3274241.448 9  -2546857.31547  21054771.565    21054778.0324
  24165281.257    17355187.584 7  13403789.12045  24165281.134    24165291.8814
  20513484.804   -11532093.639 9  -8976803.66048  20513484.270    20513490.4974
  21351104.759    -6069582.274 9  -4719658.30447  21351104.248    21351110.3814
  20530191.892   -18137465.452 9 -13903453.13048  20530191.644    20530196.4224
  22279499.565   -16711356.716 8 -12776003.41247  22279499.234    22279505.9364
 01  7 19 17 53  0.0010000  0  9 26 22 21 17 06 15 23 18 03
  23246530.546    -4246553.769 8  -3298176.35146  23246530.541    23246537.8494
  24488180.251     2185226.553 7   1712977.84245  24488179.076    24488188.6954
  22109678.883   -18361728.865 9 -14294843.20647  22109678.518    22109685.5814
  21061340.700    -3239722.540 9  -2519959.47647  21061340.317    21061346.8054
  24186313.073    17465709.385 7  13489909.72145  24186312.994    24186323.6474
  20515103.335   -11523588.194 9  -8970176.04548  20515102.820    20515109.0704
  21359272.441    -6026660.722 9  -4686212.95047  21359271.924    21359278.0604
  20531367.824   -18131285.994 9 -13898637.97048  20531367.570    20531372.3474
  22267434.957   -16774756.543 8 -12825405.83047  22267434.636    22267441.3974
 01  7 19 17 53 30.0010000  0  9 26 22 21 17 06 15 23 18 03
  23260692.572    -4172131.444 8  -3240184.96446  23260692.627    23260699.9794
  24502317.537     2259517.894 7   1770867.09745  24502316.429    24502325.9774
  22099046.442   -18417602.562 9 -14338381.10647  22099046.079    22099053.1574
  21067966.274    -3204904.945 9  -2492828.88547  21067965.931    21067972.3834
  24207371.684    17576371.212 8  13576139.44645  24207371.575    24207382.1324
  20516785.648   -11514747.770 9  -8963287.41148  20516785.085    20516791.3024
  21367495.843    -5983446.465 9  -4652539.51447  21367495.341    21367501.4194
  20532627.049   -18124668.892 9 -13893481.79148  20532626.798    20532631.5444
  22255454.500   -16837714.176 8 -12874463.70647  22255454.150    22255460.9604
 01  7 19 17 54  0.0010000  0  9 26 22 21 17 06 15 23 18 03
  23274945.821    -4097229.047 8  -3181819.50746  23274946.000    23274953.3444
  24516494.811     2334019.166 7   1828919.92745  24516493.614    24516503.2464
  22088469.161   -18473186.220 9 -14381693.00147  22088468.762    22088475.8904
  21074648.775    -3169788.169 9  -2465465.18047  21074648.454    21074654.8564
  24228456.413    17687171.282 7  13662476.84845  24228456.338    24228466.9124
  20518531.821   -11505571.518 9  -8956137.08448  20518531.286    20518537.4624
  21375774.680    -5939940.871 9  -4618639.06747  21375774.169    21375780.3064
  20533969.453   -18117614.642 9 -13887984.97048  20533969.159    20533973.9404
  22243558.486   -16900227.398 8 -12923175.28347  22243558.185    22243565.0734
 01  7 19 17 54 30.0010000  0  9 26 22 21 17 06 15 23 18 03
  23289290.143    -4021848.939 8  -3123081.81146  23289290.409    23289297.6684
  24530711.440     2408727.202 7   1887133.86945  24530710.243    24530719.8674
  22077947.217   -18528479.489 9 -14424778.62447  22077946.805    22077953.8924
  21081388.364    -3134371.944 9  -2437868.14447  21081387.979    21081394.3894
  24249566.900    17798107.410 7  13748920.28245  24249566.914    24249577.5824
  20520342.066   -11496059.023 9  -8948724.76348  20520341.493    20520347.6684
  21384108.725    -5896145.299 9  -4584512.66347  21384108.230    21384114.3484
  20535394.883   -18110124.197 9 -13882148.26248  20535394.582    20535399.3244
  22231747.534   -16962293.673 8 -12971538.59747  22231747.302    22231754.2074
 01  7 19 17 55  0.0010000  0  9 26 22 21 17 06 15 23 18 03
  23303725.002    -3945994.010 8  -3063974.12046  23303725.207    23303732.3534
  24544966.252     2483638.484 7   1945506.18845  24544965.284    24544975.1984
  22067480.334   -18583483.069 9 -14467638.52347  22067479.942    22067486.9814
  21088184.772    -3098656.312 9  -2410037.79747  21088184.414    21088190.8184
  24270702.870    17909177.035 7  13835467.69845  24270702.922    24270713.7064
  20522216.136   -11486210.334 9  -8941050.47648  20522215.606    20522221.8044
  21392497.517    -5852061.779 9  -4550161.88047  21392497.062    21392503.1394
  20536902.949   -18102199.025 9 -13875972.80748  20536902.678    20536907.4244
  22220022.062   -17023911.220 8 -13019552.25147  22220021.909    22220028.8134
 01  7 19 17 55 30.0010000  0  9 26 22 21 17 06 15 23 18 03
  23318249.657    -3869667.232 8  -3004498.74946  23318249.752    23318257.0454
  24559259.308     2558750.223 7   2004034.72545  24559258.629    24559268.5614
  22057068.573   -18638196.896 9 -14510272.62747  22057068.209    22057075.2464
  21095038.143    -3062641.593 9  -2381974.37947  21095037.789    21095044.1754
  24291863.996    18020377.435 8  13922117.03045  24291863.961    24291874.7384
  20524154.318   -11476025.377 9  -8933114.15548  20524153.774    20524159.9674
  21400940.796    -5807692.188 9  -4515588.18447  21400940.327    21400946.3674
  20538493.557   -18093840.396 9 -13869459.59148  20538493.307    20538498.0174
  22208382.341   -17085077.922 8 -13067214.59247  22208382.237    22208389.0814
 01  7 19 17 56  0.0010000  0  9 26 22 21 17 06 15 23 18 03
  23332863.497    -3792871.369 8  -2944657.85746  23332863.595    23332870.8554
  24573590.074     2634059.581 7   2062717.18145  24573589.527    24573599.6654
  22046711.929   -18692620.801 9 -14552680.82547  22046711.599    22046718.6824
  21101948.503    -3026327.564 9  -2353677.74947  21101948.095    21101954.5564
  24313049.822    18131706.358 8  14008866.50545  24313049.476    24313060.2654
  20526156.488   -11465503.971 9  -8924915.67048  20526155.898    20526162.1864
  21409438.128    -5763038.353 9  -4480793.00647  21409437.675    21409443.7274
  20540166.424   -18085049.666 9 -13862609.67448  20540166.139    20540170.8434
  22196828.917   -17145791.841 8 -13114524.11447  22196828.735    22196835.5724
 01  7 19 17 56 30.0010000  0  9 26 22 21 17 06 15 23 18 03
  23347566.007    -3715608.738 8  -2884453.26646  23347566.236    23347573.5134
  24587958.010     2709563.708 7   2121551.48045  24587957.580    24587967.9024
  22036410.665   -18746754.176 9 -14594862.64547  22036410.361    22036417.4484
  21108915.832    -2989713.858 9  -2325147.60947  21108915.472    21108921.9364
  24334259.329    18243161.887 7  14095714.63445  24334258.953    24334269.8354
  20528222.725   -11454645.427 9  -8916454.48548  20528222.197    20528228.4954
  21417989.382    -5718101.572 9  -4445777.35247  21417988.905    21417994.9704
  20541921.359   -18075827.459 9 -13855423.54748  20541921.074    20541925.7974
  22185361.973   -17206050.580 8 -13161478.95647  22185361.824    22185368.6924
 01  7 19 17 57  0.0010000  0  9 26 22 21 17 06 15 23 18 03
  23362357.052    -3637882.135 8  -2823887.11846  23362357.157    23362364.4704
  24602362.552     2785259.010 7   2180534.70045  24602362.018    24602372.3094
  22026164.611   -18800597.633 9 -14636818.54647  22026164.304    22026171.3814
  21115940.360    -2952800.413 9  -2296383.89947  21115939.939    21115946.3524
  24355492.471    18354741.577 7  14182659.51045  24355492.133    24355502.8914
  20530353.293   -11443449.359 9  -8907730.29148  20530352.753    20530359.0744
  21426594.052    -5672883.651 9  -4410542.62847  21426593.558    21426599.7594
  20543758.102   -18066175.121 9 -13847902.25048  20543757.832    20543762.5564
  22173982.019   -17265852.398 8 -13208077.75747  22173981.852    22173988.7274
 01  7 19 17 57 30.0010000  0  9 26 22 21 17 06 15 23 18 03
  23377235.628    -3559694.174 8  -2762961.47846  23377235.806    23377243.1904
  24616802.870     2861142.633 8   2239664.69045  24616802.282    24616812.7364
  22015973.750   -18854150.769 9 -14678548.22147  22015973.429    22015980.5224
  21123021.760    -2915587.101 9  -2267386.53847  21123021.357    21123027.8284
  24376748.884    18466443.142 7  14269699.34945  24376748.497    24376759.3864
  20532548.061   -11431915.622 9  -8898742.97748  20532547.533    20532553.8884
  21435251.947    -5627386.152 9  -4375090.05447  21435251.454    21435257.6994
  20545676.584   -18056093.522 9 -13840046.46148  20545676.294    20545680.9864
  22162689.529   -17325194.874 8 -13254318.63347  22162689.409    22162696.1044
 01  7 19 17 58  0.0010000  0  9 26 22 21 17 06 15 23 18 03
  23392201.553    -3481047.251 8  -2701678.21146  23392201.786    23392209.2014
  24631278.792     2937212.572 7   2298939.88145  24631277.962    24631288.4224
  22005838.252   -18907413.033 9 -14720051.25447  22005837.926    22005845.0124
  21130160.329    -2878073.587 9  -2238155.25247  21130159.965    21130166.4194
  24398028.102    18578264.687 7  14356832.64345  24398027.816    24398038.7334
  20534807.186   -11420043.874 9  -8889492.27948  20534806.649    20534813.0014
  21443962.768    -5581610.616 9  -4339420.82747  21443962.274    21443968.5194
  20547676.549   -18045583.777 9 -13831857.05348  20547676.260    20547680.9654
  22151484.962   -17384075.666 8 -13300199.74347  22151484.786    22151491.4314
 01  7 19 17 58 30.0010000  0  9 26 22 21 17 06 15 23 18 03
  23407254.542    -3401944.610 8  -2640039.82046  23407254.605    23407261.8534
  24645788.932     3013465.232 7   2358357.42845  24645788.315    24645798.9524
  21995758.025   -18960384.657 9 -14761327.80647  21995757.724    21995764.8254
  21137355.999    -2840260.078 9  -2208690.20047  21137355.623    21137362.1404
  24419329.799    18690203.262 7  14444057.16345  24419329.319    24419340.2844
  20537130.578   -11407834.095 9  -8879978.18248  20537130.091    20537136.4754
  21452726.132    -5535559.129 9  -4303536.57047  21452725.597    21452731.8614
  20549757.690   -18034647.286 9 -13823335.11848  20549757.359    20549762.1764
  22140368.544   -17442493.344 8 -13345719.99547  22140368.312    22140374.9204
 01  7 19 17 59  0.0010000  0 10 26 22 21 17 06 15 23 18 31 03
  23422392.969    -3322390.959 8  -2578050.00246  23422393.164    23422400.4094
  24660332.980     3089895.141 7   2417913.08045  24660332.407    24660343.3294
  21985732.844   -19013067.286 9 -14802379.17147  21985732.514    21985739.6364
  21144608.459    -2802148.470 9  -2178992.87147  21144608.102    21144614.6144
  24440652.851    18802254.618 7  14531369.54345  24440652.298    24440663.5714
  20539518.107   -11395287.969 9  -8870201.99748  20539517.548    20539523.9014
  21461541.226    -5489235.412 9  -4267440.18947  21461540.734    21461546.9514
  20551919.389   -18023287.344 9 -13814483.22048  20551919.092    20551923.9154
  24727794.290    -2208503.480 7  -1696161.56045  24727793.635    24727801.9584
  22129340.120   -17500447.776 8 -13390879.27447  22129339.857    22129346.5354
 01  7 19 17 59 30.0010000  0 10 26 22 21 17 06 15 23 18 31 03
  23437617.194    -3242388.634 8  -2515710.55346  23437617.325    23437624.4744
  24674910.637     3166499.593 7   2477604.72445  24674909.985    24674920.6774
  21975762.599   -19065461.058 9 -14843205.45047  21975762.257    21975769.3634
  21151917.677    -2763738.376 9  -2149062.93947  21151917.302    21151923.7694
  24461996.770    18914416.809 7  14618768.28045  24461996.172    24462007.7864
  20541969.670   -11382404.768 9  -8860163.15348  20541969.161    20541975.5304
  21470407.912    -5442640.752 9  -4231132.68347  21470407.406    21470413.5924
  20554161.573   -18011504.659 9 -13805301.91548  20554161.300    20554166.1354
  24708582.381    -2309460.947 7  -1774829.62245  24708581.875    24708590.3684
  22118400.273   -17557936.474 8 -13435675.65447  22118400.080    22118406.8824
 01  7 19 18  0  0.0010000  0 10 26 22 21 17 06 15 23 18 31 03
  23452926.914    -3161936.153 8  -2453020.33946  23452926.837    23452933.9864
  24689521.614     3243280.203 7   2537433.71145  24689520.901    24689531.5704
  21965848.217   -19117561.308 9 -14883803.01247  21965847.850    21965854.9654
  21159284.520    -2725025.314 9  -2118896.93347  21159284.172    21159290.5674
  24483362.114    19026691.745 7  14706254.87045  24483361.600    24483373.4494
  20544486.322   -11369180.163 9  -8849858.27948  20544485.778    20544492.0984
  21479326.595    -5395772.560 9  -4194612.03747  21479326.132    21479332.3374
  20556484.818   -17999296.216 9 -13795788.85048  20556484.492    20556489.3084
  24689412.081    -2410200.414 7  -1853327.83145  24689411.807    24689420.4084
  22107550.379   -17614953.254 8 -13480104.29847  22107550.151    22107556.9444
 01  7 19 18  0 30.0010000  0 10 26 22 21 17 06 15 23 18 31 03
  23468321.342    -3081036.893 8  -2389982.00945  23468321.350    23468328.6434
  24704165.386     3320233.600 8   2597397.30545  24704164.672    24704175.3944
  21955989.493   -19169369.029 9 -14924172.62947  21955989.125    21955996.2244
  21166708.983    -2686009.937 9  -2088495.35947  21166708.603    21166714.9884
  24504748.413    19139076.565 7  14793827.08945  24504747.935    24504760.0224
  20547067.854   -11355614.368 9  -8839287.53548  20547067.291    20547073.6164
  21488297.028    -5348632.950 9  -4157879.90447  21488296.542    21488302.7544
  20558888.649   -17986663.711 9 -13785945.34548  20558888.368    20558893.1514
  24670283.796    -2510719.482 7  -1931654.33645  24670283.548    24670292.0154
  22096790.553   -17671496.760 8 -13524164.15547  22096790.290    22096797.0574
 01  7 19 18  1  0.0010000  0 11 26 22 21 14 17 06 15 23 18 31 03
  23483800.205    -2999694.627 8  -2326598.47645  23483800.233    23483807.5184
  24718841.397     3397355.689 7   2657492.36245  24718840.702    24718851.3724
  21946186.340   -19220885.080 9 -14964314.96847  21946185.961    21946192.9914
  24916088.178                                    24916095.016    24916098.8104
  21174190.809    -2646693.020 9  -2057858.81947  21174190.393    21174196.8134
  24526155.106    19251568.026 7  14881482.41045  24526154.885    24526166.8944
  20549714.165   -11341708.016 9  -8828451.42748  20549713.589    20549719.9104
  21497318.607    -5301224.575 9  -4120938.33747  21497318.086    21497324.2934
  20561372.794   -17973609.475 9 -13775773.21948  20561372.528    20561377.3174
  24651197.717    -2611016.910 7  -2009808.11445  24651197.402    24651205.9064
  22086120.864   -17727565.817 8 -13567854.31747  22086120.657    22086127.3814
 01  7 19 18  1 30.0010000  0 11 26 22 21 14 17 06 15 23 18 31 03
  23499362.946    -2917912.140 8  -2262871.88545  23499363.079    23499370.1614
  24733548.589     3474643.097 7   2717716.22545  24733548.011    24733558.7734
  21936438.738   -19272109.034 9 -15004229.70347  21936438.320    21936445.3764
  24894133.371     -634391.94355                  24894130.662    24894143.4444
  21181729.934    -2607074.485 9  -2026987.25147  21181729.564    21181736.0204
  24547581.394    19364163.891 7  14969219.08845  24547581.293    24547593.6674
  20552425.343   -11327460.841 9  -8817349.74348  20552424.772    20552431.0374
  21506390.985    -5253549.189 9  -4083788.71647  21506390.456    21506396.6524
  20563937.028   -17960134.498 9 -13765273.24648  20563936.773    20563941.5554
  24632154.565    -2711090.031 7  -2087787.11345  24632154.185    24632162.5694
  22075541.947   -17783158.438 8 -13611173.23647  22075541.781    22075548.4124
 01  7 19 18  2  0.0010000  0 11 26 22 21 14 17 06 15 23 18 31 03
  23515008.912    -2835693.067 8  -2198805.12145  23515008.918    23515015.9234
  24748286.428     3552091.888 7   2778065.81445  24748285.928    24748296.7884
  21926746.469   -19323042.047 9 -15043917.73147  21926746.040    21926753.0684
  24872180.737     -957105.24017   -724283.28545  24872179.349    24872188.4894
  21189326.370    -2567155.256 9  -1995881.37647  21189325.965    21189332.4774
  24569026.841    19476860.658 7  15057034.37145  24569026.717    24569039.3174
  20555201.249   -11312873.498 9  -8805982.99548  20555200.661    20555206.9404
  21515513.536    -5205609.440 9  -4046433.08947  21515513.040    21515519.2474
  20566580.918   -17946241.025 9 -13754447.17048  20566580.642    20566585.4124
  24613154.091    -2810937.240 7  -2165590.05645  24613153.819    24613162.2564
  22065053.995   -17838273.736 9 -13654120.20147  22065053.741    22065060.3684
 01  7 19 18  2 30.0010000  0 11 26 22 21 14 17 06 15 23 18 31 03
  23530737.415    -2753039.585 8  -2134399.85745  23530737.439    23530744.3924
  24763054.697     3629700.134 7   2838539.67045  24763054.414    24763065.3344
  21917109.720   -19373683.385 9 -15083378.49147  21917109.291    21917116.3094
  24850230.374    -1072451.326 7   -814163.05945  24850229.464    24850239.7434
  21196980.096    -2526934.540 9  -1964540.59347  21196979.686    21196986.1974
  24590491.529    19589656.612 7  15144926.91545  24590491.146    24590503.8674
  20558041.967   -11297945.153 9  -8794350.53648  20558041.434    20558047.7574
  21524686.272    -5157406.202 9  -4008872.15247  21524685.810    21524692.0254
  20569304.357   -17931929.683 9 -13743295.47948  20569304.017    20569308.7534
  24594197.293    -2910555.189 7  -2243214.35445  24594197.012    24594205.5564
  22054657.404   -17892908.913 9 -13696693.04847  22054657.118    22054663.6584
 01  7 19 18  3  0.0010000  0 11 26 22 21 14 17 06 15 23 18 31 03
  23546547.924    -2669955.047 8  -2069658.67945  23546547.974    23546554.9684
  24777852.992     3707464.389 8   2899135.09645  24777852.629    24777863.4244
  21907528.478   -19424033.299 9 -15122612.15147  21907527.994    21907535.0674
  24828283.486    -1187780.707 7   -904029.76945  24828282.358    24828293.2744
  21204691.088    -2486412.811 9  -1932965.24247  21204690.698    21204697.2814
  24611974.249    19702549.001 7  15232894.61944  24611974.144    24611986.9634
  20560947.646   -11282675.943 9  -8782452.46548  20560947.083    20560953.3784
  21533908.806    -5108941.895 9  -3971107.78047  21533908.306    21533914.5344
  20572106.821   -17917202.251 9 -13731819.56848  20572106.547    20572111.3194
  24575284.818    -3009941.910 7  -2320658.49645  24575284.385    24575292.7274
  22044352.352   -17947062.653 9 -13738890.74847  22044351.983    22044358.5694
 01  7 19 18  3 30.0010000  0 11 26 22 21 14 17 06 15 23 18 31 03
  23562440.139    -2586441.549 8  -2004583.29145  23562440.182    23562447.0674
  24792680.345     3785382.092 7   2959850.07845  24792679.985    24792691.0424
  21898002.661   -19474091.556 9 -15161618.56447  21898002.238    21898009.2274
  24806340.376    -1303089.853 7   -993880.72145  24806339.469    24806350.8864
  21212459.585    -2445589.112 9  -1901154.59447  21212459.190    21212465.8504
  24633475.510    19815536.413 7  15320936.38644  24633475.169    24633487.8784
  20563918.295   -11267065.016 9  -8770288.12448  20563917.726    20563924.0144
  21543180.679    -5060217.370 9  -3933140.64147  21543180.266    21543186.5254
  20574988.463   -17902059.089 9 -13720019.71148  20574988.182    20574992.9234
  24556416.526    -3109093.938 7  -2397919.71445  24556416.178    24556424.5924
  22034139.282   -18000732.232 9 -13780711.18647  22034138.953    22034145.5794
 01  7 19 18  4  0.0010000  0 11 26 22 21 14 17 06 15 23 18 31 03
  23578413.779    -2502501.140 8  -1939175.19945  23578413.643    23578420.2834
  24807536.655     3863450.620 8   3020682.61545  24807535.989    24807547.0124
  21888532.587   -19523857.125 9 -15200396.90747  21888532.234    21888539.1354
  24784401.693    -1418375.502 7  -1083713.39845  24784401.146    24784412.8164
  21220285.640    -2404462.767 9  -1869108.11047  21220285.272    21220291.9104
  24654994.068    19928616.953 7  15409050.67744  24654994.181    24655006.5304
  20566954.222   -11251111.457 9  -8757856.80048  20566953.634    20566959.9074
  21552502.061    -5011233.529 9  -3894971.43847  21552501.584    21552507.9024
  20577949.121   -17886500.989 9 -13707896.52648  20577948.783    20577953.4864
  24537593.617    -3208008.006 7  -2474995.53645  24537593.397    24537601.5664
  22024018.664   -18053915.203 8 -13822152.45347  22024018.499    22024025.2024
 01  7 19 18  4 30.0010000  0 11 26 22 21 14 17 06 15 23 18 31 03
  23594467.720    -2418137.469 8  -1873437.30445  23594467.700    23594473.9594
  24822420.903     3941666.507 8   3081629.93645  24822420.135    24822431.0244
  21879118.085   -19573330.930 9 -15238947.89547  21879117.662    21879124.5094
  24762467.996    -1533635.829 7  -1173526.33145  24762468.029    24762479.8284
  21228169.262    -2363034.510 9  -1836826.37347  21228168.854    21228175.5334
  24676529.886    20041787.678 7  15497235.25944  24676530.342    24676542.6144
  20570055.196   -11234815.786 9  -8745158.88448  20570054.637    20570060.8814
  21561872.236    -4961992.774 9  -3856602.04447  21561871.797    21561878.1114
  20580988.341   -17870529.834 9 -13695451.47948  20580988.028    20580992.7554
  24518817.114    -3306682.151 8  -2551884.44545  24518816.456    24518824.4214
  22013990.981   -18106610.251 9 -13863213.51347  22013990.941    22013997.6184
 01  7 19 18  5  0.0010000  0 11 26 22 21 14 17 06 15 23 18 31 03
  23610601.643    -2333353.772 8  -1807372.13845  23610601.511    23610607.9404
  24837332.804     4020026.780 8   3142689.81745  24837331.902    24837342.5554
  21869758.932   -19622513.351 9 -15277271.83147  21869758.541    21869765.4204
  24740539.891    -1648868.614 7  -1263317.85445  24740539.971    24740551.5654
  21236110.255    -2321304.598 9  -1804309.58747  21236109.797    21236116.5254
  24698082.438    20155045.804 7  15585487.94744  24698083.151    24698095.4544
  20573221.378   -11218177.969 9  -8732194.36448  20573220.746    20573226.9974
  21571291.010    -4912497.162 9  -3818034.05347  21571290.546    21571296.8674
  20584105.791   -17854147.391 9 -13682685.95148  20584105.480    20584110.2534
  24500086.035    -3405114.477 7  -2628584.88345  24500085.434    24500093.4244
  22004056.767   -18158815.869 9 -13903893.19447  22004056.609    22004063.2274
 01  7 19 18  5 30.0010000  0 11 26 22 21 14 17 06 15 23 18 31 03
  23626814.817    -2248152.823 8  -1740981.81245  23626814.796    23626821.3054
  24852271.342     4098528.500 8   3203859.91045  24852270.391    24852280.9514
  21860455.369   -19671403.946 9 -15315368.36647  21860454.962    21860461.8124
  24718617.288    -1764071.299 7  -1353085.97145  24718617.239    24718628.5394
  21244108.668    -2279272.805 9  -1771557.55647  21244108.250    21244114.9254
  24719651.907    20268389.152 7  15673806.97944  24719652.210    24719664.3154
  20576452.617   -11201197.463 9  -8718962.82348  20576452.058    20576458.2884
  21580757.917    -4862748.182 9  -3779268.63747  21580757.463    21580763.7964
  20587301.371   -17837354.595 9 -13669600.67048  20587301.068    20587305.8374
  24481401.572    -3503302.008 7  -2705094.59045  24481401.109    24481408.8854
  21994215.830   -18210530.159 8 -13944190.02647  21994215.652    21994222.3024
 01  7 19 18  6  0.0010000  0 11 26 22 21 14 17 06 15 23 18 31 03
  23643106.959    -2162536.852 8  -1674268.10945  23643106.947    23643113.5454
  24867236.196     4177168.661 7   3265137.86845  24867235.172    24867245.9194
  21851207.405   -19720002.251 9 -15353237.15347  21851206.974    21851213.8644
  24696700.974    -1879240.674 7  -1442828.05945  24696701.000    24696712.0204
  21252164.676    -2236938.493 9  -1738569.81147  21252164.203    21252170.9084
  24741236.974    20381816.069 7  15762191.17944  24741237.037    24741249.1354
  20579749.249   -11183873.627 9  -8705463.74048  20579748.667    20579754.9014
  21590272.804    -4812746.849 9  -3740306.58647  21590272.386    21590278.7644
  20590574.959   -17820152.111 9 -13656196.14848  20590574.602    20590579.3624
  24462764.055    -3601241.950 7  -2781411.39945  24462763.503    24462771.1684
  21984468.781   -18261750.743 8 -13984102.16447  21984468.659    21984475.3804
 01  7 19 18  6 30.0010000  0 11 26 22 21 14 17 06 15 23 18 31 03
  23659477.539    -2076508.406 8  -1607232.98745  23659477.694    23659484.1604
  24882226.675     4255944.512 7   3326521.56545  24882225.793    24882236.5624
  21842014.993   -19768308.527 9 -15390878.38547  21842014.578    21842021.5064
  24674791.565    -1994374.130 7  -1532542.17645  24674791.727    24674802.6654
  21260278.097    -2194301.604 9  -1705346.29047  21260277.726    21260284.3864
  24762837.718    20495324.332 7  15850638.76944  24762837.234    24762849.5814
  20583111.279   -11166205.873 9  -8691696.67748  20583110.729    20583116.9674
  21599835.495    -4762494.768 9  -3701149.15247  21599835.055    21599841.4234
  20593926.191   -17802541.191 9 -13642473.36848  20593925.862    20593930.6274
  24444173.743    -3698931.297 7  -2857532.88345  24444173.541    24444181.5214
  21974816.300   -18312475.341 9 -14023627.81747  21974816.091    21974822.7924
 01  7 19 18  7  0.0010000  0 11 26 22 21 14 17 06 15 23 18 31 03
  23675926.123    -1990070.687 8  -1539878.97345  23675926.317    23675932.9154
  24897242.842     4334853.408 7   3388008.88345  24897241.819    24897252.2524
  21832878.033   -19816322.931 9 -15428292.17447  21832877.683    21832884.6724
  24652889.827    -2109468.839 7  -1622226.12645  24652889.840    24652900.6274
  21268449.221    -2151362.028 9  -1671886.90147  21268448.849    21268455.4764
  24784452.934    20608911.678 7  15939147.97545  24784452.620    24784464.9484
  20586538.826   -11148194.283 9  -8677661.69248  20586538.226    20586544.4644
  21609445.523    -4711993.694 9  -3661797.69147  21609445.102    21609451.4114
  20597354.839   -17784523.285 9 -13628433.45748  20597354.538    20597359.3174
  24425632.117    -3796367.447 7  -2933457.11045  24425631.857    24425639.9934
  21965258.443   -18362702.233 9 -14062765.63147  21965258.208    21965264.9014
 01  7 19 18  7 30.0010000  0 11 26 22 21 14 17 06 15 23 18 31 03
  23692452.080    -1903226.683 8  -1472208.34645  23692452.206    23692458.9214
  24912283.116     4413892.214 7   3449597.46445  24912282.286    24912292.8204
  21823796.740   -19864045.310 9 -15465478.42547  21823796.400    21823803.4104
  24630995.626    -2224522.393 7  -1711878.01945  24630995.627    24631006.6214
  21276677.958    -2108119.931 9  -1638191.79347  21276677.563    21276684.2174
  24806082.371    20722575.313 7  16027716.62745  24806082.346    24806095.0444
  20590031.689   -11129838.945 9  -8663358.84348  20590031.108    20590037.4114
  21619102.684    -4661245.578 9  -3622253.72647  21619102.257    21619108.4464
  20600860.749   -17766099.747 9 -13614077.47048  20600860.441    20600865.2184
  24407139.382    -3893547.894 7  -3009182.09145  24407139.030    24407147.2104
  21955795.719   -18412429.812 9 -14101514.37847  21955795.409    21955802.0304
 01  7 19 18  8  0.0010000  0 11 26 22 21 14 17 06 15 23 18 31 03
  23709054.805    -1815979.217 8  -1404223.35645  23709054.912    23709061.7314
  24927347.737     4493057.798 7   3511284.78445  24927346.907    24927357.6564
  21814771.013   -19911475.888 9 -15502437.29347  21814770.619    21814777.5864
  24609109.964    -2339532.286 7  -1801495.91545  24609109.888    24609120.8254
  21284964.326    -2064575.242 9  -1604260.89047  21284963.936    21284970.5114
  24827725.996    20836313.034 7  16116343.00845  24827726.053    24827738.6864
  20593590.140   -11111139.298 9  -8648787.69748  20593589.555    20593595.8344
  21628806.537    -4610251.961 9  -3582518.46047  21628806.059    21628812.2204
  20604443.588   -17747271.736 9 -13599406.30348  20604443.281    20604448.0484
  24388695.496    -3990470.138 7  -3084705.84545  24388695.168    24388703.4324
  21946428.242   -18461656.267 9 -14139872.62647  21946427.934    21946434.5774
 01  7 19 18  8 30.0010000  0 10 26 22 21 14 17 15 23 18 31 03
  23725733.604    -1728330.975 8  -1335926.06245  23725733.717    23725740.6304
  24942435.815     4572347.029 7   3573068.59145  24942435.162    24942446.0084
  21805800.887   -19958614.226 9 -15539168.44047  21805800.498    21805807.4254
  24587233.123    -2454495.868 7  -1891077.74245  24587233.093    24587244.0464
  21293308.374    -2020727.696 9  -1570094.00847  21293307.880    21293314.4584
  20597214.260   -11092095.001 9  -8633948.00048  20597213.626    20597219.8924
  21638556.807    -4559014.368 9  -3542593.09247  21638556.349    21638562.5054
  20608103.167   -17728040.571 9 -13584420.98948  20608102.857    20608107.6304
  24370301.280    -4087131.573 7  -3160026.37145  24370300.882    24370309.4784
  21937156.453   -18510379.655 9 -14177838.89547  21937156.153    21937162.8184
 01  7 19 18  9  0.0010000  0 10 26 22 21 14 17 15 23 18 31 03
  23742488.220    -1640284.338 8  -1267318.32845  23742488.387    23742495.3004
  24957546.846     4651757.582 7   3634946.86645  24957546.380    24957557.6814
  21796886.487   -20005459.755 9 -15575671.42047  21796886.080    21796892.9334
  24565365.769    -2569409.993 7  -1980621.02645  24565365.542    24565376.4124
  21301709.991    -1976576.755 9  -1535690.71447  21301709.533    21301716.1634
  20600903.919   -11072705.471 9  -8618839.29948  20600903.311    20600909.5924
  21648353.309    -4507533.868 9  -3502478.44747  21648352.747    21648358.9404
  20611839.282   -17708407.146 9 -13569122.23048  20611838.951    20611843.7874
  24351957.214    -4183529.027 7  -3235141.22945  24351957.072    24351965.5404
  21927980.827   -18558597.663 9 -14215411.34347  21927980.535    21927987.2424
 01  7 19 18  9 30.0010000  0 10 26 22 21 14 17 15 23 18 31 03
  23759318.256    -1551842.712 8  -1198402.82645  23759318.326    23759325.1944
  24972681.038     4731286.341 7   3696917.24045  24972680.393    24972691.4804
  21788027.539   -20052013.610 9 -15611947.12647  21788027.172    21788033.9424
  24543507.943    -2684272.348 8  -2070123.96645  24543507.803    24543518.6234
  21310169.310    -1932122.853 9  -1501051.34447  21310168.887    21310175.5154
  20604659.246   -11052970.919 9  -8603461.73748  20604658.642    20604664.9244
  21658195.481    -4455812.586 9  -3462176.16847  21658194.984    21658201.1994
  20615651.522   -17688373.365 9 -13553511.50548  20615651.232    20615656.0834
  24333663.676    -4279660.552 7  -3310048.85645  24333663.616    24333672.0554
  21918901.621   -18606309.218 9 -14252589.16847  21918901.290    21918908.0384
 01  7 19 18 10  0.0010000  0 10 26 22 21 14 17 15 23 18 31 03
  23776222.787    -1463009.820 8  -1129182.43445  23776222.803    23776229.4354
  24987836.915     4810929.634 7   3758976.88645  24987836.161    24987847.0234
  21779223.995   -20098276.473 9 -15647996.09447  21779223.627    21779230.3604
  24521660.723    -2799081.078 8  -2159585.15245  24521660.278    24521671.0594
  21318686.183    -1887366.778 9  -1466176.51247  21318685.661    21318692.3584
  20608480.201   -11032891.672 9  -8587815.58148  20608479.636    20608485.8964
  21668083.116    -4403852.748 9  -3421688.00247  21668082.609    21668088.8574
  20619539.736   -17667941.102 9 -13537590.27548  20619539.420    20619544.2474
  24315421.352    -4375524.213 7  -3384747.73445  24315421.314    24315429.7264
  21909918.902   -18653513.345 9 -14289371.59147  21909918.659    21909925.3334
 01  7 19 18 10 30.0010000  0 10 26 22 21 14 17 15 23 18 31 03
  23793200.898    -1373787.839 8  -1059658.88145  23793201.180    23793207.9464
  25003013.855     4890684.654 7   3821123.60445  25003013.114    25003024.1074
  21770476.015   -20144247.440 9 -15683817.60647  21770475.613    21770482.3614
  24499824.359    -2913832.902 7  -2249001.99745  24499823.665    24499834.2334
  21327260.584    -1842307.667 9  -1431065.55247  21327260.125    21327266.8784
  20612366.930   -11012467.031 9  -8571900.28648  20612366.326    20612372.5884
  21678015.929    -4351655.273 9  -3381014.66647  21678015.462    21678021.7234
  20623503.620   -17647110.768 9 -13521358.85648  20623503.326    20623508.1444
  24297230.989    -4471116.430 7  -3459235.13845  24297230.856    24297238.9654
  21901033.259   -18700207.438 9 -14325756.57347  21901033.020    21901039.7204
 01  7 19 18 11  0.0010000  0 10 26 22 21 14 17 15 23 18 31 03
  23810252.941    -1284179.404 8   -989834.17445  23810253.145    23810259.9514
  25018211.678     4970548.702 7   3883355.24345  25018210.713    25018221.8374
  21761783.513   -20189926.358 9 -15719411.54947  21761783.121    21761789.9824
  24477998.700    -3028524.786 7  -2338372.11845  24477998.176    24478008.8354
  21335892.809    -1796945.285 9  -1395718.27147  21335892.339    21335899.0614
  20616319.485   -10991696.317 9  -8555715.33248  20616318.879    20616325.1364
  21687993.724    -4299221.482 9  -3340157.18947  21687993.255    21687999.5614
  20627543.103   -17625883.591 9 -13504818.21648  20627542.759    20627547.5724
  24279092.691    -4566434.474 7  -3533508.83745  24279092.555    24279100.6144
  21892245.169   -18746389.220 9 -14361742.37747  21892244.914    21892251.4944
 01  7 19 18 11 30.0010000  0 10 26 22 21 14 17 15 23 18 31 03
  23827377.978    -1194187.163 8   -919710.42845  23827377.950    23827385.0584
  25033429.854     5050519.429 8   3945670.01045  25033428.806    25033439.8864
  21753146.666   -20235313.210 9 -15754777.90547  21753146.250    21753153.1854
  24456184.832    -3143154.141 7  -2427693.45445  24456184.537    24456195.3654
  21344582.720    -1751279.343 8  -1360134.45947  21344582.233    21344589.0154
  20620337.891   -10970579.343 9  -8539260.56148  20620337.278    20620343.5934
  21698016.201    -4246553.011 9  -3299116.84047  21698015.776    21698022.0934
  20631657.768   -17604260.795 9 -13487969.29648  20631657.441    20631662.2644
  24261006.899    -4661475.488 8  -3607566.67845  24261006.755    24261015.0204
  21883554.815   -18792057.021 9 -14397327.66447  21883554.610    21883561.1604
 01  7 19 18 12  0.0010000  0 10 26 22 21 14 17 15 23 18 31 03
  23844575.277    -1103814.469 8   -849290.15945  23844575.364    23844582.4374
  25048667.922     5130593.736 8   4008065.49645  25048666.769    25048677.5054
  21744565.321   -20280408.626 9 -15789917.16947  21744564.891    21744571.8174
  24434383.860    -3257718.589 7  -2516964.28445  24434383.559    24434394.2684
  21353330.357    -1705310.225 8  -1324314.39447  21353329.927    21353336.7244
  20624422.198   -10949116.084 9  -8522535.95548  20624421.630    20624427.9394
  21708083.053    -4193651.539 9  -3257894.93647  21708082.607    21708088.9074
  20635847.468   -17582244.155 9 -13470813.48448  20635847.130    20635851.8954
  24242974.487    -4756237.145 8  -3681406.86545  24242974.298    24242982.5244
  21874962.719   -18837209.303 9 -14432511.24547  21874962.488    21874968.9934
 01  7 19 18 12 30.0010000  0 10 26 22 21 14 17 15 23 18 31 03
  23861844.598    -1013064.441 8   -778575.94145  23861844.608    23861851.8554
  25063924.622     5210767.863 7   4070538.74045  25063923.536    25063934.0224
  21736039.286   -20325212.957 9 -15824829.61447  21736038.893    21736045.8154
  24412595.647    -3372215.987 7  -2606182.84545  24412595.282    24412605.9004
  21362135.617    -1659038.322 8  -1288258.41447  21362135.221    21362141.9884
  20628572.480   -10927306.702 9  -8505541.64448  20628571.857    20628578.1414
  21718193.790    -4140519.537 9  -3216493.39447  21718193.337    21718199.5914
  20640111.657   -17559835.497 9 -13453352.20348  20640111.368    20640116.1344
  24224995.552    -4850717.484 8  -3755027.86345  24224995.414    24225003.4674
  21866468.769   -18881845.032 9 -14467292.32847  21866468.589    21866475.0874
 01  7 19 18 13  0.0010000  0 10 26 22 21 14 17 15 23 18 31 03
  23879184.951     -921939.603 8   -707569.62245  23879185.144    23879192.2944
  25079199.817     5291039.143 7   4133087.70845  25079198.693    25079209.4904
  21727568.807   -20369725.195 9 -15859514.45547  21727568.457    21727575.3874
  24390820.800    -3486642.913 7  -2695346.49645  24390820.617    24390831.0794
  21370998.715    -1612462.914 9  -1251965.92447  21370998.286    21371004.9904
  20632788.588   -10905150.465 9  -8488277.05748  20632788.048    20632794.3034
  21728348.225    -4087157.777 9  -3174912.82047  21728347.778    21728354.0424
  20644450.463   -17537035.134 9 -13435585.70048  20644450.135    20644454.9234
  24207070.580    -4944913.090 7  -3828426.94445  24207070.404    24207078.6264
  21858073.574   -18925961.953 9 -14501669.14647  21858073.371    21858079.9154
 01  7 19 18 13 30.0010000  0 10 26 22 21 14 17 15 23 18 31 03
  23896596.421     -830442.659 8   -636273.36945  23896596.540    23896603.6184
  25094492.923     5371405.061 7   4195710.48045  25094491.784    25094502.3774
  21719153.954   -20413945.648 9 -15893971.92947  21719153.623    21719160.5144
  24369059.767    -3600996.706 7  -2784453.16345  24369059.551    24369070.0844
  21379919.608    -1565583.806 9  -1215436.78047  21379919.160    21379925.7924
  20637070.917   -10882646.954 9  -8470741.86948  20637070.304    20637076.5724
  21738546.017    -4033567.768 9  -3133154.39147  21738545.628    21738551.9114
  20648863.420   -17513844.521 9 -13417515.10348  20648863.120    20648867.9674
  24189200.645    -5038821.003 8  -3901601.89345  24189200.226    24189208.4864
  21849777.470   -18969558.131 9 -14535640.18247  21849777.304    21849783.8254
 01  7 19 18 14  0.0010000  0 10 26 22 21 14 17 15 23 18 31 03
  23914077.996     -738576.976 8   -564689.77245  23914077.939    23914085.0374
  25109803.529     5451862.605 8   4258404.63945  25109802.525    25109813.0894
  21710794.520   -20457874.997 9 -15928202.57747  21710794.180    21710800.9694
  24347313.385    -3715275.015 7  -2873500.97445  24347312.817    24347323.4124
  21388898.118    -1518401.543 8  -1178671.41947  21388897.654    21388904.2744
  20641419.222   -10859796.463 9  -8452936.30748  20641418.623    20641424.9414
  21748786.995    -3979751.388 9  -3091219.57047  21748786.578    21748792.8554
  20653350.325   -17490265.425 9 -13399141.79348  20653350.063    20653354.9194
  24171385.527    -5132439.402 8  -3974551.23745  24171385.118    24171393.3664
  21841580.728   -19012632.342 9 -14569204.48747  21841580.558    21841587.0564
 01  7 19 18 14 30.0010000  0 10 26 22 21 14 17 15 23 18 31 03
  23931628.900     -646344.993 8   -492820.74445  23931629.038    23931636.2384
  25125131.031     5532409.387 7   4321168.28945  25125130.094    25125140.5724
  21702490.523   -20501512.778 9 -15962206.02047  21702490.199    21702496.9794
  24325581.618    -3829474.512 7  -2962487.39445  24325581.190    24325591.8334
  21397934.440    -1470915.383 8  -1141669.24847  21397933.999    21397940.5814
  20645833.738   -10836598.294 9  -8434859.81948  20645833.157    20645839.4534
  21759070.784    -3925709.708 9  -3049109.18547  21759070.399    21759076.6114
  20657911.134   -17466298.589 9 -13380466.34848  20657910.826    20657915.6774
  24153626.073    -5225764.969 7  -4047272.39945  24153625.673    24153633.9754
  21833483.756   -19055182.436 9 -14602360.39147  21833483.534    21833490.0454
 01  7 19 18 15  0.0010000  0  9 26 21 14 17 15 23 18 31 03
  23949249.696     -553747.904 8   -420667.23145  23949249.700    23949257.0294
  21694242.254   -20544857.528 9 -15995981.12747  21694241.909    21694248.6944
  24303865.519    -3943591.113 7  -3051409.21245  24303865.225    24303875.9444
  21407028.872    -1423123.696 9  -1104429.00947  21407028.463    21407035.0584
  20650314.785   -10813050.366 9  -8416510.80548  20650314.165    20650320.5094
  21769397.569    -3871442.550 9  -3006823.10747  21769397.130    21769403.3644
  20662545.717   -17441943.842 9 -13361488.63448  20662545.397    20662550.2114
  24135923.255    -5318793.463 7  -4119762.06445  24135922.858    24135931.2414
  21825487.045   -19097204.977 9 -14635105.22147  21825486.850    21825493.4214
 01  7 19 18 15 30.0010000  0  9 26 21 14 17 15 23 18 31 03
  23966939.135     -460789.698 8   -348232.31845  23966939.063    23966946.5214
  21686049.578   -20587910.262 9 -16029528.68947  21686049.201    21686056.0344
  24282165.567    -4057623.228 7  -3140265.24345  24282165.398    24282176.0854
  21416181.338    -1375027.621 8  -1066951.57647  21416180.896    21416187.4294
  20654862.176   -10789153.485 9  -8397889.87448  20654861.597    20654868.0014
  21779766.692    -3816952.618 9  -2964363.44747  21779766.212    21779772.5054
  20667253.694   -17417203.618 9 -13342210.54748  20667253.358    20667258.1664
  24118277.611    -5411523.156 8  -4192018.89145  24118276.885    24118285.3964
  21817590.952   -19138699.547 9 -14667438.64147  21817590.716    21817597.2754
 01  7 19 18 16  0.0010000  0  9 26 21 14 17 15 23 18 31 03
  23984696.220     -367475.125 8   -275519.68645  23984696.359    23984703.7164
  21677912.072   -20630673.272 9 -16062850.49047  21677911.674    21677918.4984
  24260481.644    -4171570.192 7  -3229054.90545  24260481.718    24260492.5374
  21425391.313    -1326628.904 8  -1029238.33547  21425390.841    21425397.3994
  20659475.665   -10764909.512 9  -8378998.48848  20659475.073    20659481.4794
  21790177.552    -3762243.385 9  -2921732.88947  21790177.074    21790183.3074
  20672034.333   -17392081.258 9 -13322634.69548  20672034.008    20672038.8274
  24100688.950    -5503953.257 7  -4264042.28245  24100688.081    24100696.5344
  21809795.227   -19179666.487 9 -14699360.93147  21809794.973    21809801.5224
 01  7 19 18 16 30.0010000  0  9 26 21 14 17 15 23 18 31 03
  24002520.785     -273806.652 8   -202531.34245  24002520.901    24002528.3364
  21669829.830   -20673145.734 9 -16095945.89547  21669829.439    21669836.2294
  24238815.001    -4285428.441 7  -3317775.42545  24238815.247    24238825.8944
  21434658.950    -1277927.025 8   -991288.85847  21434658.544    21434665.1274
  20664155.456   -10740317.625 9  -8359835.99748  20664154.803    20664161.1374
  21800629.963    -3707315.794 9  -2878932.18947  21800629.478    21800635.7314
  20676887.580   -17366577.274 9 -13302761.47148  20676887.269    20676892.0804
  24083157.592    -5596080.610 7  -4335829.76945  24083156.768    24083164.9664
  21802100.421   -19220103.717 9 -14730870.45147  21802100.060    21802106.5174
 01  7 19 18 17  0.0010000  0  9 26 21 14 17 15 23 18 31 03
  24020412.351     -179787.434 8   -129269.65345  24020412.345    24020419.5634
  21661802.728   -20715328.429 9 -16128815.50247  21661802.336    21661809.1144
  24217166.065    -4399195.714 8  -3406425.07745  24217166.006    24217176.6104
  21443984.351    -1228922.350 8   -953103.44647  21443983.889    21443990.5024
  20668901.270   -10715378.062 9  -8340402.58848  20668900.658    20668906.9994
  21811123.501    -3652171.790 9  -2835962.85447  21811123.024    21811129.3394
  20681813.050   -17340693.614 9 -13282592.39348  20681812.779    20681817.5714
  24065684.181    -5687903.106 7  -4407379.72945  24065683.653    24065691.7304
  21794506.428   -19260009.911 9 -14761966.17747  21794506.117    21794512.6024
 01  7 19 18 17 30.0010000  0  9 26 21 14 17 15 23 18 31 03
  24038369.814      -85420.328 8    -55736.93545  24038369.763    24038377.1524
  21653830.784   -20757221.060 9 -16161459.08747  21653830.415    21653837.1804
  24195534.768    -4512869.311 8  -3495001.77445  24195534.560    24195544.9494
  21453367.388    -1179614.501 8   -914681.78747  21453366.903    21453373.5034
  20673713.297   -10690090.361 9  -8320697.90848  20673712.697    20673719.0684
  21821657.990    -3596812.632 9  -2792825.86147  21821657.531    21821663.8604
  20686810.623   -17314431.575 9 -13262128.47948  20686810.309    20686815.0704
  24048269.455    -5779417.844 7  -4478689.86645  24048268.900    24048276.6454
  21787013.868   -19299383.272 9 -14792646.71647  21787013.644    21787020.0744
 01  7 19 18 18  0.0010000  0  9 26 21 14 17 15 23 18 31 03
  24056392.968        9292.122 8     18064.92945  24056393.046    24056400.5004
  21645914.185   -20798823.063 9 -16193876.21447  21645913.806    21645920.5464
  24173921.795    -4626446.066 8  -3583502.96245  24173921.582    24173931.8984
  21462808.168    -1130003.185 8   -876023.66647  21462807.697    21462814.2384
  20678591.801   -10664453.820 9  -8300721.40648  20678591.219    20678597.5674
  21832233.180    -3541239.527 9  -2749522.16947  21832232.730    21832239.0774
  20691880.052   -17287791.858 9 -13241370.27348  20691879.720    20691884.4624
  24030914.003    -5870621.708 7  -4549757.74945  24030913.455    24030921.1854
  21779623.130   -19338221.897 9 -14822910.57547  21779622.861    21779629.3534
 01  7 19 18 18 30.0010000  0  9 26 21 14 17 15 23 18 31 03
  24074481.388      104347.554 8     92134.05345  24074481.543    24074489.1174
  21638052.832   -20840134.173 9 -16226066.66247  21638052.508    21638059.2614
  24152327.876    -4739922.675 8  -3671926.14945  24152327.711    24152337.8834
  21472306.782    -1080087.942 8   -837128.71147  21472306.301    21472312.8894
  20683536.889   -10638467.795 9  -8280472.56948  20683536.226    20683542.5284
  21842849.015    -3485453.581 9  -2706052.62047  21842848.520    21842854.8314
  20697021.138   -17260775.321 9 -13220318.43248  20697020.791    20697025.5604
  24013618.136    -5961511.723 8  -4620581.07345  24013617.549    24013625.4314
  21772334.428   -19376524.079 9 -14852756.41447  21772334.216    21772340.6664
 01  7 19 18 19  0.0010000  0  9 26 21 14 17 15 23 18 31 03
  24092634.598      199742.833 7    166467.97845  24092634.796    24092642.2004
  21630246.860   -20881155.291 9 -16258031.16047  21630246.492    21630253.2204
  24130753.622    -4853296.605 8  -3760269.31845  24130753.257    24130763.3414
  21481863.236    -1029868.857 9   -797996.99847  21481862.756    21481869.3074
  20688548.340   -10612132.203 9  -8259951.34648  20688547.726    20688554.0514
  21853504.927    -3429456.425 9  -2662418.49047  21853504.464    21853510.7764
  20702233.591   -17233383.658 9 -13198974.29148  20702233.272    20702238.0184
  23996382.362    -6052085.173 8  -4691157.72145  23996381.901    23996389.8394
  21765148.112   -19414288.364 9 -14882183.12647  21765147.952    21765154.3854
 01  7 19 18 19 30.0010000  0  9 26 21 14 17 15 23 18 31 03
  24110851.598      295474.852 7    241064.30045  24110851.805    24110859.3664
  21622496.083   -20921886.047 9 -16289769.38647  21622495.658    21622502.3904
  24109199.306    -4966565.502 8  -3848530.62345  24109198.829    24109208.9044
  21491477.479     -979346.152 8   -758628.69847  21491476.940    21491483.5234
  20693626.392   -10585447.045 9  -8239157.72448  20693625.771    20693632.0464
  21864200.705    -3373249.562 9  -2618620.94747  21864200.219    21864206.6364
  20707517.177   -17205618.234 9 -13177338.90148  20707516.884    20707521.6344
  23979207.344    -6142339.758 7  -4761485.91045  23979206.920    23979214.9104
  21758064.437   -19451513.130 9 -14911189.43647  21758064.256    21758070.6744
 01  7 19 18 20  0.0010000  0  9 26 21 14 17 15 23 18 31 03
  24129132.279      391541.264 7    315921.21945  24129132.629    24129140.0404
  21614800.390   -20962326.600 9 -16321281.48747  21614800.025    21614806.8154
  24087665.541    -5079725.979 8  -3936707.45945  24087665.007    24087674.9094
  21501149.467     -928519.275 8   -719023.38047  21501148.984    21501155.5744
  20698771.148   -10558411.592 9  -8218091.15548  20698770.469    20698776.7514
  21874936.127    -3316834.095 9  -2574660.86947  21874935.727    21874942.1674
  20712871.641   -17177480.237 9 -13155413.20048  20712871.358    20712876.1274
  23962093.578    -6232272.273 7  -4831563.15645  23962093.258    23962101.1144
  21751083.816   -19488196.442 9 -14939773.82747  21751083.638    21751090.0424
 01  7 19 18 20 30.0010000  0  9 26 21 14 17 15 23 18 31 03
  24147476.301      487938.716 7    391036.04645  24147476.430    24147483.8944
  21607160.035   -21002477.131 9 -16352567.58747  21607159.625    21607166.4124
  24066152.734    -5192775.847 8  -4024798.11345  24066152.389    24066162.0904
  21510879.323     -877388.473 8   -679181.23547  21510878.859    21510885.4544
  20703982.453   -10531026.138 9  -8196751.85048  20703981.762    20703988.0434
  21885710.990    -3260211.929 9  -2530539.71747  21885710.528    21885716.9634
  20718296.736   -17148971.083 9 -13133198.28348  20718296.452    20718301.2984
  23945041.375    -6321880.693 8  -4901387.83245  23945041.173    23945049.0744
  21744206.489   -19524337.390 9 -14967935.60547  21744206.289    21744212.6194
 01  7 19 18 21  0.0010000  0  9 26 21 14 17 15 23 18 31 03
  24165882.548      584663.940 7    466406.25845  24165882.498    24165890.0054
  21599574.673   -21042338.182 9 -16383628.13247  21599574.306    21599581.0784
  24044661.754    -5305712.682 8  -4112800.65445  24044661.187    24044670.8514
  21520666.947     -825954.307 8   -639102.71547  21520666.522    21520673.0764
  20709260.280   -10503290.912 9  -8175140.00548  20709259.588    20709265.9114
  21896524.875    -3203384.971 9  -2486258.98747  21896524.381    21896530.8004
  20723792.051   -17120092.742 9 -13110695.69548  20723791.807    20723796.6494
  23928051.576    -6411162.543 7  -4970958.04945  23928051.384    23928059.2154
  21737432.535   -19559934.935 9 -14995673.95247  21737432.309    21737438.6444
 01  7 19 18 21 30.0010000  0  9 26 21 14 17 15 23 18 31 03
  24184350.179      681714.493 7    542029.99845  24184350.502    24184358.1364
  21592044.494   -21081909.633 9 -16414463.00547  21592044.129    21592050.8344
  24023192.760    -5418533.215 8  -4200712.57545  24023192.080    24023201.6154
  21530512.380     -774216.203 8   -598787.35047  21530511.947    21530518.5094
  20714604.779   -10475205.204 9  -8153255.05448  20714604.128    20714610.5224
  21907377.405    -3146354.289 9  -2441819.50747  21907376.949    21907383.4174
  20729357.512   -17090846.141 9 -13087906.13848  20729357.235    20729362.0334
  23911124.244    -6500114.611 8  -5040271.28745  23911124.303    23911132.0504
  21730762.225   -19594987.260 9 -15022987.44247  21730762.027    21730768.4844
 01  7 19 18 22  0.0010000  0  9 26 21 14 17 15 23 18 31 03
  24202879.783      779087.503 7    617905.01745  24202880.164    24202887.5784
  21584569.357   -21121191.644 9 -16445072.35047  21584569.004    21584575.6624
  24001746.051    -5531234.702 8  -4288531.69445  24001745.558    24001754.9744
  21540415.753     -722174.076 8   -558235.08647  21540415.281    21540421.8554
  20720016.118   -10446768.516 9  -8131096.61148  20720015.482    20720021.8314
  21918268.480    -3089121.212 9  -2397222.32347  21918268.059    21918274.5994
  20734992.820   -17061232.565 9 -13064830.63248  20734992.533    20734997.2744
  23894260.889    -6588734.110 8  -5109325.39345  23894260.727    23894268.3944
  21724195.990   -19629492.852 9 -15049874.91747  21724195.772    21724202.2674
 01  7 19 18 22 30.0010000  0  9 26 21 14 17 15 23 18 31 03
  24221470.266      876778.799 7    694028.02245  24221470.274    24221477.7214
  21577149.183   -21160185.163 9 -16475456.88647  21577148.771    21577155.4104
  23980322.424    -5643815.590 8  -4376256.86145  23980321.969    23980331.3434
  21550376.747     -669829.179 8   -517446.89547  21550376.255    21550382.7844
  20725494.027   -10417982.066 9  -8108665.62148  20725493.379    20725499.6464
  21929197.579    -3031688.647 9  -2352469.69447  21929197.083    21929203.6514
  20740697.486   -17031254.749 9 -13041471.30348  20740697.174    20740701.8964
  23877460.894    -6677019.763 8  -5178119.35145  23877460.688    23877468.4454
  21717733.934   -19663451.345 9 -15076336.07547  21717733.676    21717740.1734
 01  7 19 18 23  0.0010000  0  9 26 21 14 17 15 23 18 31 03
  24240120.554      974786.277 7    770397.43445  24240120.494    24240128.0704
  21569783.967   -21198889.268 9 -16505615.90647  21569783.560    21569790.2454
  23958922.273    -5756272.354 8  -4463885.29345  23958921.864    23958931.4574
  21560395.426     -617180.664 8   -476422.12947  21560394.979    21560401.5184
  20731038.667   -10388844.840 9  -8085961.30448  20731038.021    20731044.2824
  21940164.608    -2974056.928 9  -2307561.88547  21940164.090    21940170.6124
  20746471.358   -17000913.032 9 -13017828.41548  20746471.017    20746475.8004
  23860724.833    -6764968.077 8  -5246650.42945  23860724.605    23860732.4944
  21711376.406   -19696860.509 9 -15102369.18247  21711376.157    21711382.6404
 01  7 19 18 23 30.0010000  0  9 26 21 14 17 15 23 18 31 03
  24258830.108     1073107.763 7    847011.53445  24258830.391    24258838.1224
  21562473.845   -21237303.673 9 -16535549.19347  21562473.480    21562480.1754
  23937546.474    -5868601.536 8  -4551414.31045  23937546.113    23937555.7064
  21570472.001     -564227.782 8   -435160.19347  21570471.563    21570478.1824
  20736650.223   -10359355.870 9  -8062982.89948  20736649.596    20736655.8724
  21951169.436    -2916226.757 9  -2262499.43647  21951168.892    21951175.3424
  20752314.291   -16970208.111 9 -12993902.51548  20752313.972    20752318.7894
  23844053.642    -6852575.713 8  -5314916.05645  23844053.485    23844061.3154
  21705123.810   -19729718.288 9 -15127972.64747  21705123.536    21705130.0084
 01  7 19 18 24  0.0010000  0  9 26 21 14 17 15 23 18 31 03
  24277599.306     1171739.577 7    923867.43645  24277599.408    24277607.1954
  21555218.764   -21275429.600 9 -16565257.69147  21555218.403    21555225.0784
  23916195.412    -5980801.610 8  -4638842.72545  23916195.043    23916204.6344
  21580606.251     -510971.561 8   -393661.88347  21580605.857    21580612.5564
  20742328.595   -10329515.809 9  -8039730.91748  20742327.995    20742334.2984
  21962211.525    -2858200.540 9  -2217284.22047  21962210.958    21962217.3704
  20758225.866   -16939142.519 9 -12969695.57248  20758225.540    20758230.3704
  23827447.846    -6939841.037 8  -5382914.94745  23827447.442    23827455.2044
  21698976.160   -19762024.257 9 -15153146.13047  21698975.901    21698982.4444
 01  7 19 18 24 30.0010000  0  9 26 21 14 17 15 23 18 31 03
  24296427.113     1270678.641 8   1000962.73345  24296426.953    24296434.7004
  21548018.581   -21313267.437 9 -16594741.70247  21548018.128    21548024.7724
  23894869.444    -6092869.480 8  -4726168.11045  23894869.057    23894878.7474
  21590798.283     -457412.008 8   -351927.21747  21590797.932    21590804.7264
  20748073.819   -10299324.576 9  -8016205.29448  20748073.228    20748079.5054
  21973290.475    -2799979.822 9  -2171917.44747  21973289.978    21973296.3974
  20764205.891   -16907717.411 9 -12945208.48148  20764205.570    20764210.3644
  23810907.476    -7026761.411 8  -5450645.04845  23810907.022    23810914.8044
  21692933.756   -19793777.334 9 -15177888.78747  21692933.495    21692940.0534
 01  7 19 18 25  0.0010000  0  9 26 21 14 17 15 23 18 31 03
  24315312.723     1369921.796 7   1078294.98445  24315312.548    24315319.9694
  21540873.067   -21350817.275 9 -16624001.29647  21540872.664    21540879.2474
  23873569.161    -6204802.349 8  -4813388.28745  23873568.812    23873578.4214
  21601048.063     -403549.263 8   -309956.29947  21601047.696    21601054.5044
  20753885.835   -10268781.998 9  -7992405.89748  20753885.234    20753891.5714
  21984406.240    -2741566.191 9  -2126400.34347  21984405.772    21984412.0714
  20770254.066   -16875934.174 9 -12920442.33448  20770253.713    20770258.5194
  23794433.074    -7113334.219 8  -5518104.31245  23794432.647    23794440.5164
  21686996.806   -19824976.159 9 -15202199.55647  21686996.525    21687003.0774
 01  7 19 18 25 30.0010000  0  9 26 21 14 17 15 23 18 31 03
  24334255.669     1469466.562 8   1155862.26845  24334255.525    24334262.8314
  21533782.495   -21388078.709 9 -16653036.16347  21533782.043    21533788.5524
  23852295.036    -6316597.453 8  -4900501.16145  23852294.610    23852304.1454
  21611355.666     -349382.865 8   -267748.76047  21611355.270    21611362.0614
  20759764.806   -10237887.580 9  -7968332.34048  20759764.254    20759770.6174
  21995558.510    -2682960.674 9  -2080733.72947  21995558.082    21995564.3454
  20776370.107   -16843793.823 9 -12895397.91448  20776369.808    20776374.5764
  23778025.309    -7199556.338 7  -5585290.31545  23778024.927    23778032.8784
  21681165.624   -19855618.942 9 -15226077.05447  21681165.412    21681171.9594
 01  7 19 18 26  0.0010000  0 10 26 21 14 17 29 15 23 18 31 03
  24353254.966     1569308.887 7   1233661.40045  24353254.922    24353262.2204
  21526746.448   -21425053.506 9 -16681847.67447  21526745.964    21526752.4724
  23831047.313    -6428253.213 8  -4987505.41045  23831046.970    23831056.4994
  21621720.725     -294914.347 8   -225305.81147  21621720.275    21621727.1084
  24759732.686    -1824746.254 7  -1409121.21845  24759732.564    24759744.8314
  20765710.566   -10206642.521 9  -7943985.55748  20765709.988    20765716.3684
  22006746.767    -2624166.084 9  -2034919.78947  22006746.336    22006752.6944
  20782553.666   -16811299.280 9 -12870077.49948  20782553.338    20782558.1034
  23761684.474    -7285426.487 8  -5652202.05845  23761684.249    23761692.2084
  21675440.310   -19885706.010 9 -15249521.52347  21675440.065    21675446.6144
 01  7 19 18 26 30.0010000  0 10 26 21 14 17 29 15 23 18 31 03
  24372310.454     1669446.065 8   1311690.29245  24372310.560    24372317.9244
  21519764.912   -21461741.573 9 -16710435.76347  21519764.447    21519770.9924
  23809826.797    -6539766.662 8  -5074398.81545  23809826.500    23809835.8704
  21632143.234     -240143.135 8   -182626.98847  21632142.919    21632149.7934
  24738573.222    -1935940.304 7  -1495765.76645  24738573.132    24738585.0284
  20771723.130   -10175046.268 9  -7919365.11348  20771722.576    20771728.9864
  22017970.852    -2565183.305 9  -1988959.20947  22017970.396    22017976.7534
  20788804.340   -16778451.672 9 -12844481.97948  20788804.011    20788808.8544
  23745411.425    -7370941.548 8  -5718837.10545  23745411.324    23745419.3244
  21669820.934   -19915235.674 9 -15272531.65147  21669820.725    21669827.2684
 01  7 19 18 27  0.0010000  0 10 26 21 14 17 29 15 23 18 31 03
  24391421.798     1769876.756 7   1389947.85845  24391421.900    24391429.4334
  21512838.237   -21498141.232 9 -16738799.12547  21512837.792    21512844.3894
  23788634.167    -6651133.423 8  -5161177.90245  23788634.111    23788643.3224
  21642623.883     -185067.884 8   -139711.24847  21642623.483    21642630.2904
  24717421.218    -2047094.630 7  -1582379.32845  24717420.926    24717433.2294
  20777802.825   -10143097.220 9  -7894469.76548  20777802.287    20777808.6864
  22029230.769    -2506012.234 9  -1942851.90747  22029230.291    22029236.6384
  20795122.227   -16745250.785 9 -12818611.17048  20795121.937    20795126.7874
  23729206.989    -7456097.508 8  -5785192.34945  23729206.623    23729214.6064
  21664308.258   -19944205.227 9 -15295105.32947  21664308.022    21664314.5794
 01  7 19 18 27 30.0010000  0 10 26 21 14 17 29 15 23 18 31 03
  24410588.274     1870597.430 7   1468431.41545  24410588.301    24410595.9874
  21505966.248   -21534253.455 9 -16766938.50747  21505965.830    21505972.5144
  23767469.760    -6762351.701 8  -5247841.28345  23767469.744    23767478.9884
  21653162.213     -129689.363 8    -96559.18947  21653161.788    21653168.4994
  24696277.059    -2158207.617 7  -1668960.71845  24696276.784    24696288.9244
  20783949.612   -10110796.050 9  -7869300.03148  20783949.041    20783955.3714
  22040526.112    -2446655.090 9  -1896599.60947  22040525.602    22040531.9634
  20801506.999   -16711698.729 9 -12792466.71848  20801506.736    20801511.5264
  23713071.307    -7540892.437 7  -5851266.26345  23713070.593    23713078.5414
  21658902.257   -19972614.168 9 -15317242.16747  21658901.984    21658908.4814
 01  7 19 18 28  0.0010000  0 10 26 21 14 17 29 15 23 18 31 03
  24429809.455     1971605.526 7   1547138.93345  24429809.545    24429817.2324
  21499149.073   -21570077.962 9 -16794853.70447  21499148.669    21499155.3254
  23746334.592    -6873418.126 8  -5334386.37345  23746334.524    23746343.5234
  21663758.258      -74006.999 8    -53170.38447  21663757.763    21663764.5524
  24675141.508    -2269276.341 7  -1755507.61645  24675141.165    24675153.1314
  20790163.499   -10078142.015 9  -7843855.34648  20790162.920    20790169.2954
  22051856.591    -2387112.916 9  -1850203.13747  22051856.108    22051862.5864
  20807958.500   -16677796.304 9 -12766049.25348  20807958.170    20807962.9434
  23697004.321    -7625323.280 8  -5917056.47445  23697003.826    23697011.8444
  21653603.160   -20000460.828 9 -15338940.85547  21653602.923    21653609.4084
 01  7 19 18 28 30.0010000  0 10 26 21 14 17 29 15 23 18 31 03
  24449084.712     2072897.850 7   1626067.92645  24449085.000    24449092.8094
  21492386.577   -21605615.082 9 -16822544.95047  21492386.171    21492392.8084
  23725228.755    -6984330.309 8  -5420811.26945  23725228.565    23725237.4654
  21674411.972      -18021.229 8     -9545.16347  21674411.547    21674418.3114
  24654015.033    -2380298.573 7  -1842018.30645  24654014.391    24654026.1854
  20796444.479   -10045135.175 9  -7818135.74548  20796443.911    20796450.3124
  22063221.814    -2327387.238 9  -1803663.67847  22063221.450    22063228.1044
  20814476.188   -16643545.464 9 -12739360.30648  20814475.868    20814480.6464
  23681006.944    -7709387.645 7  -5982561.10645  23681006.591    23681015.1024
  21648411.320   -20027744.301 9 -15360200.70947  21648411.097    21648417.4884
 01  7 19 18 29  0.0010000  0 10 26 21 14 17 29 15 23 18 31 03
  24468413.509     2174471.496 7   1705216.17145  24468413.909    24468421.6904
  21485678.635   -21640865.503 9 -16850012.79147  21485678.195    21485684.8014
  23704152.881    -7095085.532 8  -5507113.86845  23704152.437    23704161.2364
  21685123.455       38267.657 8     34316.24947  21685123.002    21685129.8404
  24632897.478    -2491272.109 7  -1928491.03245  24632896.622    24632908.6644
  20802792.597   -10011775.584 9  -7792141.27347  20802791.997    20802798.3914
  22074621.830    -2267479.627 9  -1756982.44547  22074621.508    22074628.1684
  20821059.934   -16608947.660 9 -12712400.99448  20821059.630    20821064.3964
  23665079.748    -7793083.293 7  -6047778.46745  23665079.646    23665088.2944
  21643326.820   -20054463.486 9 -15381020.85347  21643326.607    21643333.0564
 01  7 19 18 29 30.0010000  0 10 26 21 14 17 29 15 23 18 31 03
  24487795.354     2276322.994 7   1784580.89745  24487795.652    24487803.3444
  21479025.173   -21675829.569 9 -16877257.50347  21479024.741    21479031.3804
  23683107.174    -7205681.299 8  -5593292.24045  23683106.627    23683115.3594
  21695892.551       94859.458 8     78413.70147  21695892.097    21695898.9924
  24611789.482    -2602194.733 7  -2014924.10045  24611788.523    24611800.6924
  20809207.834    -9978063.638 9  -7765872.24147  20809207.236    20809213.5884
  22086056.328    -2207391.841 9  -1710160.81347  22086055.902    22086062.5024
  20827709.441   -16574004.470 9 -12685172.53848  20827709.137    20827713.8834
  23649223.248    -7876407.997 7  -6112706.73745  23649223.284    23649232.1054
  21638349.882   -20080617.637 9 -15401400.71347  21638349.682    21638356.1484
 01  7 19 18 30  0.0010000  0 10 26 21 14 17 29 15 23 18 31 03
  24507229.611     2378449.610 7   1864160.01945  24507229.897    24507237.5644
  21472426.165   -21710507.308 9 -16904279.10147  21472425.779    21472432.4214
  23662092.237    -7316115.078 8  -5679344.35045  23662091.525    23662100.3314
  21706719.239      151754.084 8    122747.12947  21706718.781    21706725.6724
  24590691.071    -2713064.156 7  -2101315.72345  24590690.650    24590702.9934
  20815690.142    -9943998.820 9  -7739328.24748  20815689.588    20815695.9524
  22097524.623    -2147125.123 9  -1663199.75547  22097524.252    22097530.8874
  20834424.299   -16538717.420 9 -12657676.14948  20834424.018    20834428.8204
  23633438.209    -7959358.759 8  -6177343.63345  23633438.261    23633446.9774
  21633480.709   -20106205.775 9 -15421339.52047  21633480.403    21633486.8374
 01  7 19 18 30 30.0010000  0 10 26 21 14 17 29 15 23 18 31 03
  24526715.770     2480848.355 7   1943951.17445  24526715.797    24526723.4394
  21465881.657   -21744899.108 9 -16931077.89247  21465881.260    21465887.8524
  23641108.583    -7426384.261 8  -5765268.23645  23641107.832    23641116.6174
  21717603.382      208951.141 8    167316.21747  21717603.006    21717609.9404
  24569603.421    -2823878.073 7  -2187664.03045  24569603.338    24569615.9724
  20822239.630    -9909581.306 9  -7712509.42547  20822239.034    20822245.4744
  22109026.794    -2086681.056 9  -1616100.53147  22109026.419    22109033.1294
  20841204.320   -16503088.274 9 -12629913.18947  20841203.995    20841208.8414
  23617725.028    -8041933.286 8  -6241687.37745  23617724.919    23617733.5974
  21628719.311   -20131227.150 9 -15440836.70347  21628718.999    21628725.4334
 01  7 19 18 31  0.0010000  0 10 26 21 14 17 29 15 23 18 31 03
  24546253.108     2583515.663 7   2023951.57745  24546252.823    24546260.5114
  21459391.248   -21779006.004 9 -16957654.68247  21459390.873    21459397.4964
  23620156.577    -7536486.541 8  -5851062.07345  23620155.946    23620164.7304
  21728545.235      266450.224 8    212120.64647  21728544.801    21728551.7624
  24548527.024    -2934634.512 7  -2273967.63545  24548527.258    24548539.5274
  20828856.168    -9874811.480 9  -7685416.07448  20828855.553    20828861.9954
  22120562.350    -2026061.519 9  -1568864.55847  22120561.944    22120568.6584
  20848049.005   -16467119.020 9 -12601885.21247  20848048.686    20848053.5754
  23602083.920    -8124129.487 8  -6305736.32145  23602083.687    23602092.0324
  21624065.894   -20155680.845 9 -15459891.52947  21624065.651    21624072.0684
 01  7 19 18 31 30.0010000  0 10 26 21 14 17 29 15 23 18 31 03
  24565840.614     2686448.499 7   2104158.88545  24565840.333    24565847.8924
  21452955.004   -21812828.366 9 -16984009.74947  21452954.659    21452961.3124
  23599237.052    -7646419.263 8  -5936723.80545  23599236.449    23599245.0964
  21739544.437      324251.073 8    257160.21047  21739543.987    21739551.0114
  24527462.263    -3045331.204 7  -2360224.61745  24527462.372    24527474.0704
  20835539.772    -9839689.193 9  -7658048.07748  20835539.136    20835545.5804
  22132131.070    -1965268.014 9  -1521493.00947  22132130.674    22132137.1274
  20854958.111   -16430810.852 9 -12573593.14747  20854957.853    20854962.8334
  23586515.198    -8205945.275 8  -6369488.83845  23586514.835    23586522.8894
  21619520.704   -20179565.979 9 -15478503.32147  21619520.398    21619526.7804
 01  7 19 18 32  0.0010000  0 10 26 21 14 17 29 15 23 18 31 03
  24585478.175     2789644.684 7   2184571.42245  24585478.158    24585485.6484
  21446573.125   -21846365.461 9 -17010142.53347  21446572.717    21446579.3864
  23578350.283    -7756178.886 8  -6022250.65145  23578349.788    23578358.3344
  21750601.169      382354.204 8    302435.32847  21750600.712    21750607.6904
  24506409.145    -3155965.129 7  -2446432.71745  24506409.186    24506421.1234
  20842290.452    -9804213.952 9  -7630405.05547  20842289.843    20842296.2854
  22143732.753    -1904301.224 8  -1473986.44247  22143732.303    22143738.6804
  20861931.701   -16394164.388 9 -12545037.47747  20861931.455    20861936.4234
  23571019.453    -8287377.066 8  -6432942.12045  23571019.043    23571026.8544
  21615084.018   -20202880.920 9 -15496670.81947  21615083.729    21615090.1224
 01  7 19 18 32 30.0010000  0 10 26 21 14 17 29 15 23 18 31 03
  24605165.594     2893101.888 7   2265187.33945  24605165.419    24605173.0694
  21440245.485   -21879617.533 9 -17036053.22547  21440245.087    21440251.7294
  23557496.940    -7865762.401 8  -6107640.25946  23557496.585    23557505.0844
  21761715.375      440760.147 8    347946.41447  21761714.978    21761722.0524
  24485369.040    -3266533.220 7  -2532589.49845  24485368.922    24485380.4884
  20849108.505    -9768384.910 9  -7602486.34947  20849107.903    20849114.3584
  22155367.181    -1843161.893 8  -1426345.44147  22155366.749    22155373.1584
  20868969.585   -16357180.683 9 -12516219.01948  20868969.293    20868974.2284
  23555597.211    -8368421.779 8  -6496093.81945  23555596.800    23555604.4404
  21610756.103   -20225624.023 9 -15514392.72547  21610755.835    21610762.2304
 01  7 19 18 33  0.0010000  0 10 26 21 14 17 29 15 23 18 31 03
  24624901.717     2996816.015 7   2346003.46745  24624901.484    24624909.4424
  21433971.948   -21912585.227 9 -17061742.32147  21433971.550    21433978.1664
  23536677.707    -7975168.196 8  -6192891.39346  23536677.308    23536685.7554
  21772887.078      499467.671 8    393692.48147  21772886.684    21772893.8664
  24464341.595    -3377034.169 7  -2618693.94245  24464341.039    24464352.7484
  20855993.594    -9732203.262 9  -7574292.88247  20855993.006    20855999.5384
  22167033.974    -1781852.583 9  -1378571.98847  22167033.562    22167040.0214
  20876071.028   -16319862.398 9 -12487139.84647  20876070.747    20876075.6834
  23540249.045    -8449077.945 8  -6558942.73045  23540248.475    23540256.0564
  21606536.912   -20247795.683 9 -15531669.33747  21606536.716    21606543.1124
 01  7 19 18 33 30.0010000  0 10 26 21 14 17 29 15 23 18 31 03
  24644685.855     3100783.338 7   2427016.89145  24644685.959    24644694.0274
  21427752.191   -21945270.154 9 -17087211.07647  21427751.786    21427758.4164
  23515892.772    -8084394.104 8  -6278002.33746  23515892.276    23515900.6644
  21784115.939      558475.755 8    439672.75347  21784115.540    21784122.7634
  24443327.104    -3487466.386 7  -2704744.81945  24443326.398    24443337.9004
  20862945.714    -9695669.750 9  -7545825.23547  20862945.144    20862951.6434
  22178732.772    -1720375.557 9  -1330667.84247  22178732.293    22178738.6964
  20883235.792   -16282211.390 9 -12457801.40547  20883235.507    20883240.4034
  23524974.689    -8529343.990 8  -6621487.67945  23524974.289    23524981.7084
  21602426.698   -20269395.670 9 -15548500.50447  21602426.431    21602432.7714
 01  7 19 18 34  0.0010000  0 10 26 21 14 17 29 15 23 18 31 03
  24664518.144     3205002.987 7   2508226.98145  24664518.339    24664526.3704
  21421586.598   -21977670.260 9 -17112457.90247  21421586.215    21421592.8994
  23495142.915    -8193435.194 8  -6362969.26646  23495142.332    23495150.5894
  21795402.460      617786.469 8    485888.85147  21795401.987    21795409.3374
  24422326.275    -3597825.295 7  -2790738.56445  24422325.457    24422337.1624
  20869965.258    -9658782.155 9  -7517081.67847  20869964.684    20869971.1234
  22190463.521    -1658729.805 8  -1282632.21447  22190463.082    22190469.4674
  20890464.043   -16244227.219 9 -12428203.36447  20890463.713    20890468.6004
  23509775.565    -8609215.026 8  -6683724.80945  23509775.222    23509782.7134
  21598425.623   -20290420.820 9 -15564883.74547  21598425.381    21598431.8674
 01  7 19 18 34 30.0010000  0 10 26 21 14 17 29 15 23 18 31 03
  24684398.015     3309472.279 7   2589631.52545  24684398.217    24684406.2704
  21415475.279   -22009785.570 9 -17137482.81347  21415474.865    21415481.5634
  23474428.445    -8302289.184 8  -6447790.39546  23474427.972    23474436.1644
  21806746.419      677399.660 8    532340.63747  21806745.944    21806753.3764
  24401339.688    -3708108.467 7  -2876673.26345  24401339.065    24401350.8254
  20877052.263    -9621540.340 9  -7488062.10347  20877051.608    20877058.0084
  22202226.223    -1596916.884 9  -1234466.33347  22202225.709    22202232.0864
  20897755.288   -16205911.560 9 -12398347.02147  20897754.955    20897759.8724
  23494652.247    -8688688.659 8  -6745652.27545  23494651.850    23494659.3374
  21594534.263   -20310870.312 9 -15580818.42247  21594534.025    21594540.4284
 01  7 19 18 35  0.0010000  0 10 26 21 14 17 29 15 23 18 31 03
  24704324.760     3414187.446 7   2671227.67845  24704325.162    24704332.9244
  21409417.862   -22041617.258 9 -17162286.71447  21409417.469    21409424.1974
  23453749.971    -8410953.970 8  -6532464.10046  23453749.587    23453757.7614
  21818147.778      737314.317 8    579027.33346  21818147.341    21818154.8544
  24380367.922    -3818314.323 7  -2962547.75745  24380367.513    24380379.1104
  20884206.376    -9583945.057 9  -7458767.10147  20884205.765    20884212.1574
  22214020.305    -1534938.927 9  -1186171.85247  22214019.804    22214026.1904
  20905109.176   -16167266.591 9 -12368234.07247  20905108.864    20905113.7564
  23479604.993    -8767763.227 8  -6807268.77745  23479604.428    23479611.9144
  21590752.523   -20330744.113 9 -15596304.49947  21590752.223    21590758.6084
 01  7 19 18 35 30.0010000  0 10 26 21 14 17 29 15 23 18 31 03
  24724297.718     3519145.756 7   2753013.31145  24724298.284    24724305.7574
  21403414.491   -22073165.385 9 -17186869.66347  21403414.115    21403420.7514
  23433107.988    -8519426.670 8  -6616988.14046  23433107.767    23433115.9084
  21829606.593      797530.599 8    625949.05647  21829606.138    21829613.6964
  24359411.275    -3928440.312 7  -3048359.97345  24359411.031    24359422.6644
  20891427.788    -9545996.160 9  -7429196.55647  20891427.186    20891433.5694
  22225845.480    -1472797.063 8  -1137749.64347  22225845.008    22225851.4664
  20912525.502   -16128293.578 9 -12337865.51047  20912525.210    20912530.0974
  23464634.008    -8846435.922 8  -6868572.13245  23464633.483    23464640.9244
  21587080.473   -20350041.170 9 -15611341.16847  21587080.165    21587086.5594
 01  7 19 18 36  0.0010000  0 11 26 21 14 17 29 15 23 18 31 03 09
  24744316.191     3624344.101 7   2834985.94745  24744316.517    24744324.4814
  21397465.006   -22104430.420 9 -17211232.02147  21397464.603    21397471.1634
  23412503.277    -8627704.841 8  -6701360.57946  23412502.962    23412511.1124
  21841122.702      858048.186 8    673105.55947  21841122.295    21841129.7884
  24338470.505    -4038484.152 7  -3134108.15845  24338470.318    24338481.9294
  20898716.525    -9507693.685 9  -7399350.50347  20898715.910    20898722.3184
  22237701.402    -1410492.783 8  -1089200.89147  22237701.020    22237707.5484
  20920004.000   -16088994.009 9 -12307242.48847  20920003.723    20920008.5924
  23449739.994    -8924704.509 8  -6929560.60145  23449739.493    23449746.8354
  21583518.272   -20368760.740 9 -15625927.85847  21583517.971    21583524.3374
  24707675.689                                    24707679.449    24707687.7554
 01  7 19 18 36 30.0010000  0 10 26 21 14 17 29 15 23 18 31 03
  24764379.705     3729779.576 7   2917143.39445  24764379.977    24764388.1674
  21391569.263   -22135412.831 9 -17235374.15747  21391568.795    21391575.3674
  23391935.898    -8735785.535 8  -6785579.15746  23391935.680    23391943.8404
  21852696.143      918866.790 8    720496.63046  21852695.753    21852703.2304
  24317545.733    -4148443.430 7  -3219790.46045  24317545.644    24317557.1314
  20906072.576    -9469037.672 9  -7369228.95747  20906071.947    20906078.2774
  22249588.254    -1348027.407 8  -1040526.59847  22249587.821    22249594.3504
  20927544.285   -16049369.733 9 -12276366.45347  20927543.983    20927548.8804
  23434923.481    -9002566.184 8  -6990232.00245  23434922.830    23434930.2354
  21580065.983   -20386902.534 9 -15640064.32047  21580065.682    21580072.1354
 01  7 19 18 37  0.0010000  0 11 26 21 14 17 29 15 23 18 31 03 09
  24784488.167     3835449.090 7   2999483.21945  24784488.286    24784496.2374
  21385727.143   -22166113.057 9 -17259296.40247  21385726.720    21385733.2864
  23371406.663    -8843666.556 8  -6869642.12346  23371406.383    23371414.5954
  21864326.881      979986.127 8    768122.03646  21864326.492    21864333.8674
  24296637.287    -4258315.793 7  -3305405.01745  24296637.249    24296648.9004
  20913495.865    -9430028.129 9  -7338831.93647  20913495.228    20913501.5724
  22261505.379    -1285402.363 8   -991727.89147  22261505.011    22261511.5694
  20935146.097   -16009422.007 9 -12245238.37047  20935145.820    20935150.7074
  23420184.335    -9080018.831 8  -7050584.68045  23420183.974    23420191.5184
  21576723.789   -20404465.808 9 -15653749.99547  21576723.505    21576729.9404
  24683750.698                                    24683748.546    24683732.3194
